<?xml version="1.0" encoding="UTF-8" standalone="no" ?>
<gpx xmlns="http://www.topografix.com/GPX/1/1" xmlns:xsi="http://www.w3.org/2001/XMLSchema-instance" xsi:schemaLocation="http://www.topografix.com/GPX/1/1 http://www.topografix.com/GPX/1/1/gpx.xsd" version="1.1" creator="VisuGPX - https://www.visugpx.com">
  <metadata>
    <name>Gelinotte</name>
    <desc><![CDATA[gelinotte
]]></desc>
  </metadata>
  <trk>
    <name><![CDATA[26-SEPT-11 20:35:12]]></name>
    <trkseg>
      <trkpt lat="45.47863" lon="6.17014">
        <ele>784.57</ele>
        <time>2011-09-25T11:50:30Z</time>
      </trkpt>
      <trkpt lat="45.47862" lon="6.17014">
        <ele>788.42</ele>
        <time>2011-09-25T11:50:32Z</time>
      </trkpt>
      <trkpt lat="45.47862" lon="6.17014">
        <ele>791.78</ele>
        <time>2011-09-25T11:50:34Z</time>
      </trkpt>
      <trkpt lat="45.47862" lon="6.17014">
        <ele>794.67</ele>
        <time>2011-09-25T11:50:36Z</time>
      </trkpt>
      <trkpt lat="45.47862" lon="6.17014">
        <ele>798.03</ele>
        <time>2011-09-25T11:50:38Z</time>
      </trkpt>
      <trkpt lat="45.47862" lon="6.17013">
        <ele>798.99</ele>
        <time>2011-09-25T11:50:40Z</time>
      </trkpt>
      <trkpt lat="45.47862" lon="6.17013">
        <ele>802.36</ele>
        <time>2011-09-25T11:50:41Z</time>
      </trkpt>
      <trkpt lat="45.47862" lon="6.17012">
        <ele>807.16</ele>
        <time>2011-09-25T11:50:44Z</time>
      </trkpt>
      <trkpt lat="45.47863" lon="6.17012">
        <ele>807.16</ele>
        <time>2011-09-25T11:50:45Z</time>
      </trkpt>
      <trkpt lat="45.47863" lon="6.17012">
        <ele>811.01</ele>
        <time>2011-09-25T11:50:49Z</time>
      </trkpt>
      <trkpt lat="45.47863" lon="6.17013">
        <ele>813.41</ele>
        <time>2011-09-25T11:50:54Z</time>
      </trkpt>
      <trkpt lat="45.47863" lon="6.17013">
        <ele>817.26</ele>
        <time>2011-09-25T11:50:57Z</time>
      </trkpt>
      <trkpt lat="45.47864" lon="6.17013">
        <ele>820.62</ele>
        <time>2011-09-25T11:51:02Z</time>
      </trkpt>
      <trkpt lat="45.47864" lon="6.17014">
        <ele>821.58</ele>
        <time>2011-09-25T11:51:04Z</time>
      </trkpt>
      <trkpt lat="45.47864" lon="6.17012">
        <ele>824.95</ele>
        <time>2011-09-25T11:51:11Z</time>
      </trkpt>
      <trkpt lat="45.47864" lon="6.17011">
        <ele>825.91</ele>
        <time>2011-09-25T11:51:13Z</time>
      </trkpt>
      <trkpt lat="45.47865" lon="6.1701">
        <ele>829.27</ele>
        <time>2011-09-25T11:51:21Z</time>
      </trkpt>
      <trkpt lat="45.47865" lon="6.17006">
        <ele>832.16</ele>
        <time>2011-09-25T11:51:36Z</time>
      </trkpt>
      <trkpt lat="45.47865" lon="6.17007">
        <ele>835.04</ele>
        <time>2011-09-25T11:51:51Z</time>
      </trkpt>
      <trkpt lat="45.47865" lon="6.17006">
        <ele>836.48</ele>
        <time>2011-09-25T11:52:21Z</time>
      </trkpt>
      <trkpt lat="45.47864" lon="6.17012">
        <ele>836.48</ele>
        <time>2011-09-25T11:52:38Z</time>
      </trkpt>
      <trkpt lat="45.47864" lon="6.17011">
        <ele>836</ele>
        <time>2011-09-25T11:52:52Z</time>
      </trkpt>
      <trkpt lat="45.47863" lon="6.17011">
        <ele>836.48</ele>
        <time>2011-09-25T11:53:23Z</time>
      </trkpt>
      <trkpt lat="45.47864" lon="6.17012">
        <ele>836.48</ele>
        <time>2011-09-25T11:53:39Z</time>
      </trkpt>
      <trkpt lat="45.47862" lon="6.17015">
        <ele>836</ele>
        <time>2011-09-25T11:53:44Z</time>
      </trkpt>
      <trkpt lat="45.47857" lon="6.17011">
        <ele>836.48</ele>
        <time>2011-09-25T11:53:51Z</time>
      </trkpt>
      <trkpt lat="45.47861" lon="6.17018">
        <ele>836.96</ele>
        <time>2011-09-25T11:53:56Z</time>
      </trkpt>
      <trkpt lat="45.47863" lon="6.17019">
        <ele>836.48</ele>
        <time>2011-09-25T11:53:58Z</time>
      </trkpt>
      <trkpt lat="45.47876" lon="6.1703">
        <ele>837.93</ele>
        <time>2011-09-25T11:54:10Z</time>
      </trkpt>
      <trkpt lat="45.47879" lon="6.17033">
        <ele>837.93</ele>
        <time>2011-09-25T11:54:13Z</time>
      </trkpt>
      <trkpt lat="45.47883" lon="6.17036">
        <ele>838.41</ele>
        <time>2011-09-25T11:54:26Z</time>
      </trkpt>
      <trkpt lat="45.47892" lon="6.17048">
        <ele>838.89</ele>
        <time>2011-09-25T11:54:35Z</time>
      </trkpt>
      <trkpt lat="45.47918" lon="6.17085">
        <ele>841.77</ele>
        <time>2011-09-25T11:54:48Z</time>
      </trkpt>
      <trkpt lat="45.47939" lon="6.17123">
        <ele>843.69</ele>
        <time>2011-09-25T11:55:01Z</time>
      </trkpt>
      <trkpt lat="45.47959" lon="6.17144">
        <ele>846.58</ele>
        <time>2011-09-25T11:55:12Z</time>
      </trkpt>
      <trkpt lat="45.47972" lon="6.17131">
        <ele>848.02</ele>
        <time>2011-09-25T11:55:23Z</time>
      </trkpt>
      <trkpt lat="45.47973" lon="6.1713">
        <ele>848.02</ele>
        <time>2011-09-25T11:55:44Z</time>
      </trkpt>
      <trkpt lat="45.47973" lon="6.1713">
        <ele>848.5</ele>
        <time>2011-09-25T11:56:14Z</time>
      </trkpt>
      <trkpt lat="45.47973" lon="6.17131">
        <ele>848.5</ele>
        <time>2011-09-25T11:56:48Z</time>
      </trkpt>
      <trkpt lat="45.47973" lon="6.17131">
        <ele>848.5</ele>
        <time>2011-09-25T11:57:15Z</time>
      </trkpt>
      <trkpt lat="45.47973" lon="6.17131">
        <ele>848.02</ele>
        <time>2011-09-25T11:57:39Z</time>
      </trkpt>
      <trkpt lat="45.47973" lon="6.17131">
        <ele>848.98</ele>
        <time>2011-09-25T11:58:14Z</time>
      </trkpt>
      <trkpt lat="45.47973" lon="6.17131">
        <ele>848.5</ele>
        <time>2011-09-25T11:58:48Z</time>
      </trkpt>
      <trkpt lat="45.47973" lon="6.17131">
        <ele>848.98</ele>
        <time>2011-09-25T11:59:11Z</time>
      </trkpt>
      <trkpt lat="45.47972" lon="6.17131">
        <ele>848.98</ele>
        <time>2011-09-25T11:59:32Z</time>
      </trkpt>
      <trkpt lat="45.47972" lon="6.17131">
        <ele>849.46</ele>
        <time>2011-09-25T12:00:03Z</time>
      </trkpt>
      <trkpt lat="45.47973" lon="6.17131">
        <ele>848.98</ele>
        <time>2011-09-25T12:00:32Z</time>
      </trkpt>
      <trkpt lat="45.47973" lon="6.17131">
        <ele>848.98</ele>
        <time>2011-09-25T12:00:59Z</time>
      </trkpt>
      <trkpt lat="45.47972" lon="6.17131">
        <ele>848.98</ele>
        <time>2011-09-25T12:01:31Z</time>
      </trkpt>
      <trkpt lat="45.47973" lon="6.17131">
        <ele>849.46</ele>
        <time>2011-09-25T12:02:03Z</time>
      </trkpt>
      <trkpt lat="45.47972" lon="6.17132">
        <ele>849.94</ele>
        <time>2011-09-25T12:02:09Z</time>
      </trkpt>
      <trkpt lat="45.47971" lon="6.17137">
        <ele>848.98</ele>
        <time>2011-09-25T12:02:22Z</time>
      </trkpt>
      <trkpt lat="45.4797" lon="6.17138">
        <ele>848.98</ele>
        <time>2011-09-25T12:02:44Z</time>
      </trkpt>
      <trkpt lat="45.47968" lon="6.1714">
        <ele>848.5</ele>
        <time>2011-09-25T12:02:46Z</time>
      </trkpt>
      <trkpt lat="45.4795" lon="6.17138">
        <ele>846.58</ele>
        <time>2011-09-25T12:02:58Z</time>
      </trkpt>
      <trkpt lat="45.47934" lon="6.17112">
        <ele>844.66</ele>
        <time>2011-09-25T12:03:11Z</time>
      </trkpt>
      <trkpt lat="45.47918" lon="6.17085">
        <ele>843.21</ele>
        <time>2011-09-25T12:03:29Z</time>
      </trkpt>
      <trkpt lat="45.47917" lon="6.17084">
        <ele>842.73</ele>
        <time>2011-09-25T12:03:30Z</time>
      </trkpt>
      <trkpt lat="45.47917" lon="6.17079">
        <ele>842.73</ele>
        <time>2011-09-25T12:03:42Z</time>
      </trkpt>
      <trkpt lat="45.47914" lon="6.17079">
        <ele>842.73</ele>
        <time>2011-09-25T12:03:58Z</time>
      </trkpt>
      <trkpt lat="45.47913" lon="6.17078">
        <ele>842.73</ele>
        <time>2011-09-25T12:04:14Z</time>
      </trkpt>
      <trkpt lat="45.47913" lon="6.17078">
        <ele>842.25</ele>
        <time>2011-09-25T12:04:42Z</time>
      </trkpt>
      <trkpt lat="45.47913" lon="6.17078">
        <ele>842.25</ele>
        <time>2011-09-25T12:04:53Z</time>
      </trkpt>
      <trkpt lat="45.47915" lon="6.17079">
        <ele>842.25</ele>
        <time>2011-09-25T12:04:55Z</time>
      </trkpt>
      <trkpt lat="45.47939" lon="6.17117">
        <ele>845.14</ele>
        <time>2011-09-25T12:05:09Z</time>
      </trkpt>
      <trkpt lat="45.47963" lon="6.17158">
        <ele>848.5</ele>
        <time>2011-09-25T12:05:23Z</time>
      </trkpt>
      <trkpt lat="45.47984" lon="6.17216">
        <ele>850.42</ele>
        <time>2011-09-25T12:05:36Z</time>
      </trkpt>
      <trkpt lat="45.47958" lon="6.17258">
        <ele>851.87</ele>
        <time>2011-09-25T12:05:48Z</time>
      </trkpt>
      <trkpt lat="45.47957" lon="6.17298">
        <ele>852.83</ele>
        <time>2011-09-25T12:06:00Z</time>
      </trkpt>
      <trkpt lat="45.47952" lon="6.17377">
        <ele>855.23</ele>
        <time>2011-09-25T12:06:16Z</time>
      </trkpt>
      <trkpt lat="45.47937" lon="6.17437">
        <ele>858.11</ele>
        <time>2011-09-25T12:06:29Z</time>
      </trkpt>
      <trkpt lat="45.47927" lon="6.17475">
        <ele>861</ele>
        <time>2011-09-25T12:06:39Z</time>
      </trkpt>
      <trkpt lat="45.47911" lon="6.17514">
        <ele>864.36</ele>
        <time>2011-09-25T12:06:50Z</time>
      </trkpt>
      <trkpt lat="45.47893" lon="6.17544">
        <ele>866.77</ele>
        <time>2011-09-25T12:07:00Z</time>
      </trkpt>
      <trkpt lat="45.47868" lon="6.17575">
        <ele>870.13</ele>
        <time>2011-09-25T12:07:12Z</time>
      </trkpt>
      <trkpt lat="45.4784" lon="6.17619">
        <ele>868.69</ele>
        <time>2011-09-25T12:07:23Z</time>
      </trkpt>
      <trkpt lat="45.47835" lon="6.17656">
        <ele>867.73</ele>
        <time>2011-09-25T12:07:28Z</time>
      </trkpt>
      <trkpt lat="45.47835" lon="6.17665">
        <ele>867.73</ele>
        <time>2011-09-25T12:07:29Z</time>
      </trkpt>
      <trkpt lat="45.47849" lon="6.17699">
        <ele>866.29</ele>
        <time>2011-09-25T12:07:32Z</time>
      </trkpt>
      <trkpt lat="45.47855" lon="6.17733">
        <ele>864.84</ele>
        <time>2011-09-25T12:07:35Z</time>
      </trkpt>
      <trkpt lat="45.47856" lon="6.17744">
        <ele>864.36</ele>
        <time>2011-09-25T12:07:36Z</time>
      </trkpt>
      <trkpt lat="45.47855" lon="6.17762">
        <ele>862.92</ele>
        <time>2011-09-25T12:07:38Z</time>
      </trkpt>
      <trkpt lat="45.47854" lon="6.17769">
        <ele>862.92</ele>
        <time>2011-09-25T12:07:39Z</time>
      </trkpt>
      <trkpt lat="45.47852" lon="6.17775">
        <ele>862.92</ele>
        <time>2011-09-25T12:07:40Z</time>
      </trkpt>
      <trkpt lat="45.47849" lon="6.17779">
        <ele>861.48</ele>
        <time>2011-09-25T12:07:41Z</time>
      </trkpt>
      <trkpt lat="45.47847" lon="6.17781">
        <ele>861.96</ele>
        <time>2011-09-25T12:07:42Z</time>
      </trkpt>
      <trkpt lat="45.47845" lon="6.17783">
        <ele>861.96</ele>
        <time>2011-09-25T12:07:54Z</time>
      </trkpt>
      <trkpt lat="45.47849" lon="6.17781">
        <ele>861.48</ele>
        <time>2011-09-25T12:08:04Z</time>
      </trkpt>
      <trkpt lat="45.47849" lon="6.17781">
        <ele>861.96</ele>
        <time>2011-09-25T12:08:10Z</time>
      </trkpt>
      <trkpt lat="45.47842" lon="6.17794">
        <ele>861.48</ele>
        <time>2011-09-25T12:08:15Z</time>
      </trkpt>
      <trkpt lat="45.47838" lon="6.17799">
        <ele>861.48</ele>
        <time>2011-09-25T12:08:16Z</time>
      </trkpt>
      <trkpt lat="45.47817" lon="6.17825">
        <ele>860.04</ele>
        <time>2011-09-25T12:08:21Z</time>
      </trkpt>
      <trkpt lat="45.47814" lon="6.17833">
        <ele>859.56</ele>
        <time>2011-09-25T12:08:22Z</time>
      </trkpt>
      <trkpt lat="45.47812" lon="6.17841">
        <ele>859.56</ele>
        <time>2011-09-25T12:08:23Z</time>
      </trkpt>
      <trkpt lat="45.47812" lon="6.17851">
        <ele>858.59</ele>
        <time>2011-09-25T12:08:24Z</time>
      </trkpt>
      <trkpt lat="45.47812" lon="6.17861">
        <ele>858.59</ele>
        <time>2011-09-25T12:08:25Z</time>
      </trkpt>
      <trkpt lat="45.47812" lon="6.17882">
        <ele>857.63</ele>
        <time>2011-09-25T12:08:27Z</time>
      </trkpt>
      <trkpt lat="45.47813" lon="6.17892">
        <ele>856.67</ele>
        <time>2011-09-25T12:08:28Z</time>
      </trkpt>
      <trkpt lat="45.47816" lon="6.17903">
        <ele>856.19</ele>
        <time>2011-09-25T12:08:29Z</time>
      </trkpt>
      <trkpt lat="45.4782" lon="6.17914">
        <ele>855.71</ele>
        <time>2011-09-25T12:08:30Z</time>
      </trkpt>
      <trkpt lat="45.47826" lon="6.17926">
        <ele>855.23</ele>
        <time>2011-09-25T12:08:31Z</time>
      </trkpt>
      <trkpt lat="45.47856" lon="6.17988">
        <ele>851.87</ele>
        <time>2011-09-25T12:08:36Z</time>
      </trkpt>
      <trkpt lat="45.47868" lon="6.18024">
        <ele>848.02</ele>
        <time>2011-09-25T12:08:39Z</time>
      </trkpt>
      <trkpt lat="45.47882" lon="6.18067">
        <ele>844.18</ele>
        <time>2011-09-25T12:08:42Z</time>
      </trkpt>
      <trkpt lat="45.47885" lon="6.18079">
        <ele>843.69</ele>
        <time>2011-09-25T12:08:43Z</time>
      </trkpt>
      <trkpt lat="45.4789" lon="6.18108">
        <ele>840.81</ele>
        <time>2011-09-25T12:08:45Z</time>
      </trkpt>
      <trkpt lat="45.47891" lon="6.18115">
        <ele>839.85</ele>
        <time>2011-09-25T12:08:46Z</time>
      </trkpt>
      <trkpt lat="45.47892" lon="6.18125">
        <ele>839.37</ele>
        <time>2011-09-25T12:08:47Z</time>
      </trkpt>
      <trkpt lat="45.47892" lon="6.18141">
        <ele>838.41</ele>
        <time>2011-09-25T12:08:49Z</time>
      </trkpt>
      <trkpt lat="45.47893" lon="6.18147">
        <ele>836.96</ele>
        <time>2011-09-25T12:08:50Z</time>
      </trkpt>
      <trkpt lat="45.47892" lon="6.18192">
        <ele>834.56</ele>
        <time>2011-09-25T12:09:00Z</time>
      </trkpt>
      <trkpt lat="45.47892" lon="6.18195">
        <ele>834.56</ele>
        <time>2011-09-25T12:09:11Z</time>
      </trkpt>
      <trkpt lat="45.47893" lon="6.18199">
        <ele>834.56</ele>
        <time>2011-09-25T12:09:31Z</time>
      </trkpt>
      <trkpt lat="45.47893" lon="6.18203">
        <ele>835.04</ele>
        <time>2011-09-25T12:09:32Z</time>
      </trkpt>
      <trkpt lat="45.47893" lon="6.18209">
        <ele>834.56</ele>
        <time>2011-09-25T12:09:33Z</time>
      </trkpt>
      <trkpt lat="45.47893" lon="6.18216">
        <ele>834.56</ele>
        <time>2011-09-25T12:09:34Z</time>
      </trkpt>
      <trkpt lat="45.47892" lon="6.18223">
        <ele>834.56</ele>
        <time>2011-09-25T12:09:35Z</time>
      </trkpt>
      <trkpt lat="45.479" lon="6.18303">
        <ele>833.12</ele>
        <time>2011-09-25T12:09:44Z</time>
      </trkpt>
      <trkpt lat="45.479" lon="6.18312">
        <ele>832.64</ele>
        <time>2011-09-25T12:09:45Z</time>
      </trkpt>
      <trkpt lat="45.47898" lon="6.1832">
        <ele>833.6</ele>
        <time>2011-09-25T12:09:46Z</time>
      </trkpt>
      <trkpt lat="45.47896" lon="6.18328">
        <ele>834.08</ele>
        <time>2011-09-25T12:09:47Z</time>
      </trkpt>
      <trkpt lat="45.47893" lon="6.18335">
        <ele>834.08</ele>
        <time>2011-09-25T12:09:48Z</time>
      </trkpt>
      <trkpt lat="45.47889" lon="6.18342">
        <ele>834.08</ele>
        <time>2011-09-25T12:09:49Z</time>
      </trkpt>
      <trkpt lat="45.47885" lon="6.18348">
        <ele>834.56</ele>
        <time>2011-09-25T12:09:50Z</time>
      </trkpt>
      <trkpt lat="45.47881" lon="6.18353">
        <ele>834.56</ele>
        <time>2011-09-25T12:09:51Z</time>
      </trkpt>
      <trkpt lat="45.47875" lon="6.18358">
        <ele>833.12</ele>
        <time>2011-09-25T12:09:52Z</time>
      </trkpt>
      <trkpt lat="45.47871" lon="6.18359">
        <ele>832.64</ele>
        <time>2011-09-25T12:09:53Z</time>
      </trkpt>
      <trkpt lat="45.47869" lon="6.18359">
        <ele>832.64</ele>
        <time>2011-09-25T12:09:54Z</time>
      </trkpt>
      <trkpt lat="45.47865" lon="6.18361">
        <ele>832.64</ele>
        <time>2011-09-25T12:09:55Z</time>
      </trkpt>
      <trkpt lat="45.47863" lon="6.1836">
        <ele>832.64</ele>
        <time>2011-09-25T12:09:56Z</time>
      </trkpt>
      <trkpt lat="45.47858" lon="6.18358">
        <ele>832.64</ele>
        <time>2011-09-25T12:10:07Z</time>
      </trkpt>
      <trkpt lat="45.47857" lon="6.18358">
        <ele>832.64</ele>
        <time>2011-09-25T12:10:14Z</time>
      </trkpt>
      <trkpt lat="45.47856" lon="6.18356">
        <ele>832.64</ele>
        <time>2011-09-25T12:10:15Z</time>
      </trkpt>
      <trkpt lat="45.47854" lon="6.18354">
        <ele>832.64</ele>
        <time>2011-09-25T12:10:16Z</time>
      </trkpt>
      <trkpt lat="45.47851" lon="6.18353">
        <ele>832.64</ele>
        <time>2011-09-25T12:10:17Z</time>
      </trkpt>
      <trkpt lat="45.47847" lon="6.18351">
        <ele>832.16</ele>
        <time>2011-09-25T12:10:18Z</time>
      </trkpt>
      <trkpt lat="45.47804" lon="6.18336">
        <ele>830.24</ele>
        <time>2011-09-25T12:10:28Z</time>
      </trkpt>
      <trkpt lat="45.47798" lon="6.18335">
        <ele>830.24</ele>
        <time>2011-09-25T12:10:29Z</time>
      </trkpt>
      <trkpt lat="45.47793" lon="6.18335">
        <ele>829.27</ele>
        <time>2011-09-25T12:10:30Z</time>
      </trkpt>
      <trkpt lat="45.47788" lon="6.18337">
        <ele>828.79</ele>
        <time>2011-09-25T12:10:31Z</time>
      </trkpt>
      <trkpt lat="45.47783" lon="6.18341">
        <ele>827.83</ele>
        <time>2011-09-25T12:10:32Z</time>
      </trkpt>
      <trkpt lat="45.4778" lon="6.18345">
        <ele>826.87</ele>
        <time>2011-09-25T12:10:33Z</time>
      </trkpt>
      <trkpt lat="45.47778" lon="6.1835">
        <ele>827.35</ele>
        <time>2011-09-25T12:10:34Z</time>
      </trkpt>
      <trkpt lat="45.47773" lon="6.18358">
        <ele>825.91</ele>
        <time>2011-09-25T12:10:37Z</time>
      </trkpt>
      <trkpt lat="45.4777" lon="6.18359">
        <ele>825.43</ele>
        <time>2011-09-25T12:10:38Z</time>
      </trkpt>
      <trkpt lat="45.47768" lon="6.18358">
        <ele>824.95</ele>
        <time>2011-09-25T12:10:39Z</time>
      </trkpt>
      <trkpt lat="45.47765" lon="6.18355">
        <ele>824.95</ele>
        <time>2011-09-25T12:10:40Z</time>
      </trkpt>
      <trkpt lat="45.47764" lon="6.1835">
        <ele>824.95</ele>
        <time>2011-09-25T12:10:41Z</time>
      </trkpt>
      <trkpt lat="45.47764" lon="6.18342">
        <ele>824.47</ele>
        <time>2011-09-25T12:10:42Z</time>
      </trkpt>
      <trkpt lat="45.47766" lon="6.18333">
        <ele>823.99</ele>
        <time>2011-09-25T12:10:43Z</time>
      </trkpt>
      <trkpt lat="45.47768" lon="6.18323">
        <ele>823.99</ele>
        <time>2011-09-25T12:10:44Z</time>
      </trkpt>
      <trkpt lat="45.47771" lon="6.18314">
        <ele>823.51</ele>
        <time>2011-09-25T12:10:45Z</time>
      </trkpt>
      <trkpt lat="45.4778" lon="6.18286">
        <ele>822.06</ele>
        <time>2011-09-25T12:10:48Z</time>
      </trkpt>
      <trkpt lat="45.47784" lon="6.18278">
        <ele>821.58</ele>
        <time>2011-09-25T12:10:49Z</time>
      </trkpt>
      <trkpt lat="45.4779" lon="6.18274">
        <ele>819.66</ele>
        <time>2011-09-25T12:10:50Z</time>
      </trkpt>
      <trkpt lat="45.47796" lon="6.18272">
        <ele>819.66</ele>
        <time>2011-09-25T12:10:51Z</time>
      </trkpt>
      <trkpt lat="45.47801" lon="6.18268">
        <ele>819.18</ele>
        <time>2011-09-25T12:10:52Z</time>
      </trkpt>
      <trkpt lat="45.47804" lon="6.18263">
        <ele>818.7</ele>
        <time>2011-09-25T12:10:53Z</time>
      </trkpt>
      <trkpt lat="45.47806" lon="6.18257">
        <ele>818.22</ele>
        <time>2011-09-25T12:10:54Z</time>
      </trkpt>
      <trkpt lat="45.47804" lon="6.18253">
        <ele>818.22</ele>
        <time>2011-09-25T12:10:55Z</time>
      </trkpt>
      <trkpt lat="45.47801" lon="6.18249">
        <ele>817.74</ele>
        <time>2011-09-25T12:10:56Z</time>
      </trkpt>
      <trkpt lat="45.47796" lon="6.18248">
        <ele>817.26</ele>
        <time>2011-09-25T12:10:57Z</time>
      </trkpt>
      <trkpt lat="45.47791" lon="6.18247">
        <ele>817.26</ele>
        <time>2011-09-25T12:10:58Z</time>
      </trkpt>
      <trkpt lat="45.47767" lon="6.18242">
        <ele>815.34</ele>
        <time>2011-09-25T12:11:02Z</time>
      </trkpt>
      <trkpt lat="45.47763" lon="6.18242">
        <ele>814.37</ele>
        <time>2011-09-25T12:11:03Z</time>
      </trkpt>
      <trkpt lat="45.4776" lon="6.18243">
        <ele>813.89</ele>
        <time>2011-09-25T12:11:04Z</time>
      </trkpt>
      <trkpt lat="45.47755" lon="6.18244">
        <ele>812.45</ele>
        <time>2011-09-25T12:11:15Z</time>
      </trkpt>
      <trkpt lat="45.47754" lon="6.18247">
        <ele>812.93</ele>
        <time>2011-09-25T12:11:29Z</time>
      </trkpt>
      <trkpt lat="45.47749" lon="6.18267">
        <ele>811.97</ele>
        <time>2011-09-25T12:11:34Z</time>
      </trkpt>
      <trkpt lat="45.47745" lon="6.18298">
        <ele>810.05</ele>
        <time>2011-09-25T12:11:38Z</time>
      </trkpt>
      <trkpt lat="45.47744" lon="6.18306">
        <ele>810.05</ele>
        <time>2011-09-25T12:11:39Z</time>
      </trkpt>
      <trkpt lat="45.47742" lon="6.18316">
        <ele>808.61</ele>
        <time>2011-09-25T12:11:40Z</time>
      </trkpt>
      <trkpt lat="45.4774" lon="6.18326">
        <ele>808.61</ele>
        <time>2011-09-25T12:11:41Z</time>
      </trkpt>
      <trkpt lat="45.47739" lon="6.18335">
        <ele>807.64</ele>
        <time>2011-09-25T12:11:42Z</time>
      </trkpt>
      <trkpt lat="45.47738" lon="6.18345">
        <ele>806.68</ele>
        <time>2011-09-25T12:11:43Z</time>
      </trkpt>
      <trkpt lat="45.47738" lon="6.18356">
        <ele>806.2</ele>
        <time>2011-09-25T12:11:44Z</time>
      </trkpt>
      <trkpt lat="45.47738" lon="6.1842">
        <ele>803.32</ele>
        <time>2011-09-25T12:11:49Z</time>
      </trkpt>
      <trkpt lat="45.47735" lon="6.1845">
        <ele>800.92</ele>
        <time>2011-09-25T12:11:51Z</time>
      </trkpt>
      <trkpt lat="45.4772" lon="6.18521">
        <ele>797.07</ele>
        <time>2011-09-25T12:11:56Z</time>
      </trkpt>
      <trkpt lat="45.47712" lon="6.18559">
        <ele>795.15</ele>
        <time>2011-09-25T12:11:59Z</time>
      </trkpt>
      <trkpt lat="45.47706" lon="6.18594">
        <ele>792.74</ele>
        <time>2011-09-25T12:12:02Z</time>
      </trkpt>
      <trkpt lat="45.47706" lon="6.18616">
        <ele>790.34</ele>
        <time>2011-09-25T12:12:04Z</time>
      </trkpt>
      <trkpt lat="45.47707" lon="6.18626">
        <ele>789.38</ele>
        <time>2011-09-25T12:12:05Z</time>
      </trkpt>
      <trkpt lat="45.47708" lon="6.18636">
        <ele>788.9</ele>
        <time>2011-09-25T12:12:06Z</time>
      </trkpt>
      <trkpt lat="45.47717" lon="6.18678">
        <ele>786.5</ele>
        <time>2011-09-25T12:12:10Z</time>
      </trkpt>
      <trkpt lat="45.47725" lon="6.18733">
        <ele>783.13</ele>
        <time>2011-09-25T12:12:16Z</time>
      </trkpt>
      <trkpt lat="45.47734" lon="6.18783">
        <ele>780.73</ele>
        <time>2011-09-25T12:12:21Z</time>
      </trkpt>
      <trkpt lat="45.47751" lon="6.18829">
        <ele>777.84</ele>
        <time>2011-09-25T12:12:25Z</time>
      </trkpt>
      <trkpt lat="45.47753" lon="6.18839">
        <ele>777.36</ele>
        <time>2011-09-25T12:12:26Z</time>
      </trkpt>
      <trkpt lat="45.47756" lon="6.18848">
        <ele>776.4</ele>
        <time>2011-09-25T12:12:27Z</time>
      </trkpt>
      <trkpt lat="45.47755" lon="6.18856">
        <ele>774.96</ele>
        <time>2011-09-25T12:12:28Z</time>
      </trkpt>
      <trkpt lat="45.47754" lon="6.1886">
        <ele>775.44</ele>
        <time>2011-09-25T12:12:29Z</time>
      </trkpt>
      <trkpt lat="45.47754" lon="6.18869">
        <ele>774.48</ele>
        <time>2011-09-25T12:12:38Z</time>
      </trkpt>
      <trkpt lat="45.47755" lon="6.18868">
        <ele>774.48</ele>
        <time>2011-09-25T12:12:47Z</time>
      </trkpt>
      <trkpt lat="45.47755" lon="6.18868">
        <ele>774.96</ele>
        <time>2011-09-25T12:13:26Z</time>
      </trkpt>
      <trkpt lat="45.47756" lon="6.18868">
        <ele>775.44</ele>
        <time>2011-09-25T12:13:27Z</time>
      </trkpt>
      <trkpt lat="45.47756" lon="6.18868">
        <ele>775.44</ele>
        <time>2011-09-25T12:13:33Z</time>
      </trkpt>
      <trkpt lat="45.47755" lon="6.18868">
        <ele>775.92</ele>
        <time>2011-09-25T12:13:34Z</time>
      </trkpt>
      <trkpt lat="45.47753" lon="6.18869">
        <ele>776.4</ele>
        <time>2011-09-25T12:13:35Z</time>
      </trkpt>
      <trkpt lat="45.47751" lon="6.18868">
        <ele>776.4</ele>
        <time>2011-09-25T12:13:36Z</time>
      </trkpt>
      <trkpt lat="45.47749" lon="6.18868">
        <ele>776.4</ele>
        <time>2011-09-25T12:13:37Z</time>
      </trkpt>
      <trkpt lat="45.47746" lon="6.18866">
        <ele>776.4</ele>
        <time>2011-09-25T12:13:38Z</time>
      </trkpt>
      <trkpt lat="45.47744" lon="6.18863">
        <ele>776.4</ele>
        <time>2011-09-25T12:13:39Z</time>
      </trkpt>
      <trkpt lat="45.47742" lon="6.1886">
        <ele>776.4</ele>
        <time>2011-09-25T12:13:40Z</time>
      </trkpt>
      <trkpt lat="45.47739" lon="6.18858">
        <ele>776.4</ele>
        <time>2011-09-25T12:13:41Z</time>
      </trkpt>
      <trkpt lat="45.47736" lon="6.18855">
        <ele>776.88</ele>
        <time>2011-09-25T12:13:42Z</time>
      </trkpt>
      <trkpt lat="45.47699" lon="6.18827">
        <ele>778.81</ele>
        <time>2011-09-25T12:13:54Z</time>
      </trkpt>
      <trkpt lat="45.47664" lon="6.18802">
        <ele>782.17</ele>
        <time>2011-09-25T12:14:05Z</time>
      </trkpt>
      <trkpt lat="45.47627" lon="6.18786">
        <ele>784.09</ele>
        <time>2011-09-25T12:14:16Z</time>
      </trkpt>
      <trkpt lat="45.47597" lon="6.18751">
        <ele>786.5</ele>
        <time>2011-09-25T12:14:27Z</time>
      </trkpt>
      <trkpt lat="45.47554" lon="6.18709">
        <ele>789.86</ele>
        <time>2011-09-25T12:14:41Z</time>
      </trkpt>
      <trkpt lat="45.47525" lon="6.18675">
        <ele>792.74</ele>
        <time>2011-09-25T12:14:55Z</time>
      </trkpt>
      <trkpt lat="45.47522" lon="6.18626">
        <ele>795.63</ele>
        <time>2011-09-25T12:15:07Z</time>
      </trkpt>
      <trkpt lat="45.47514" lon="6.18578">
        <ele>798.03</ele>
        <time>2011-09-25T12:15:20Z</time>
      </trkpt>
      <trkpt lat="45.47509" lon="6.18509">
        <ele>801.4</ele>
        <time>2011-09-25T12:15:34Z</time>
      </trkpt>
      <trkpt lat="45.47485" lon="6.18483">
        <ele>803.8</ele>
        <time>2011-09-25T12:15:46Z</time>
      </trkpt>
      <trkpt lat="45.47443" lon="6.18478">
        <ele>806.2</ele>
        <time>2011-09-25T12:16:01Z</time>
      </trkpt>
      <trkpt lat="45.47415" lon="6.18454">
        <ele>808.61</ele>
        <time>2011-09-25T12:16:15Z</time>
      </trkpt>
      <trkpt lat="45.47415" lon="6.18469">
        <ele>809.09</ele>
        <time>2011-09-25T12:16:20Z</time>
      </trkpt>
      <trkpt lat="45.47416" lon="6.18472">
        <ele>809.09</ele>
        <time>2011-09-25T12:16:21Z</time>
      </trkpt>
      <trkpt lat="45.47416" lon="6.18475">
        <ele>809.09</ele>
        <time>2011-09-25T12:16:22Z</time>
      </trkpt>
      <trkpt lat="45.47417" lon="6.18477">
        <ele>809.09</ele>
        <time>2011-09-25T12:16:23Z</time>
      </trkpt>
      <trkpt lat="45.4742" lon="6.1848">
        <ele>809.09</ele>
        <time>2011-09-25T12:16:24Z</time>
      </trkpt>
      <trkpt lat="45.47425" lon="6.18484">
        <ele>809.57</ele>
        <time>2011-09-25T12:16:25Z</time>
      </trkpt>
      <trkpt lat="45.47428" lon="6.18488">
        <ele>809.09</ele>
        <time>2011-09-25T12:16:26Z</time>
      </trkpt>
      <trkpt lat="45.47464" lon="6.18531">
        <ele>810.05</ele>
        <time>2011-09-25T12:16:40Z</time>
      </trkpt>
      <trkpt lat="45.47487" lon="6.18565">
        <ele>810.53</ele>
        <time>2011-09-25T12:16:49Z</time>
      </trkpt>
      <trkpt lat="45.47489" lon="6.18571">
        <ele>810.05</ele>
        <time>2011-09-25T12:16:50Z</time>
      </trkpt>
      <trkpt lat="45.47506" lon="6.18676">
        <ele>811.97</ele>
        <time>2011-09-25T12:17:07Z</time>
      </trkpt>
      <trkpt lat="45.47497" lon="6.18733">
        <ele>812.45</ele>
        <time>2011-09-25T12:17:15Z</time>
      </trkpt>
      <trkpt lat="45.475" lon="6.18738">
        <ele>812.45</ele>
        <time>2011-09-25T12:17:16Z</time>
      </trkpt>
      <trkpt lat="45.47502" lon="6.18743">
        <ele>812.93</ele>
        <time>2011-09-25T12:17:17Z</time>
      </trkpt>
      <trkpt lat="45.47505" lon="6.18745">
        <ele>812.93</ele>
        <time>2011-09-25T12:17:18Z</time>
      </trkpt>
      <trkpt lat="45.47508" lon="6.18748">
        <ele>812.93</ele>
        <time>2011-09-25T12:17:19Z</time>
      </trkpt>
      <trkpt lat="45.47556" lon="6.18792">
        <ele>814.37</ele>
        <time>2011-09-25T12:17:33Z</time>
      </trkpt>
      <trkpt lat="45.47615" lon="6.18878">
        <ele>815.34</ele>
        <time>2011-09-25T12:17:47Z</time>
      </trkpt>
      <trkpt lat="45.47619" lon="6.18885">
        <ele>815.34</ele>
        <time>2011-09-25T12:17:48Z</time>
      </trkpt>
      <trkpt lat="45.47624" lon="6.18899">
        <ele>815.82</ele>
        <time>2011-09-25T12:17:50Z</time>
      </trkpt>
      <trkpt lat="45.47626" lon="6.18906">
        <ele>815.82</ele>
        <time>2011-09-25T12:17:51Z</time>
      </trkpt>
      <trkpt lat="45.47632" lon="6.18954">
        <ele>815.82</ele>
        <time>2011-09-25T12:18:01Z</time>
      </trkpt>
      <trkpt lat="45.47633" lon="6.18973">
        <ele>815.34</ele>
        <time>2011-09-25T12:18:15Z</time>
      </trkpt>
      <trkpt lat="45.47634" lon="6.18975">
        <ele>815.82</ele>
        <time>2011-09-25T12:18:30Z</time>
      </trkpt>
      <trkpt lat="45.47635" lon="6.18978">
        <ele>816.3</ele>
        <time>2011-09-25T12:18:31Z</time>
      </trkpt>
      <trkpt lat="45.47621" lon="6.19029">
        <ele>816.78</ele>
        <time>2011-09-25T12:18:41Z</time>
      </trkpt>
      <trkpt lat="45.47617" lon="6.19034">
        <ele>816.78</ele>
        <time>2011-09-25T12:18:42Z</time>
      </trkpt>
      <trkpt lat="45.47613" lon="6.19039">
        <ele>817.26</ele>
        <time>2011-09-25T12:18:43Z</time>
      </trkpt>
      <trkpt lat="45.47605" lon="6.19049">
        <ele>816.78</ele>
        <time>2011-09-25T12:18:45Z</time>
      </trkpt>
      <trkpt lat="45.47602" lon="6.19054">
        <ele>816.78</ele>
        <time>2011-09-25T12:18:46Z</time>
      </trkpt>
      <trkpt lat="45.47599" lon="6.19059">
        <ele>816.78</ele>
        <time>2011-09-25T12:18:47Z</time>
      </trkpt>
      <trkpt lat="45.47597" lon="6.19064">
        <ele>816.78</ele>
        <time>2011-09-25T12:18:48Z</time>
      </trkpt>
      <trkpt lat="45.47595" lon="6.19069">
        <ele>816.78</ele>
        <time>2011-09-25T12:18:49Z</time>
      </trkpt>
      <trkpt lat="45.47593" lon="6.19074">
        <ele>816.78</ele>
        <time>2011-09-25T12:18:50Z</time>
      </trkpt>
      <trkpt lat="45.47589" lon="6.19081">
        <ele>816.3</ele>
        <time>2011-09-25T12:18:53Z</time>
      </trkpt>
      <trkpt lat="45.47588" lon="6.19087">
        <ele>816.78</ele>
        <time>2011-09-25T12:19:12Z</time>
      </trkpt>
      <trkpt lat="45.47586" lon="6.19093">
        <ele>817.26</ele>
        <time>2011-09-25T12:19:14Z</time>
      </trkpt>
      <trkpt lat="45.4757" lon="6.1913">
        <ele>819.66</ele>
        <time>2011-09-25T12:19:27Z</time>
      </trkpt>
      <trkpt lat="45.47561" lon="6.19157">
        <ele>823.03</ele>
        <time>2011-09-25T12:19:36Z</time>
      </trkpt>
      <trkpt lat="45.47548" lon="6.19175">
        <ele>825.91</ele>
        <time>2011-09-25T12:19:43Z</time>
      </trkpt>
      <trkpt lat="45.47537" lon="6.19194">
        <ele>825.91</ele>
        <time>2011-09-25T12:19:58Z</time>
      </trkpt>
      <trkpt lat="45.47539" lon="6.19193">
        <ele>826.39</ele>
        <time>2011-09-25T12:19:59Z</time>
      </trkpt>
      <trkpt lat="45.47552" lon="6.19178">
        <ele>827.35</ele>
        <time>2011-09-25T12:20:07Z</time>
      </trkpt>
      <trkpt lat="45.47591" lon="6.19137">
        <ele>828.31</ele>
        <time>2011-09-25T12:20:21Z</time>
      </trkpt>
      <trkpt lat="45.47635" lon="6.19142">
        <ele>828.79</ele>
        <time>2011-09-25T12:20:33Z</time>
      </trkpt>
      <trkpt lat="45.47633" lon="6.19144">
        <ele>829.27</ele>
        <time>2011-09-25T12:20:44Z</time>
      </trkpt>
      <trkpt lat="45.47642" lon="6.19158">
        <ele>832.16</ele>
        <time>2011-09-25T12:20:55Z</time>
      </trkpt>
      <trkpt lat="45.47644" lon="6.19175">
        <ele>835.52</ele>
        <time>2011-09-25T12:21:06Z</time>
      </trkpt>
      <trkpt lat="45.47641" lon="6.19184">
        <ele>836.96</ele>
        <time>2011-09-25T12:21:13Z</time>
      </trkpt>
      <trkpt lat="45.4764" lon="6.19197">
        <ele>839.85</ele>
        <time>2011-09-25T12:21:25Z</time>
      </trkpt>
      <trkpt lat="45.47635" lon="6.19214">
        <ele>843.21</ele>
        <time>2011-09-25T12:21:40Z</time>
      </trkpt>
      <trkpt lat="45.47635" lon="6.19223">
        <ele>844.18</ele>
        <time>2011-09-25T12:21:51Z</time>
      </trkpt>
      <trkpt lat="45.47633" lon="6.19231">
        <ele>845.62</ele>
        <time>2011-09-25T12:21:56Z</time>
      </trkpt>
      <trkpt lat="45.47632" lon="6.19235">
        <ele>848.98</ele>
        <time>2011-09-25T12:22:10Z</time>
      </trkpt>
      <trkpt lat="45.47632" lon="6.1924">
        <ele>851.38</ele>
        <time>2011-09-25T12:22:22Z</time>
      </trkpt>
      <trkpt lat="45.47624" lon="6.1926">
        <ele>853.79</ele>
        <time>2011-09-25T12:22:36Z</time>
      </trkpt>
      <trkpt lat="45.47615" lon="6.19274">
        <ele>856.19</ele>
        <time>2011-09-25T12:22:45Z</time>
      </trkpt>
      <trkpt lat="45.47607" lon="6.19287">
        <ele>859.56</ele>
        <time>2011-09-25T12:22:58Z</time>
      </trkpt>
      <trkpt lat="45.47607" lon="6.19288">
        <ele>859.56</ele>
        <time>2011-09-25T12:22:59Z</time>
      </trkpt>
      <trkpt lat="45.47598" lon="6.19301">
        <ele>863.4</ele>
        <time>2011-09-25T12:23:12Z</time>
      </trkpt>
      <trkpt lat="45.47594" lon="6.19308">
        <ele>866.77</ele>
        <time>2011-09-25T12:23:29Z</time>
      </trkpt>
      <trkpt lat="45.4759" lon="6.19332">
        <ele>869.65</ele>
        <time>2011-09-25T12:23:46Z</time>
      </trkpt>
      <trkpt lat="45.4759" lon="6.19351">
        <ele>873.5</ele>
        <time>2011-09-25T12:24:02Z</time>
      </trkpt>
      <trkpt lat="45.47589" lon="6.19357">
        <ele>873.98</ele>
        <time>2011-09-25T12:24:21Z</time>
      </trkpt>
      <trkpt lat="45.47586" lon="6.19362">
        <ele>876.38</ele>
        <time>2011-09-25T12:24:48Z</time>
      </trkpt>
      <trkpt lat="45.47577" lon="6.1938">
        <ele>880.71</ele>
        <time>2011-09-25T12:25:03Z</time>
      </trkpt>
      <trkpt lat="45.4757" lon="6.19391">
        <ele>882.63</ele>
        <time>2011-09-25T12:25:14Z</time>
      </trkpt>
      <trkpt lat="45.4756" lon="6.19409">
        <ele>886.47</ele>
        <time>2011-09-25T12:25:31Z</time>
      </trkpt>
      <trkpt lat="45.47559" lon="6.19412">
        <ele>886.47</ele>
        <time>2011-09-25T12:25:34Z</time>
      </trkpt>
      <trkpt lat="45.47557" lon="6.19432">
        <ele>889.84</ele>
        <time>2011-09-25T12:25:51Z</time>
      </trkpt>
      <trkpt lat="45.47558" lon="6.19435">
        <ele>890.32</ele>
        <time>2011-09-25T12:25:54Z</time>
      </trkpt>
      <trkpt lat="45.47555" lon="6.19454">
        <ele>893.2</ele>
        <time>2011-09-25T12:26:13Z</time>
      </trkpt>
      <trkpt lat="45.47554" lon="6.19478">
        <ele>896.57</ele>
        <time>2011-09-25T12:26:29Z</time>
      </trkpt>
      <trkpt lat="45.47553" lon="6.19489">
        <ele>898.49</ele>
        <time>2011-09-25T12:26:44Z</time>
      </trkpt>
      <trkpt lat="45.47551" lon="6.19492">
        <ele>901.37</ele>
        <time>2011-09-25T12:27:04Z</time>
      </trkpt>
      <trkpt lat="45.4755" lon="6.19495">
        <ele>902.33</ele>
        <time>2011-09-25T12:27:08Z</time>
      </trkpt>
      <trkpt lat="45.47549" lon="6.19499">
        <ele>902.33</ele>
        <time>2011-09-25T12:27:10Z</time>
      </trkpt>
      <trkpt lat="45.47543" lon="6.19516">
        <ele>906.18</ele>
        <time>2011-09-25T12:27:24Z</time>
      </trkpt>
      <trkpt lat="45.47538" lon="6.19528">
        <ele>909.06</ele>
        <time>2011-09-25T12:27:38Z</time>
      </trkpt>
      <trkpt lat="45.47537" lon="6.19537">
        <ele>912.43</ele>
        <time>2011-09-25T12:27:52Z</time>
      </trkpt>
      <trkpt lat="45.47534" lon="6.19545">
        <ele>913.87</ele>
        <time>2011-09-25T12:27:58Z</time>
      </trkpt>
      <trkpt lat="45.47531" lon="6.19557">
        <ele>916.75</ele>
        <time>2011-09-25T12:28:14Z</time>
      </trkpt>
      <trkpt lat="45.47529" lon="6.19561">
        <ele>920.12</ele>
        <time>2011-09-25T12:28:28Z</time>
      </trkpt>
      <trkpt lat="45.47528" lon="6.19574">
        <ele>922.52</ele>
        <time>2011-09-25T12:28:42Z</time>
      </trkpt>
      <trkpt lat="45.47526" lon="6.19587">
        <ele>926.85</ele>
        <time>2011-09-25T12:29:00Z</time>
      </trkpt>
      <trkpt lat="45.47525" lon="6.19588">
        <ele>928.77</ele>
        <time>2011-09-25T12:29:09Z</time>
      </trkpt>
      <trkpt lat="45.4752" lon="6.19604">
        <ele>930.21</ele>
        <time>2011-09-25T12:29:23Z</time>
      </trkpt>
      <trkpt lat="45.47517" lon="6.19613">
        <ele>931.65</ele>
        <time>2011-09-25T12:29:28Z</time>
      </trkpt>
      <trkpt lat="45.47516" lon="6.19628">
        <ele>933.58</ele>
        <time>2011-09-25T12:29:39Z</time>
      </trkpt>
      <trkpt lat="45.47514" lon="6.19637">
        <ele>935.02</ele>
        <time>2011-09-25T12:29:58Z</time>
      </trkpt>
      <trkpt lat="45.47513" lon="6.19637">
        <ele>935.02</ele>
        <time>2011-09-25T12:30:33Z</time>
      </trkpt>
      <trkpt lat="45.47513" lon="6.19638">
        <ele>935.98</ele>
        <time>2011-09-25T12:31:04Z</time>
      </trkpt>
      <trkpt lat="45.47511" lon="6.19656">
        <ele>939.35</ele>
        <time>2011-09-25T12:31:18Z</time>
      </trkpt>
      <trkpt lat="45.47501" lon="6.19675">
        <ele>942.23</ele>
        <time>2011-09-25T12:31:32Z</time>
      </trkpt>
      <trkpt lat="45.47494" lon="6.19687">
        <ele>945.59</ele>
        <time>2011-09-25T12:31:45Z</time>
      </trkpt>
      <trkpt lat="45.47485" lon="6.19699">
        <ele>948.96</ele>
        <time>2011-09-25T12:32:00Z</time>
      </trkpt>
      <trkpt lat="45.47479" lon="6.1971">
        <ele>951.36</ele>
        <time>2011-09-25T12:32:11Z</time>
      </trkpt>
      <trkpt lat="45.47477" lon="6.19716">
        <ele>952.8</ele>
        <time>2011-09-25T12:32:17Z</time>
      </trkpt>
      <trkpt lat="45.47474" lon="6.19717">
        <ele>952.8</ele>
        <time>2011-09-25T12:32:20Z</time>
      </trkpt>
      <trkpt lat="45.47463" lon="6.1972">
        <ele>956.65</ele>
        <time>2011-09-25T12:32:35Z</time>
      </trkpt>
      <trkpt lat="45.47459" lon="6.1972">
        <ele>957.13</ele>
        <time>2011-09-25T12:32:38Z</time>
      </trkpt>
      <trkpt lat="45.47451" lon="6.19714">
        <ele>958.09</ele>
        <time>2011-09-25T12:32:53Z</time>
      </trkpt>
      <trkpt lat="45.47449" lon="6.19711">
        <ele>958.57</ele>
        <time>2011-09-25T12:32:57Z</time>
      </trkpt>
      <trkpt lat="45.47415" lon="6.19695">
        <ele>955.21</ele>
        <time>2011-09-25T12:33:10Z</time>
      </trkpt>
      <trkpt lat="45.47356" lon="6.19696">
        <ele>955.69</ele>
        <time>2011-09-25T12:33:25Z</time>
      </trkpt>
      <trkpt lat="45.47348" lon="6.19694">
        <ele>956.17</ele>
        <time>2011-09-25T12:33:41Z</time>
      </trkpt>
      <trkpt lat="45.47348" lon="6.19694">
        <ele>956.65</ele>
        <time>2011-09-25T12:34:04Z</time>
      </trkpt>
      <trkpt lat="45.47348" lon="6.19694">
        <ele>956.17</ele>
        <time>2011-09-25T12:34:38Z</time>
      </trkpt>
      <trkpt lat="45.47348" lon="6.19694">
        <ele>956.17</ele>
        <time>2011-09-25T12:35:12Z</time>
      </trkpt>
      <trkpt lat="45.47348" lon="6.19694">
        <ele>956.17</ele>
        <time>2011-09-25T12:35:42Z</time>
      </trkpt>
      <trkpt lat="45.47336" lon="6.19704">
        <ele>959.53</ele>
        <time>2011-09-25T12:36:00Z</time>
      </trkpt>
      <trkpt lat="45.47328" lon="6.19717">
        <ele>962.9</ele>
        <time>2011-09-25T12:36:10Z</time>
      </trkpt>
      <trkpt lat="45.47327" lon="6.19718">
        <ele>962.9</ele>
        <time>2011-09-25T12:36:11Z</time>
      </trkpt>
      <trkpt lat="45.47326" lon="6.19719">
        <ele>963.86</ele>
        <time>2011-09-25T12:36:18Z</time>
      </trkpt>
      <trkpt lat="45.47319" lon="6.19732">
        <ele>966.26</ele>
        <time>2011-09-25T12:36:35Z</time>
      </trkpt>
      <trkpt lat="45.47318" lon="6.19744">
        <ele>968.18</ele>
        <time>2011-09-25T12:36:44Z</time>
      </trkpt>
      <trkpt lat="45.47309" lon="6.19757">
        <ele>970.11</ele>
        <time>2011-09-25T12:36:52Z</time>
      </trkpt>
      <trkpt lat="45.47298" lon="6.19776">
        <ele>973.95</ele>
        <time>2011-09-25T12:37:05Z</time>
      </trkpt>
      <trkpt lat="45.4729" lon="6.19792">
        <ele>976.84</ele>
        <time>2011-09-25T12:37:16Z</time>
      </trkpt>
      <trkpt lat="45.4729" lon="6.19794">
        <ele>976.84</ele>
        <time>2011-09-25T12:37:17Z</time>
      </trkpt>
      <trkpt lat="45.47289" lon="6.19796">
        <ele>977.8</ele>
        <time>2011-09-25T12:37:19Z</time>
      </trkpt>
      <trkpt lat="45.47286" lon="6.198">
        <ele>978.76</ele>
        <time>2011-09-25T12:37:23Z</time>
      </trkpt>
      <trkpt lat="45.47277" lon="6.19816">
        <ele>980.68</ele>
        <time>2011-09-25T12:37:39Z</time>
      </trkpt>
      <trkpt lat="45.47276" lon="6.19817">
        <ele>981.64</ele>
        <time>2011-09-25T12:37:41Z</time>
      </trkpt>
      <trkpt lat="45.47268" lon="6.19826">
        <ele>984.53</ele>
        <time>2011-09-25T12:37:57Z</time>
      </trkpt>
      <trkpt lat="45.47262" lon="6.19838">
        <ele>987.89</ele>
        <time>2011-09-25T12:38:14Z</time>
      </trkpt>
      <trkpt lat="45.47255" lon="6.19848">
        <ele>990.3</ele>
        <time>2011-09-25T12:38:32Z</time>
      </trkpt>
      <trkpt lat="45.47255" lon="6.19859">
        <ele>991.26</ele>
        <time>2011-09-25T12:38:53Z</time>
      </trkpt>
      <trkpt lat="45.47255" lon="6.1986">
        <ele>991.26</ele>
        <time>2011-09-25T12:38:54Z</time>
      </trkpt>
      <trkpt lat="45.47258" lon="6.19875">
        <ele>994.62</ele>
        <time>2011-09-25T12:39:09Z</time>
      </trkpt>
      <trkpt lat="45.47258" lon="6.19892">
        <ele>997.51</ele>
        <time>2011-09-25T12:39:24Z</time>
      </trkpt>
      <trkpt lat="45.47261" lon="6.199">
        <ele>998.95</ele>
        <time>2011-09-25T12:39:31Z</time>
      </trkpt>
      <trkpt lat="45.4726" lon="6.19917">
        <ele>1002.79</ele>
        <time>2011-09-25T12:39:45Z</time>
      </trkpt>
      <trkpt lat="45.47258" lon="6.19929">
        <ele>1004.72</ele>
        <time>2011-09-25T12:40:04Z</time>
      </trkpt>
      <trkpt lat="45.47257" lon="6.19932">
        <ele>1005.2</ele>
        <time>2011-09-25T12:40:13Z</time>
      </trkpt>
      <trkpt lat="45.47255" lon="6.19937">
        <ele>1005.68</ele>
        <time>2011-09-25T12:40:16Z</time>
      </trkpt>
      <trkpt lat="45.47249" lon="6.19954">
        <ele>1009.04</ele>
        <time>2011-09-25T12:40:28Z</time>
      </trkpt>
      <trkpt lat="45.47245" lon="6.19973">
        <ele>1011.93</ele>
        <time>2011-09-25T12:40:46Z</time>
      </trkpt>
      <trkpt lat="45.47245" lon="6.19988">
        <ele>1014.81</ele>
        <time>2011-09-25T12:41:00Z</time>
      </trkpt>
      <trkpt lat="45.47243" lon="6.19998">
        <ele>1017.21</ele>
        <time>2011-09-25T12:41:18Z</time>
      </trkpt>
      <trkpt lat="45.47232" lon="6.20011">
        <ele>1020.58</ele>
        <time>2011-09-25T12:41:33Z</time>
      </trkpt>
      <trkpt lat="45.47223" lon="6.20022">
        <ele>1023.94</ele>
        <time>2011-09-25T12:41:48Z</time>
      </trkpt>
      <trkpt lat="45.47212" lon="6.20034">
        <ele>1025.86</ele>
        <time>2011-09-25T12:42:04Z</time>
      </trkpt>
      <trkpt lat="45.47203" lon="6.20046">
        <ele>1028.27</ele>
        <time>2011-09-25T12:42:19Z</time>
      </trkpt>
      <trkpt lat="45.47194" lon="6.20054">
        <ele>1031.63</ele>
        <time>2011-09-25T12:42:35Z</time>
      </trkpt>
      <trkpt lat="45.4719" lon="6.20058">
        <ele>1034.52</ele>
        <time>2011-09-25T12:42:51Z</time>
      </trkpt>
      <trkpt lat="45.4719" lon="6.20058">
        <ele>1037.4</ele>
        <time>2011-09-25T12:43:05Z</time>
      </trkpt>
      <trkpt lat="45.47186" lon="6.2006">
        <ele>1037.88</ele>
        <time>2011-09-25T12:43:08Z</time>
      </trkpt>
      <trkpt lat="45.47181" lon="6.20066">
        <ele>1039.32</ele>
        <time>2011-09-25T12:43:15Z</time>
      </trkpt>
      <trkpt lat="45.47168" lon="6.20075">
        <ele>1041.25</ele>
        <time>2011-09-25T12:43:29Z</time>
      </trkpt>
      <trkpt lat="45.47164" lon="6.20079">
        <ele>1043.17</ele>
        <time>2011-09-25T12:43:46Z</time>
      </trkpt>
      <trkpt lat="45.47162" lon="6.20094">
        <ele>1045.57</ele>
        <time>2011-09-25T12:44:02Z</time>
      </trkpt>
      <trkpt lat="45.47161" lon="6.20104">
        <ele>1046.53</ele>
        <time>2011-09-25T12:44:12Z</time>
      </trkpt>
      <trkpt lat="45.47162" lon="6.20126">
        <ele>1049.9</ele>
        <time>2011-09-25T12:44:30Z</time>
      </trkpt>
      <trkpt lat="45.47162" lon="6.20139">
        <ele>1053.74</ele>
        <time>2011-09-25T12:44:44Z</time>
      </trkpt>
      <trkpt lat="45.47162" lon="6.20155">
        <ele>1057.11</ele>
        <time>2011-09-25T12:45:00Z</time>
      </trkpt>
      <trkpt lat="45.47158" lon="6.20167">
        <ele>1059.51</ele>
        <time>2011-09-25T12:45:16Z</time>
      </trkpt>
      <trkpt lat="45.47151" lon="6.20185">
        <ele>1062.39</ele>
        <time>2011-09-25T12:45:31Z</time>
      </trkpt>
      <trkpt lat="45.4715" lon="6.20188">
        <ele>1063.36</ele>
        <time>2011-09-25T12:45:33Z</time>
      </trkpt>
      <trkpt lat="45.47147" lon="6.20199">
        <ele>1063.84</ele>
        <time>2011-09-25T12:45:50Z</time>
      </trkpt>
      <trkpt lat="45.47146" lon="6.202">
        <ele>1064.32</ele>
        <time>2011-09-25T12:46:08Z</time>
      </trkpt>
      <trkpt lat="45.47146" lon="6.202">
        <ele>1064.8</ele>
        <time>2011-09-25T12:46:30Z</time>
      </trkpt>
      <trkpt lat="45.47147" lon="6.202">
        <ele>1064.32</ele>
        <time>2011-09-25T12:46:55Z</time>
      </trkpt>
      <trkpt lat="45.47147" lon="6.20203">
        <ele>1065.28</ele>
        <time>2011-09-25T12:47:23Z</time>
      </trkpt>
      <trkpt lat="45.47148" lon="6.20214">
        <ele>1065.28</ele>
        <time>2011-09-25T12:47:27Z</time>
      </trkpt>
      <trkpt lat="45.4717" lon="6.20252">
        <ele>1066.72</ele>
        <time>2011-09-25T12:47:40Z</time>
      </trkpt>
      <trkpt lat="45.47208" lon="6.20265">
        <ele>1067.68</ele>
        <time>2011-09-25T12:47:52Z</time>
      </trkpt>
      <trkpt lat="45.47261" lon="6.20295">
        <ele>1069.6</ele>
        <time>2011-09-25T12:48:05Z</time>
      </trkpt>
      <trkpt lat="45.47321" lon="6.20355">
        <ele>1071.53</ele>
        <time>2011-09-25T12:48:22Z</time>
      </trkpt>
      <trkpt lat="45.47357" lon="6.20416">
        <ele>1073.93</ele>
        <time>2011-09-25T12:48:35Z</time>
      </trkpt>
      <trkpt lat="45.47358" lon="6.20486">
        <ele>1075.85</ele>
        <time>2011-09-25T12:48:48Z</time>
      </trkpt>
      <trkpt lat="45.47363" lon="6.20567">
        <ele>1078.26</ele>
        <time>2011-09-25T12:49:02Z</time>
      </trkpt>
      <trkpt lat="45.47368" lon="6.20613">
        <ele>1079.22</ele>
        <time>2011-09-25T12:49:10Z</time>
      </trkpt>
      <trkpt lat="45.47383" lon="6.2068">
        <ele>1081.14</ele>
        <time>2011-09-25T12:49:23Z</time>
      </trkpt>
      <trkpt lat="45.47382" lon="6.20737">
        <ele>1083.06</ele>
        <time>2011-09-25T12:49:35Z</time>
      </trkpt>
      <trkpt lat="45.47395" lon="6.2079">
        <ele>1084.02</ele>
        <time>2011-09-25T12:49:47Z</time>
      </trkpt>
      <trkpt lat="45.47399" lon="6.20844">
        <ele>1084.99</ele>
        <time>2011-09-25T12:49:59Z</time>
      </trkpt>
      <trkpt lat="45.47367" lon="6.2089">
        <ele>1087.39</ele>
        <time>2011-09-25T12:50:11Z</time>
      </trkpt>
      <trkpt lat="45.47365" lon="6.20893">
        <ele>1087.39</ele>
        <time>2011-09-25T12:50:12Z</time>
      </trkpt>
      <trkpt lat="45.47353" lon="6.20935">
        <ele>1088.35</ele>
        <time>2011-09-25T12:50:24Z</time>
      </trkpt>
      <trkpt lat="45.47358" lon="6.20944">
        <ele>1088.35</ele>
        <time>2011-09-25T12:50:36Z</time>
      </trkpt>
      <trkpt lat="45.47358" lon="6.20944">
        <ele>1087.87</ele>
        <time>2011-09-25T12:51:02Z</time>
      </trkpt>
      <trkpt lat="45.47358" lon="6.20943">
        <ele>1087.87</ele>
        <time>2011-09-25T12:51:16Z</time>
      </trkpt>
      <trkpt lat="45.47358" lon="6.20943">
        <ele>1088.35</ele>
        <time>2011-09-25T12:51:30Z</time>
      </trkpt>
      <trkpt lat="45.47354" lon="6.20951">
        <ele>1089.31</ele>
        <time>2011-09-25T12:51:45Z</time>
      </trkpt>
      <trkpt lat="45.47354" lon="6.20954">
        <ele>1088.83</ele>
        <time>2011-09-25T12:52:01Z</time>
      </trkpt>
      <trkpt lat="45.47355" lon="6.20952">
        <ele>1087.87</ele>
        <time>2011-09-25T12:52:07Z</time>
      </trkpt>
      <trkpt lat="45.47355" lon="6.20951">
        <ele>1087.87</ele>
        <time>2011-09-25T12:52:08Z</time>
      </trkpt>
      <trkpt lat="45.47356" lon="6.20944">
        <ele>1087.87</ele>
        <time>2011-09-25T12:52:16Z</time>
      </trkpt>
      <trkpt lat="45.47356" lon="6.20944">
        <ele>1087.87</ele>
        <time>2011-09-25T12:52:51Z</time>
      </trkpt>
      <trkpt lat="45.47356" lon="6.20943">
        <ele>1087.39</ele>
        <time>2011-09-25T12:53:21Z</time>
      </trkpt>
      <trkpt lat="45.47356" lon="6.20943">
        <ele>1088.35</ele>
        <time>2011-09-25T12:53:44Z</time>
      </trkpt>
      <trkpt lat="45.47356" lon="6.20942">
        <ele>1089.31</ele>
        <time>2011-09-25T12:53:59Z</time>
      </trkpt>
      <trkpt lat="45.47356" lon="6.20942">
        <ele>1089.31</ele>
        <time>2011-09-25T12:54:16Z</time>
      </trkpt>
      <trkpt lat="45.47351" lon="6.20952">
        <ele>1091.23</ele>
        <time>2011-09-25T12:54:32Z</time>
      </trkpt>
      <trkpt lat="45.47347" lon="6.20957">
        <ele>1092.2</ele>
        <time>2011-09-25T12:54:37Z</time>
      </trkpt>
      <trkpt lat="45.47341" lon="6.20963">
        <ele>1094.12</ele>
        <time>2011-09-25T12:54:52Z</time>
      </trkpt>
      <trkpt lat="45.4734" lon="6.20965">
        <ele>1095.08</ele>
        <time>2011-09-25T12:55:10Z</time>
      </trkpt>
      <trkpt lat="45.47338" lon="6.20967">
        <ele>1095.56</ele>
        <time>2011-09-25T12:55:13Z</time>
      </trkpt>
      <trkpt lat="45.47337" lon="6.2097">
        <ele>1095.08</ele>
        <time>2011-09-25T12:55:15Z</time>
      </trkpt>
      <trkpt lat="45.47336" lon="6.20976">
        <ele>1096.52</ele>
        <time>2011-09-25T12:55:19Z</time>
      </trkpt>
      <trkpt lat="45.4734" lon="6.20983">
        <ele>1096.04</ele>
        <time>2011-09-25T12:55:27Z</time>
      </trkpt>
      <trkpt lat="45.47339" lon="6.20991">
        <ele>1098.92</ele>
        <time>2011-09-25T12:55:38Z</time>
      </trkpt>
      <trkpt lat="45.47336" lon="6.20991">
        <ele>1100.85</ele>
        <time>2011-09-25T12:55:57Z</time>
      </trkpt>
      <trkpt lat="45.47334" lon="6.20996">
        <ele>1104.21</ele>
        <time>2011-09-25T12:56:15Z</time>
      </trkpt>
      <trkpt lat="45.47334" lon="6.20999">
        <ele>1103.73</ele>
        <time>2011-09-25T12:56:16Z</time>
      </trkpt>
      <trkpt lat="45.47332" lon="6.21006">
        <ele>1105.17</ele>
        <time>2011-09-25T12:56:25Z</time>
      </trkpt>
      <trkpt lat="45.47328" lon="6.21012">
        <ele>1106.61</ele>
        <time>2011-09-25T12:56:43Z</time>
      </trkpt>
      <trkpt lat="45.47327" lon="6.21013">
        <ele>1106.13</ele>
        <time>2011-09-25T12:57:02Z</time>
      </trkpt>
      <trkpt lat="45.47325" lon="6.21014">
        <ele>1107.58</ele>
        <time>2011-09-25T12:57:20Z</time>
      </trkpt>
      <trkpt lat="45.47321" lon="6.21014">
        <ele>1106.61</ele>
        <time>2011-09-25T12:57:43Z</time>
      </trkpt>
      <trkpt lat="45.47319" lon="6.21013">
        <ele>1106.13</ele>
        <time>2011-09-25T12:57:48Z</time>
      </trkpt>
      <trkpt lat="45.47316" lon="6.2101">
        <ele>1106.13</ele>
        <time>2011-09-25T12:58:15Z</time>
      </trkpt>
      <trkpt lat="45.47316" lon="6.2101">
        <ele>1106.61</ele>
        <time>2011-09-25T12:58:31Z</time>
      </trkpt>
      <trkpt lat="45.47317" lon="6.21008">
        <ele>1104.69</ele>
        <time>2011-09-25T12:58:49Z</time>
      </trkpt>
      <trkpt lat="45.47317" lon="6.21008">
        <ele>1104.21</ele>
        <time>2011-09-25T12:58:56Z</time>
      </trkpt>
      <trkpt lat="45.47318" lon="6.20997">
        <ele>1105.65</ele>
        <time>2011-09-25T12:59:14Z</time>
      </trkpt>
      <trkpt lat="45.47322" lon="6.20994">
        <ele>1104.69</ele>
        <time>2011-09-25T12:59:33Z</time>
      </trkpt>
      <trkpt lat="45.47322" lon="6.20994">
        <ele>1105.65</ele>
        <time>2011-09-25T12:59:51Z</time>
      </trkpt>
      <trkpt lat="45.47321" lon="6.20994">
        <ele>1105.17</ele>
        <time>2011-09-25T13:00:08Z</time>
      </trkpt>
      <trkpt lat="45.47321" lon="6.20994">
        <ele>1105.65</ele>
        <time>2011-09-25T13:00:31Z</time>
      </trkpt>
      <trkpt lat="45.47321" lon="6.20995">
        <ele>1106.13</ele>
        <time>2011-09-25T13:00:49Z</time>
      </trkpt>
      <trkpt lat="45.47319" lon="6.20997">
        <ele>1105.65</ele>
        <time>2011-09-25T13:00:54Z</time>
      </trkpt>
      <trkpt lat="45.47318" lon="6.21007">
        <ele>1107.1</ele>
        <time>2011-09-25T13:01:09Z</time>
      </trkpt>
      <trkpt lat="45.47317" lon="6.21007">
        <ele>1106.61</ele>
        <time>2011-09-25T13:01:29Z</time>
      </trkpt>
      <trkpt lat="45.47317" lon="6.21007">
        <ele>1106.61</ele>
        <time>2011-09-25T13:01:51Z</time>
      </trkpt>
      <trkpt lat="45.47317" lon="6.21007">
        <ele>1106.61</ele>
        <time>2011-09-25T13:02:17Z</time>
      </trkpt>
      <trkpt lat="45.47317" lon="6.21009">
        <ele>1109.02</ele>
        <time>2011-09-25T13:02:38Z</time>
      </trkpt>
      <trkpt lat="45.47317" lon="6.2101">
        <ele>1109.02</ele>
        <time>2011-09-25T13:02:39Z</time>
      </trkpt>
      <trkpt lat="45.47316" lon="6.21013">
        <ele>1111.9</ele>
        <time>2011-09-25T13:03:03Z</time>
      </trkpt>
      <trkpt lat="45.47311" lon="6.21015">
        <ele>1112.38</ele>
        <time>2011-09-25T13:03:23Z</time>
      </trkpt>
      <trkpt lat="45.47311" lon="6.21017">
        <ele>1112.38</ele>
        <time>2011-09-25T13:03:46Z</time>
      </trkpt>
      <trkpt lat="45.47308" lon="6.2102">
        <ele>1113.82</ele>
        <time>2011-09-25T13:04:02Z</time>
      </trkpt>
      <trkpt lat="45.47302" lon="6.2103">
        <ele>1115.75</ele>
        <time>2011-09-25T13:04:09Z</time>
      </trkpt>
      <trkpt lat="45.47299" lon="6.21034">
        <ele>1117.67</ele>
        <time>2011-09-25T13:04:15Z</time>
      </trkpt>
      <trkpt lat="45.47298" lon="6.21039">
        <ele>1119.11</ele>
        <time>2011-09-25T13:04:36Z</time>
      </trkpt>
      <trkpt lat="45.47298" lon="6.21039">
        <ele>1121.03</ele>
        <time>2011-09-25T13:04:54Z</time>
      </trkpt>
      <trkpt lat="45.47297" lon="6.21039">
        <ele>1121.52</ele>
        <time>2011-09-25T13:05:17Z</time>
      </trkpt>
      <trkpt lat="45.47297" lon="6.21039">
        <ele>1122.96</ele>
        <time>2011-09-25T13:05:34Z</time>
      </trkpt>
      <trkpt lat="45.47297" lon="6.21039">
        <ele>1123.44</ele>
        <time>2011-09-25T13:05:36Z</time>
      </trkpt>
      <trkpt lat="45.47289" lon="6.21043">
        <ele>1123.44</ele>
        <time>2011-09-25T13:05:55Z</time>
      </trkpt>
      <trkpt lat="45.47289" lon="6.21043">
        <ele>1125.36</ele>
        <time>2011-09-25T13:06:12Z</time>
      </trkpt>
      <trkpt lat="45.47285" lon="6.21045">
        <ele>1127.28</ele>
        <time>2011-09-25T13:06:32Z</time>
      </trkpt>
      <trkpt lat="45.47271" lon="6.21049">
        <ele>1130.17</ele>
        <time>2011-09-25T13:06:53Z</time>
      </trkpt>
      <trkpt lat="45.47269" lon="6.2105">
        <ele>1131.13</ele>
        <time>2011-09-25T13:07:13Z</time>
      </trkpt>
      <trkpt lat="45.47268" lon="6.2105">
        <ele>1131.61</ele>
        <time>2011-09-25T13:07:45Z</time>
      </trkpt>
      <trkpt lat="45.47266" lon="6.21052">
        <ele>1131.13</ele>
        <time>2011-09-25T13:08:16Z</time>
      </trkpt>
      <trkpt lat="45.47263" lon="6.21052">
        <ele>1132.09</ele>
        <time>2011-09-25T13:08:32Z</time>
      </trkpt>
      <trkpt lat="45.47263" lon="6.21052">
        <ele>1131.13</ele>
        <time>2011-09-25T13:08:51Z</time>
      </trkpt>
      <trkpt lat="45.47258" lon="6.21052">
        <ele>1132.57</ele>
        <time>2011-09-25T13:09:18Z</time>
      </trkpt>
      <trkpt lat="45.47258" lon="6.21053">
        <ele>1133.53</ele>
        <time>2011-09-25T13:09:35Z</time>
      </trkpt>
      <trkpt lat="45.47257" lon="6.21053">
        <ele>1135.45</ele>
        <time>2011-09-25T13:09:55Z</time>
      </trkpt>
      <trkpt lat="45.47253" lon="6.21056">
        <ele>1135.94</ele>
        <time>2011-09-25T13:10:12Z</time>
      </trkpt>
      <trkpt lat="45.47254" lon="6.21059">
        <ele>1136.9</ele>
        <time>2011-09-25T13:10:30Z</time>
      </trkpt>
      <trkpt lat="45.47257" lon="6.21075">
        <ele>1139.78</ele>
        <time>2011-09-25T13:10:49Z</time>
      </trkpt>
      <trkpt lat="45.47258" lon="6.21081">
        <ele>1142.18</ele>
        <time>2011-09-25T13:11:08Z</time>
      </trkpt>
      <trkpt lat="45.47258" lon="6.21081">
        <ele>1142.66</ele>
        <time>2011-09-25T13:11:29Z</time>
      </trkpt>
      <trkpt lat="45.47257" lon="6.21082">
        <ele>1144.59</ele>
        <time>2011-09-25T13:11:49Z</time>
      </trkpt>
      <trkpt lat="45.47257" lon="6.21082">
        <ele>1145.07</ele>
        <time>2011-09-25T13:11:56Z</time>
      </trkpt>
      <trkpt lat="45.47253" lon="6.21079">
        <ele>1146.51</ele>
        <time>2011-09-25T13:12:03Z</time>
      </trkpt>
      <trkpt lat="45.47248" lon="6.21075">
        <ele>1149.87</ele>
        <time>2011-09-25T13:12:21Z</time>
      </trkpt>
      <trkpt lat="45.47245" lon="6.21079">
        <ele>1151.8</ele>
        <time>2011-09-25T13:12:43Z</time>
      </trkpt>
      <trkpt lat="45.47245" lon="6.2108">
        <ele>1151.8</ele>
        <time>2011-09-25T13:12:47Z</time>
      </trkpt>
      <trkpt lat="45.47241" lon="6.21081">
        <ele>1154.2</ele>
        <time>2011-09-25T13:13:06Z</time>
      </trkpt>
      <trkpt lat="45.47241" lon="6.21081">
        <ele>1154.2</ele>
        <time>2011-09-25T13:13:07Z</time>
      </trkpt>
      <trkpt lat="45.47239" lon="6.21083">
        <ele>1154.2</ele>
        <time>2011-09-25T13:13:20Z</time>
      </trkpt>
      <trkpt lat="45.47232" lon="6.21085">
        <ele>1155.16</ele>
        <time>2011-09-25T13:13:38Z</time>
      </trkpt>
      <trkpt lat="45.47228" lon="6.21087">
        <ele>1156.12</ele>
        <time>2011-09-25T13:13:58Z</time>
      </trkpt>
      <trkpt lat="45.47228" lon="6.21087">
        <ele>1156.6</ele>
        <time>2011-09-25T13:14:00Z</time>
      </trkpt>
      <trkpt lat="45.47225" lon="6.21088">
        <ele>1159.97</ele>
        <time>2011-09-25T13:14:18Z</time>
      </trkpt>
      <trkpt lat="45.47224" lon="6.21088">
        <ele>1161.89</ele>
        <time>2011-09-25T13:14:31Z</time>
      </trkpt>
      <trkpt lat="45.47224" lon="6.21089">
        <ele>1165.26</ele>
        <time>2011-09-25T13:14:45Z</time>
      </trkpt>
      <trkpt lat="45.47224" lon="6.21089">
        <ele>1165.74</ele>
        <time>2011-09-25T13:14:53Z</time>
      </trkpt>
      <trkpt lat="45.47221" lon="6.21091">
        <ele>1165.74</ele>
        <time>2011-09-25T13:15:18Z</time>
      </trkpt>
      <trkpt lat="45.47221" lon="6.21092">
        <ele>1166.22</ele>
        <time>2011-09-25T13:15:19Z</time>
      </trkpt>
      <trkpt lat="45.47214" lon="6.21107">
        <ele>1168.62</ele>
        <time>2011-09-25T13:15:30Z</time>
      </trkpt>
      <trkpt lat="45.47209" lon="6.21108">
        <ele>1171.5</ele>
        <time>2011-09-25T13:15:51Z</time>
      </trkpt>
      <trkpt lat="45.47204" lon="6.2111">
        <ele>1172.95</ele>
        <time>2011-09-25T13:16:06Z</time>
      </trkpt>
      <trkpt lat="45.47203" lon="6.21111">
        <ele>1173.91</ele>
        <time>2011-09-25T13:16:14Z</time>
      </trkpt>
      <trkpt lat="45.47195" lon="6.21111">
        <ele>1176.79</ele>
        <time>2011-09-25T13:16:35Z</time>
      </trkpt>
      <trkpt lat="45.47195" lon="6.21111">
        <ele>1178.71</ele>
        <time>2011-09-25T13:16:54Z</time>
      </trkpt>
      <trkpt lat="45.47195" lon="6.21111">
        <ele>1181.6</ele>
        <time>2011-09-25T13:17:13Z</time>
      </trkpt>
      <trkpt lat="45.47193" lon="6.21111">
        <ele>1181.6</ele>
        <time>2011-09-25T13:17:16Z</time>
      </trkpt>
      <trkpt lat="45.47191" lon="6.21114">
        <ele>1183.04</ele>
        <time>2011-09-25T13:17:22Z</time>
      </trkpt>
      <trkpt lat="45.47188" lon="6.21124">
        <ele>1184</ele>
        <time>2011-09-25T13:17:37Z</time>
      </trkpt>
      <trkpt lat="45.47187" lon="6.21124">
        <ele>1184.48</ele>
        <time>2011-09-25T13:18:05Z</time>
      </trkpt>
      <trkpt lat="45.47187" lon="6.21124">
        <ele>1184</ele>
        <time>2011-09-25T13:18:31Z</time>
      </trkpt>
      <trkpt lat="45.47187" lon="6.21125">
        <ele>1184.48</ele>
        <time>2011-09-25T13:18:56Z</time>
      </trkpt>
      <trkpt lat="45.47185" lon="6.21126">
        <ele>1185.44</ele>
        <time>2011-09-25T13:19:13Z</time>
      </trkpt>
      <trkpt lat="45.47186" lon="6.21133">
        <ele>1186.4</ele>
        <time>2011-09-25T13:19:35Z</time>
      </trkpt>
      <trkpt lat="45.47184" lon="6.21132">
        <ele>1185.92</ele>
        <time>2011-09-25T13:20:00Z</time>
      </trkpt>
      <trkpt lat="45.47182" lon="6.21135">
        <ele>1188.33</ele>
        <time>2011-09-25T13:20:19Z</time>
      </trkpt>
      <trkpt lat="45.47182" lon="6.21141">
        <ele>1191.21</ele>
        <time>2011-09-25T13:20:34Z</time>
      </trkpt>
      <trkpt lat="45.47179" lon="6.21144">
        <ele>1192.65</ele>
        <time>2011-09-25T13:20:42Z</time>
      </trkpt>
      <trkpt lat="45.47175" lon="6.21148">
        <ele>1194.58</ele>
        <time>2011-09-25T13:21:01Z</time>
      </trkpt>
      <trkpt lat="45.47173" lon="6.21153">
        <ele>1196.02</ele>
        <time>2011-09-25T13:21:06Z</time>
      </trkpt>
      <trkpt lat="45.47174" lon="6.21158">
        <ele>1196.5</ele>
        <time>2011-09-25T13:21:09Z</time>
      </trkpt>
      <trkpt lat="45.47173" lon="6.21161">
        <ele>1197.94</ele>
        <time>2011-09-25T13:21:34Z</time>
      </trkpt>
      <trkpt lat="45.47173" lon="6.21157">
        <ele>1195.54</ele>
        <time>2011-09-25T13:21:56Z</time>
      </trkpt>
      <trkpt lat="45.47174" lon="6.21155">
        <ele>1196.5</ele>
        <time>2011-09-25T13:22:17Z</time>
      </trkpt>
      <trkpt lat="45.47173" lon="6.21153">
        <ele>1199.38</ele>
        <time>2011-09-25T13:22:39Z</time>
      </trkpt>
      <trkpt lat="45.47171" lon="6.21153">
        <ele>1196.5</ele>
        <time>2011-09-25T13:22:43Z</time>
      </trkpt>
      <trkpt lat="45.47168" lon="6.21149">
        <ele>1196.02</ele>
        <time>2011-09-25T13:22:49Z</time>
      </trkpt>
      <trkpt lat="45.47168" lon="6.21147">
        <ele>1197.46</ele>
        <time>2011-09-25T13:22:52Z</time>
      </trkpt>
      <trkpt lat="45.47163" lon="6.21143">
        <ele>1197.94</ele>
        <time>2011-09-25T13:23:14Z</time>
      </trkpt>
      <trkpt lat="45.47157" lon="6.21145">
        <ele>1199.86</ele>
        <time>2011-09-25T13:23:31Z</time>
      </trkpt>
      <trkpt lat="45.4715" lon="6.21148">
        <ele>1201.3</ele>
        <time>2011-09-25T13:23:43Z</time>
      </trkpt>
      <trkpt lat="45.47147" lon="6.21154">
        <ele>1203.71</ele>
        <time>2011-09-25T13:23:57Z</time>
      </trkpt>
      <trkpt lat="45.47144" lon="6.21162">
        <ele>1206.11</ele>
        <time>2011-09-25T13:24:12Z</time>
      </trkpt>
      <trkpt lat="45.4714" lon="6.21168">
        <ele>1209</ele>
        <time>2011-09-25T13:24:29Z</time>
      </trkpt>
      <trkpt lat="45.47136" lon="6.21177">
        <ele>1212.36</ele>
        <time>2011-09-25T13:24:47Z</time>
      </trkpt>
      <trkpt lat="45.47138" lon="6.21181">
        <ele>1213.32</ele>
        <time>2011-09-25T13:24:55Z</time>
      </trkpt>
      <trkpt lat="45.47137" lon="6.21187">
        <ele>1216.21</ele>
        <time>2011-09-25T13:25:10Z</time>
      </trkpt>
      <trkpt lat="45.47138" lon="6.21188">
        <ele>1215.72</ele>
        <time>2011-09-25T13:25:11Z</time>
      </trkpt>
      <trkpt lat="45.47143" lon="6.2119">
        <ele>1216.69</ele>
        <time>2011-09-25T13:25:28Z</time>
      </trkpt>
      <trkpt lat="45.47149" lon="6.21191">
        <ele>1216.69</ele>
        <time>2011-09-25T13:25:32Z</time>
      </trkpt>
      <trkpt lat="45.47157" lon="6.2119">
        <ele>1215.72</ele>
        <time>2011-09-25T13:25:38Z</time>
      </trkpt>
      <trkpt lat="45.47175" lon="6.21187">
        <ele>1216.21</ele>
        <time>2011-09-25T13:25:47Z</time>
      </trkpt>
      <trkpt lat="45.47179" lon="6.21188">
        <ele>1215.72</ele>
        <time>2011-09-25T13:26:06Z</time>
      </trkpt>
      <trkpt lat="45.47179" lon="6.21186">
        <ele>1215.72</ele>
        <time>2011-09-25T13:26:10Z</time>
      </trkpt>
      <trkpt lat="45.47181" lon="6.21184">
        <ele>1215.24</ele>
        <time>2011-09-25T13:26:12Z</time>
      </trkpt>
      <trkpt lat="45.47192" lon="6.21179">
        <ele>1216.21</ele>
        <time>2011-09-25T13:26:17Z</time>
      </trkpt>
      <trkpt lat="45.47224" lon="6.21168">
        <ele>1212.84</ele>
        <time>2011-09-25T13:26:31Z</time>
      </trkpt>
      <trkpt lat="45.47239" lon="6.21169">
        <ele>1210.44</ele>
        <time>2011-09-25T13:26:38Z</time>
      </trkpt>
      <trkpt lat="45.47271" lon="6.21173">
        <ele>1208.03</ele>
        <time>2011-09-25T13:26:48Z</time>
      </trkpt>
      <trkpt lat="45.47293" lon="6.2118">
        <ele>1204.67</ele>
        <time>2011-09-25T13:26:57Z</time>
      </trkpt>
      <trkpt lat="45.47316" lon="6.2117">
        <ele>1202.75</ele>
        <time>2011-09-25T13:27:10Z</time>
      </trkpt>
      <trkpt lat="45.4734" lon="6.21157">
        <ele>1199.86</ele>
        <time>2011-09-25T13:27:16Z</time>
      </trkpt>
      <trkpt lat="45.47366" lon="6.21154">
        <ele>1196.98</ele>
        <time>2011-09-25T13:27:24Z</time>
      </trkpt>
      <trkpt lat="45.47387" lon="6.21161">
        <ele>1194.58</ele>
        <time>2011-09-25T13:27:36Z</time>
      </trkpt>
      <trkpt lat="45.47385" lon="6.2116">
        <ele>1194.58</ele>
        <time>2011-09-25T13:27:54Z</time>
      </trkpt>
      <trkpt lat="45.47385" lon="6.21161">
        <ele>1194.58</ele>
        <time>2011-09-25T13:28:23Z</time>
      </trkpt>
      <trkpt lat="45.47385" lon="6.21161">
        <ele>1194.09</ele>
        <time>2011-09-25T13:28:49Z</time>
      </trkpt>
      <trkpt lat="45.47386" lon="6.21162">
        <ele>1194.09</ele>
        <time>2011-09-25T13:28:50Z</time>
      </trkpt>
      <trkpt lat="45.47405" lon="6.21177">
        <ele>1192.65</ele>
        <time>2011-09-25T13:28:57Z</time>
      </trkpt>
      <trkpt lat="45.47414" lon="6.21185">
        <ele>1191.69</ele>
        <time>2011-09-25T13:28:59Z</time>
      </trkpt>
      <trkpt lat="45.47428" lon="6.21197">
        <ele>1190.25</ele>
        <time>2011-09-25T13:29:02Z</time>
      </trkpt>
      <trkpt lat="45.47433" lon="6.21201">
        <ele>1190.25</ele>
        <time>2011-09-25T13:29:03Z</time>
      </trkpt>
      <trkpt lat="45.47461" lon="6.21227">
        <ele>1188.81</ele>
        <time>2011-09-25T13:29:09Z</time>
      </trkpt>
      <trkpt lat="45.47483" lon="6.21251">
        <ele>1185.92</ele>
        <time>2011-09-25T13:29:13Z</time>
      </trkpt>
      <trkpt lat="45.47499" lon="6.21271">
        <ele>1184.96</ele>
        <time>2011-09-25T13:29:16Z</time>
      </trkpt>
      <trkpt lat="45.47537" lon="6.21318">
        <ele>1181.6</ele>
        <time>2011-09-25T13:29:23Z</time>
      </trkpt>
      <trkpt lat="45.47547" lon="6.21333">
        <ele>1180.64</ele>
        <time>2011-09-25T13:29:25Z</time>
      </trkpt>
      <trkpt lat="45.47567" lon="6.2136">
        <ele>1178.23</ele>
        <time>2011-09-25T13:29:29Z</time>
      </trkpt>
      <trkpt lat="45.4758" lon="6.21382">
        <ele>1177.27</ele>
        <time>2011-09-25T13:29:32Z</time>
      </trkpt>
      <trkpt lat="45.47583" lon="6.2139">
        <ele>1176.79</ele>
        <time>2011-09-25T13:29:33Z</time>
      </trkpt>
      <trkpt lat="45.47585" lon="6.21398">
        <ele>1176.31</ele>
        <time>2011-09-25T13:29:34Z</time>
      </trkpt>
      <trkpt lat="45.47588" lon="6.21405">
        <ele>1175.83</ele>
        <time>2011-09-25T13:29:35Z</time>
      </trkpt>
      <trkpt lat="45.47592" lon="6.21411">
        <ele>1175.83</ele>
        <time>2011-09-25T13:29:36Z</time>
      </trkpt>
      <trkpt lat="45.47596" lon="6.21418">
        <ele>1174.87</ele>
        <time>2011-09-25T13:29:37Z</time>
      </trkpt>
      <trkpt lat="45.47601" lon="6.21423">
        <ele>1174.87</ele>
        <time>2011-09-25T13:29:38Z</time>
      </trkpt>
      <trkpt lat="45.47606" lon="6.21426">
        <ele>1173.91</ele>
        <time>2011-09-25T13:29:39Z</time>
      </trkpt>
      <trkpt lat="45.47615" lon="6.21433">
        <ele>1172.95</ele>
        <time>2011-09-25T13:29:41Z</time>
      </trkpt>
      <trkpt lat="45.4762" lon="6.21438">
        <ele>1172.47</ele>
        <time>2011-09-25T13:29:42Z</time>
      </trkpt>
      <trkpt lat="45.47625" lon="6.21444">
        <ele>1171.98</ele>
        <time>2011-09-25T13:29:43Z</time>
      </trkpt>
      <trkpt lat="45.47633" lon="6.21454">
        <ele>1171.02</ele>
        <time>2011-09-25T13:29:45Z</time>
      </trkpt>
      <trkpt lat="45.47637" lon="6.2146">
        <ele>1171.02</ele>
        <time>2011-09-25T13:29:46Z</time>
      </trkpt>
      <trkpt lat="45.47655" lon="6.2149">
        <ele>1168.14</ele>
        <time>2011-09-25T13:29:51Z</time>
      </trkpt>
      <trkpt lat="45.47666" lon="6.21508">
        <ele>1166.7</ele>
        <time>2011-09-25T13:29:54Z</time>
      </trkpt>
      <trkpt lat="45.4767" lon="6.21514">
        <ele>1166.22</ele>
        <time>2011-09-25T13:29:55Z</time>
      </trkpt>
      <trkpt lat="45.47677" lon="6.21525">
        <ele>1165.26</ele>
        <time>2011-09-25T13:29:57Z</time>
      </trkpt>
      <trkpt lat="45.47702" lon="6.21567">
        <ele>1161.41</ele>
        <time>2011-09-25T13:30:03Z</time>
      </trkpt>
      <trkpt lat="45.47705" lon="6.21572">
        <ele>1161.41</ele>
        <time>2011-09-25T13:30:04Z</time>
      </trkpt>
      <trkpt lat="45.47734" lon="6.2161">
        <ele>1158.05</ele>
        <time>2011-09-25T13:30:13Z</time>
      </trkpt>
      <trkpt lat="45.47743" lon="6.21622">
        <ele>1157.08</ele>
        <time>2011-09-25T13:30:16Z</time>
      </trkpt>
      <trkpt lat="45.47765" lon="6.21666">
        <ele>1153.24</ele>
        <time>2011-09-25T13:30:25Z</time>
      </trkpt>
      <trkpt lat="45.47768" lon="6.21671">
        <ele>1152.76</ele>
        <time>2011-09-25T13:30:26Z</time>
      </trkpt>
      <trkpt lat="45.47772" lon="6.21677">
        <ele>1152.28</ele>
        <time>2011-09-25T13:30:27Z</time>
      </trkpt>
      <trkpt lat="45.47776" lon="6.21682">
        <ele>1151.8</ele>
        <time>2011-09-25T13:30:28Z</time>
      </trkpt>
      <trkpt lat="45.4778" lon="6.21688">
        <ele>1150.84</ele>
        <time>2011-09-25T13:30:29Z</time>
      </trkpt>
      <trkpt lat="45.478" lon="6.21716">
        <ele>1146.99</ele>
        <time>2011-09-25T13:30:34Z</time>
      </trkpt>
      <trkpt lat="45.47803" lon="6.21721">
        <ele>1146.99</ele>
        <time>2011-09-25T13:30:35Z</time>
      </trkpt>
      <trkpt lat="45.47809" lon="6.21732">
        <ele>1145.07</ele>
        <time>2011-09-25T13:30:43Z</time>
      </trkpt>
      <trkpt lat="45.47809" lon="6.21732">
        <ele>1145.07</ele>
        <time>2011-09-25T13:31:08Z</time>
      </trkpt>
      <trkpt lat="45.47809" lon="6.21735">
        <ele>1145.55</ele>
        <time>2011-09-25T13:31:33Z</time>
      </trkpt>
      <trkpt lat="45.47808" lon="6.21737">
        <ele>1146.03</ele>
        <time>2011-09-25T13:31:35Z</time>
      </trkpt>
      <trkpt lat="45.47807" lon="6.21738">
        <ele>1146.51</ele>
        <time>2011-09-25T13:31:36Z</time>
      </trkpt>
      <trkpt lat="45.47806" lon="6.21739">
        <ele>1146.51</ele>
        <time>2011-09-25T13:31:37Z</time>
      </trkpt>
      <trkpt lat="45.47805" lon="6.21741">
        <ele>1146.99</ele>
        <time>2011-09-25T13:31:38Z</time>
      </trkpt>
      <trkpt lat="45.47805" lon="6.21743">
        <ele>1147.47</ele>
        <time>2011-09-25T13:31:39Z</time>
      </trkpt>
      <trkpt lat="45.47804" lon="6.21744">
        <ele>1147.47</ele>
        <time>2011-09-25T13:31:40Z</time>
      </trkpt>
      <trkpt lat="45.47804" lon="6.21746">
        <ele>1147.47</ele>
        <time>2011-09-25T13:31:41Z</time>
      </trkpt>
      <trkpt lat="45.47796" lon="6.21753">
        <ele>1150.35</ele>
        <time>2011-09-25T13:31:50Z</time>
      </trkpt>
      <trkpt lat="45.47788" lon="6.21763">
        <ele>1152.28</ele>
        <time>2011-09-25T13:32:03Z</time>
      </trkpt>
      <trkpt lat="45.47781" lon="6.21773">
        <ele>1155.64</ele>
        <time>2011-09-25T13:32:17Z</time>
      </trkpt>
      <trkpt lat="45.47779" lon="6.21781">
        <ele>1157.56</ele>
        <time>2011-09-25T13:32:30Z</time>
      </trkpt>
      <trkpt lat="45.47778" lon="6.21784">
        <ele>1158.05</ele>
        <time>2011-09-25T13:32:44Z</time>
      </trkpt>
      <trkpt lat="45.47769" lon="6.21794">
        <ele>1159.97</ele>
        <time>2011-09-25T13:33:02Z</time>
      </trkpt>
      <trkpt lat="45.47767" lon="6.21795">
        <ele>1160.45</ele>
        <time>2011-09-25T13:33:26Z</time>
      </trkpt>
      <trkpt lat="45.47766" lon="6.21796">
        <ele>1160.93</ele>
        <time>2011-09-25T13:33:27Z</time>
      </trkpt>
      <trkpt lat="45.47765" lon="6.21797">
        <ele>1161.41</ele>
        <time>2011-09-25T13:33:28Z</time>
      </trkpt>
      <trkpt lat="45.47748" lon="6.21807">
        <ele>1163.81</ele>
        <time>2011-09-25T13:33:42Z</time>
      </trkpt>
      <trkpt lat="45.47747" lon="6.2181">
        <ele>1163.81</ele>
        <time>2011-09-25T13:33:58Z</time>
      </trkpt>
      <trkpt lat="45.47747" lon="6.21811">
        <ele>1164.29</ele>
        <time>2011-09-25T13:34:24Z</time>
      </trkpt>
      <trkpt lat="45.47748" lon="6.21812">
        <ele>1165.74</ele>
        <time>2011-09-25T13:34:43Z</time>
      </trkpt>
      <trkpt lat="45.47747" lon="6.21812">
        <ele>1164.29</ele>
        <time>2011-09-25T13:34:46Z</time>
      </trkpt>
      <trkpt lat="45.47747" lon="6.21812">
        <ele>1163.81</ele>
        <time>2011-09-25T13:35:12Z</time>
      </trkpt>
      <trkpt lat="45.47747" lon="6.21812">
        <ele>1162.37</ele>
        <time>2011-09-25T13:35:26Z</time>
      </trkpt>
      <trkpt lat="45.47747" lon="6.21812">
        <ele>1164.77</ele>
        <time>2011-09-25T13:35:28Z</time>
      </trkpt>
      <trkpt lat="45.47747" lon="6.21812">
        <ele>1162.85</ele>
        <time>2011-09-25T13:35:32Z</time>
      </trkpt>
      <trkpt lat="45.47747" lon="6.21812">
        <ele>1167.18</ele>
        <time>2011-09-25T13:35:33Z</time>
      </trkpt>
      <trkpt lat="45.47747" lon="6.21812">
        <ele>1165.26</ele>
        <time>2011-09-25T13:35:34Z</time>
      </trkpt>
      <trkpt lat="45.47748" lon="6.21812">
        <ele>1164.29</ele>
        <time>2011-09-25T13:35:49Z</time>
      </trkpt>
      <trkpt lat="45.47752" lon="6.21806">
        <ele>1161.89</ele>
        <time>2011-09-25T13:36:05Z</time>
      </trkpt>
      <trkpt lat="45.47754" lon="6.21804">
        <ele>1162.85</ele>
        <time>2011-09-25T13:36:06Z</time>
      </trkpt>
      <trkpt lat="45.47755" lon="6.21802">
        <ele>1161.89</ele>
        <time>2011-09-25T13:36:07Z</time>
      </trkpt>
      <trkpt lat="45.47758" lon="6.218">
        <ele>1161.89</ele>
        <time>2011-09-25T13:36:08Z</time>
      </trkpt>
      <trkpt lat="45.47759" lon="6.21798">
        <ele>1161.41</ele>
        <time>2011-09-25T13:36:09Z</time>
      </trkpt>
      <trkpt lat="45.47764" lon="6.21793">
        <ele>1159.97</ele>
        <time>2011-09-25T13:36:12Z</time>
      </trkpt>
      <trkpt lat="45.47789" lon="6.21781">
        <ele>1156.6</ele>
        <time>2011-09-25T13:36:23Z</time>
      </trkpt>
      <trkpt lat="45.47796" lon="6.21773">
        <ele>1154.68</ele>
        <time>2011-09-25T13:36:29Z</time>
      </trkpt>
      <trkpt lat="45.47809" lon="6.21762">
        <ele>1150.84</ele>
        <time>2011-09-25T13:36:38Z</time>
      </trkpt>
      <trkpt lat="45.47811" lon="6.21759">
        <ele>1150.84</ele>
        <time>2011-09-25T13:36:39Z</time>
      </trkpt>
      <trkpt lat="45.47819" lon="6.21748">
        <ele>1146.99</ele>
        <time>2011-09-25T13:36:43Z</time>
      </trkpt>
      <trkpt lat="45.47819" lon="6.21745">
        <ele>1146.03</ele>
        <time>2011-09-25T13:36:45Z</time>
      </trkpt>
      <trkpt lat="45.47818" lon="6.21734">
        <ele>1144.59</ele>
        <time>2011-09-25T13:36:56Z</time>
      </trkpt>
      <trkpt lat="45.47819" lon="6.21732">
        <ele>1145.55</ele>
        <time>2011-09-25T13:36:57Z</time>
      </trkpt>
      <trkpt lat="45.4782" lon="6.2173">
        <ele>1145.07</ele>
        <time>2011-09-25T13:36:58Z</time>
      </trkpt>
      <trkpt lat="45.47818" lon="6.21722">
        <ele>1146.03</ele>
        <time>2011-09-25T13:37:05Z</time>
      </trkpt>
      <trkpt lat="45.47816" lon="6.2172">
        <ele>1146.51</ele>
        <time>2011-09-25T13:37:07Z</time>
      </trkpt>
      <trkpt lat="45.47814" lon="6.21716">
        <ele>1146.51</ele>
        <time>2011-09-25T13:37:18Z</time>
      </trkpt>
      <trkpt lat="45.47802" lon="6.21693">
        <ele>1149.39</ele>
        <time>2011-09-25T13:37:32Z</time>
      </trkpt>
      <trkpt lat="45.47801" lon="6.21692">
        <ele>1149.39</ele>
        <time>2011-09-25T13:37:34Z</time>
      </trkpt>
      <trkpt lat="45.47787" lon="6.21686">
        <ele>1152.28</ele>
        <time>2011-09-25T13:37:43Z</time>
      </trkpt>
      <trkpt lat="45.47778" lon="6.21676">
        <ele>1154.68</ele>
        <time>2011-09-25T13:37:55Z</time>
      </trkpt>
      <trkpt lat="45.47778" lon="6.21676">
        <ele>1154.68</ele>
        <time>2011-09-25T13:37:56Z</time>
      </trkpt>
      <trkpt lat="45.47777" lon="6.21675">
        <ele>1154.68</ele>
        <time>2011-09-25T13:37:57Z</time>
      </trkpt>
      <trkpt lat="45.47765" lon="6.21664">
        <ele>1158.05</ele>
        <time>2011-09-25T13:38:09Z</time>
      </trkpt>
      <trkpt lat="45.47757" lon="6.21652">
        <ele>1159.01</ele>
        <time>2011-09-25T13:38:21Z</time>
      </trkpt>
      <trkpt lat="45.47755" lon="6.21651">
        <ele>1159.49</ele>
        <time>2011-09-25T13:38:22Z</time>
      </trkpt>
      <trkpt lat="45.47754" lon="6.2165">
        <ele>1160.45</ele>
        <time>2011-09-25T13:38:23Z</time>
      </trkpt>
      <trkpt lat="45.47752" lon="6.21643">
        <ele>1161.41</ele>
        <time>2011-09-25T13:38:32Z</time>
      </trkpt>
      <trkpt lat="45.47751" lon="6.21642">
        <ele>1162.37</ele>
        <time>2011-09-25T13:38:33Z</time>
      </trkpt>
      <trkpt lat="45.47747" lon="6.2164">
        <ele>1161.89</ele>
        <time>2011-09-25T13:38:36Z</time>
      </trkpt>
      <trkpt lat="45.47745" lon="6.2164">
        <ele>1162.85</ele>
        <time>2011-09-25T13:38:37Z</time>
      </trkpt>
      <trkpt lat="45.47743" lon="6.21649">
        <ele>1166.22</ele>
        <time>2011-09-25T13:38:48Z</time>
      </trkpt>
      <trkpt lat="45.47743" lon="6.2165">
        <ele>1166.22</ele>
        <time>2011-09-25T13:38:49Z</time>
      </trkpt>
      <trkpt lat="45.47741" lon="6.21653">
        <ele>1165.74</ele>
        <time>2011-09-25T13:38:51Z</time>
      </trkpt>
      <trkpt lat="45.47738" lon="6.21665">
        <ele>1167.66</ele>
        <time>2011-09-25T13:39:02Z</time>
      </trkpt>
      <trkpt lat="45.47739" lon="6.21666">
        <ele>1167.18</ele>
        <time>2011-09-25T13:39:03Z</time>
      </trkpt>
      <trkpt lat="45.4774" lon="6.21667">
        <ele>1167.66</ele>
        <time>2011-09-25T13:39:04Z</time>
      </trkpt>
      <trkpt lat="45.47741" lon="6.2167">
        <ele>1168.62</ele>
        <time>2011-09-25T13:39:06Z</time>
      </trkpt>
      <trkpt lat="45.47741" lon="6.21674">
        <ele>1169.58</ele>
        <time>2011-09-25T13:39:10Z</time>
      </trkpt>
      <trkpt lat="45.47744" lon="6.21687">
        <ele>1170.54</ele>
        <time>2011-09-25T13:39:22Z</time>
      </trkpt>
      <trkpt lat="45.47746" lon="6.21694">
        <ele>1172.47</ele>
        <time>2011-09-25T13:39:28Z</time>
      </trkpt>
      <trkpt lat="45.47747" lon="6.21695">
        <ele>1173.43</ele>
        <time>2011-09-25T13:39:29Z</time>
      </trkpt>
      <trkpt lat="45.47752" lon="6.21714">
        <ele>1173.43</ele>
        <time>2011-09-25T13:39:43Z</time>
      </trkpt>
      <trkpt lat="45.47752" lon="6.21719">
        <ele>1175.35</ele>
        <time>2011-09-25T13:39:46Z</time>
      </trkpt>
      <trkpt lat="45.47758" lon="6.21738">
        <ele>1178.23</ele>
        <time>2011-09-25T13:40:00Z</time>
      </trkpt>
      <trkpt lat="45.4776" lon="6.21754">
        <ele>1180.64</ele>
        <time>2011-09-25T13:40:14Z</time>
      </trkpt>
      <trkpt lat="45.47755" lon="6.21765">
        <ele>1184</ele>
        <time>2011-09-25T13:40:29Z</time>
      </trkpt>
      <trkpt lat="45.4775" lon="6.21769">
        <ele>1184.96</ele>
        <time>2011-09-25T13:40:37Z</time>
      </trkpt>
      <trkpt lat="45.47748" lon="6.21769">
        <ele>1185.92</ele>
        <time>2011-09-25T13:40:39Z</time>
      </trkpt>
      <trkpt lat="45.47746" lon="6.21769">
        <ele>1185.92</ele>
        <time>2011-09-25T13:40:41Z</time>
      </trkpt>
      <trkpt lat="45.47739" lon="6.21774">
        <ele>1188.81</ele>
        <time>2011-09-25T13:40:54Z</time>
      </trkpt>
      <trkpt lat="45.47735" lon="6.21782">
        <ele>1192.65</ele>
        <time>2011-09-25T13:41:10Z</time>
      </trkpt>
      <trkpt lat="45.47728" lon="6.21792">
        <ele>1194.09</ele>
        <time>2011-09-25T13:41:25Z</time>
      </trkpt>
      <trkpt lat="45.47728" lon="6.21793">
        <ele>1193.61</ele>
        <time>2011-09-25T13:41:26Z</time>
      </trkpt>
      <trkpt lat="45.47725" lon="6.21792">
        <ele>1196.98</ele>
        <time>2011-09-25T13:41:32Z</time>
      </trkpt>
      <trkpt lat="45.47722" lon="6.21791">
        <ele>1196.5</ele>
        <time>2011-09-25T13:41:37Z</time>
      </trkpt>
      <trkpt lat="45.47726" lon="6.21792">
        <ele>1197.94</ele>
        <time>2011-09-25T13:41:49Z</time>
      </trkpt>
      <trkpt lat="45.47723" lon="6.21785">
        <ele>1199.86</ele>
        <time>2011-09-25T13:42:01Z</time>
      </trkpt>
      <trkpt lat="45.47725" lon="6.21775">
        <ele>1201.3</ele>
        <time>2011-09-25T13:42:09Z</time>
      </trkpt>
      <trkpt lat="45.47729" lon="6.21758">
        <ele>1203.71</ele>
        <time>2011-09-25T13:42:24Z</time>
      </trkpt>
      <trkpt lat="45.47725" lon="6.21752">
        <ele>1204.19</ele>
        <time>2011-09-25T13:42:36Z</time>
      </trkpt>
      <trkpt lat="45.47722" lon="6.21748">
        <ele>1205.15</ele>
        <time>2011-09-25T13:42:39Z</time>
      </trkpt>
      <trkpt lat="45.47721" lon="6.21747">
        <ele>1205.15</ele>
        <time>2011-09-25T13:42:40Z</time>
      </trkpt>
      <trkpt lat="45.4772" lon="6.21746">
        <ele>1204.67</ele>
        <time>2011-09-25T13:42:41Z</time>
      </trkpt>
      <trkpt lat="45.47719" lon="6.21745">
        <ele>1203.71</ele>
        <time>2011-09-25T13:42:42Z</time>
      </trkpt>
      <trkpt lat="45.47702" lon="6.21731">
        <ele>1207.07</ele>
        <time>2011-09-25T13:42:56Z</time>
      </trkpt>
      <trkpt lat="45.47701" lon="6.21731">
        <ele>1208.03</ele>
        <time>2011-09-25T13:42:58Z</time>
      </trkpt>
      <trkpt lat="45.47695" lon="6.21724">
        <ele>1209.96</ele>
        <time>2011-09-25T13:43:13Z</time>
      </trkpt>
      <trkpt lat="45.47694" lon="6.21723">
        <ele>1209.96</ele>
        <time>2011-09-25T13:43:14Z</time>
      </trkpt>
      <trkpt lat="45.47681" lon="6.21718">
        <ele>1212.84</ele>
        <time>2011-09-25T13:43:29Z</time>
      </trkpt>
      <trkpt lat="45.47677" lon="6.21712">
        <ele>1215.72</ele>
        <time>2011-09-25T13:43:43Z</time>
      </trkpt>
      <trkpt lat="45.47671" lon="6.21706">
        <ele>1217.17</ele>
        <time>2011-09-25T13:44:01Z</time>
      </trkpt>
      <trkpt lat="45.47667" lon="6.217">
        <ele>1219.57</ele>
        <time>2011-09-25T13:44:16Z</time>
      </trkpt>
      <trkpt lat="45.4766" lon="6.21696">
        <ele>1222.93</ele>
        <time>2011-09-25T13:44:30Z</time>
      </trkpt>
      <trkpt lat="45.47649" lon="6.21688">
        <ele>1224.86</ele>
        <time>2011-09-25T13:44:46Z</time>
      </trkpt>
      <trkpt lat="45.47649" lon="6.21686">
        <ele>1225.34</ele>
        <time>2011-09-25T13:44:47Z</time>
      </trkpt>
      <trkpt lat="45.47648" lon="6.21685">
        <ele>1224.86</ele>
        <time>2011-09-25T13:44:49Z</time>
      </trkpt>
      <trkpt lat="45.47646" lon="6.21684">
        <ele>1228.22</ele>
        <time>2011-09-25T13:45:05Z</time>
      </trkpt>
      <trkpt lat="45.47642" lon="6.21686">
        <ele>1229.18</ele>
        <time>2011-09-25T13:45:10Z</time>
      </trkpt>
      <trkpt lat="45.4764" lon="6.21686">
        <ele>1228.22</ele>
        <time>2011-09-25T13:45:12Z</time>
      </trkpt>
      <trkpt lat="45.47638" lon="6.21687">
        <ele>1229.18</ele>
        <time>2011-09-25T13:45:15Z</time>
      </trkpt>
      <trkpt lat="45.47636" lon="6.21688">
        <ele>1229.66</ele>
        <time>2011-09-25T13:45:16Z</time>
      </trkpt>
      <trkpt lat="45.47635" lon="6.21688">
        <ele>1229.66</ele>
        <time>2011-09-25T13:45:17Z</time>
      </trkpt>
      <trkpt lat="45.47633" lon="6.21688">
        <ele>1230.14</ele>
        <time>2011-09-25T13:45:18Z</time>
      </trkpt>
      <trkpt lat="45.47632" lon="6.21689">
        <ele>1230.14</ele>
        <time>2011-09-25T13:45:19Z</time>
      </trkpt>
      <trkpt lat="45.4763" lon="6.217">
        <ele>1233.51</ele>
        <time>2011-09-25T13:45:36Z</time>
      </trkpt>
      <trkpt lat="45.47633" lon="6.21709">
        <ele>1235.91</ele>
        <time>2011-09-25T13:45:49Z</time>
      </trkpt>
      <trkpt lat="45.47635" lon="6.21715">
        <ele>1237.35</ele>
        <time>2011-09-25T13:46:01Z</time>
      </trkpt>
      <trkpt lat="45.47635" lon="6.21718">
        <ele>1238.32</ele>
        <time>2011-09-25T13:46:07Z</time>
      </trkpt>
      <trkpt lat="45.47636" lon="6.21723">
        <ele>1237.83</ele>
        <time>2011-09-25T13:46:10Z</time>
      </trkpt>
      <trkpt lat="45.47636" lon="6.21727">
        <ele>1238.32</ele>
        <time>2011-09-25T13:46:16Z</time>
      </trkpt>
      <trkpt lat="45.47637" lon="6.21737">
        <ele>1240.24</ele>
        <time>2011-09-25T13:46:27Z</time>
      </trkpt>
      <trkpt lat="45.47641" lon="6.21739">
        <ele>1240.72</ele>
        <time>2011-09-25T13:46:29Z</time>
      </trkpt>
      <trkpt lat="45.47642" lon="6.2174">
        <ele>1241.2</ele>
        <time>2011-09-25T13:46:49Z</time>
      </trkpt>
      <trkpt lat="45.47641" lon="6.21741">
        <ele>1241.68</ele>
        <time>2011-09-25T13:46:53Z</time>
      </trkpt>
      <trkpt lat="45.47643" lon="6.21746">
        <ele>1242.16</ele>
        <time>2011-09-25T13:46:57Z</time>
      </trkpt>
      <trkpt lat="45.47642" lon="6.21749">
        <ele>1242.64</ele>
        <time>2011-09-25T13:46:59Z</time>
      </trkpt>
      <trkpt lat="45.47642" lon="6.21751">
        <ele>1243.12</ele>
        <time>2011-09-25T13:47:00Z</time>
      </trkpt>
      <trkpt lat="45.47631" lon="6.21755">
        <ele>1246.01</ele>
        <time>2011-09-25T13:47:12Z</time>
      </trkpt>
      <trkpt lat="45.47629" lon="6.21757">
        <ele>1245.53</ele>
        <time>2011-09-25T13:47:14Z</time>
      </trkpt>
      <trkpt lat="45.47628" lon="6.21759">
        <ele>1245.53</ele>
        <time>2011-09-25T13:47:15Z</time>
      </trkpt>
      <trkpt lat="45.47629" lon="6.21761">
        <ele>1246.49</ele>
        <time>2011-09-25T13:47:16Z</time>
      </trkpt>
      <trkpt lat="45.47627" lon="6.21769">
        <ele>1248.41</ele>
        <time>2011-09-25T13:47:29Z</time>
      </trkpt>
      <trkpt lat="45.47629" lon="6.21778">
        <ele>1250.33</ele>
        <time>2011-09-25T13:47:41Z</time>
      </trkpt>
      <trkpt lat="45.47629" lon="6.21783">
        <ele>1251.77</ele>
        <time>2011-09-25T13:47:49Z</time>
      </trkpt>
      <trkpt lat="45.47627" lon="6.21794">
        <ele>1253.7</ele>
        <time>2011-09-25T13:48:02Z</time>
      </trkpt>
      <trkpt lat="45.47623" lon="6.21799">
        <ele>1255.62</ele>
        <time>2011-09-25T13:48:17Z</time>
      </trkpt>
      <trkpt lat="45.47622" lon="6.218">
        <ele>1256.58</ele>
        <time>2011-09-25T13:48:21Z</time>
      </trkpt>
      <trkpt lat="45.47621" lon="6.21806">
        <ele>1259.46</ele>
        <time>2011-09-25T13:48:34Z</time>
      </trkpt>
      <trkpt lat="45.47625" lon="6.21819">
        <ele>1262.35</ele>
        <time>2011-09-25T13:48:49Z</time>
      </trkpt>
      <trkpt lat="45.47626" lon="6.2182">
        <ele>1261.87</ele>
        <time>2011-09-25T13:48:50Z</time>
      </trkpt>
      <trkpt lat="45.47626" lon="6.21822">
        <ele>1261.87</ele>
        <time>2011-09-25T13:48:51Z</time>
      </trkpt>
      <trkpt lat="45.47628" lon="6.2183">
        <ele>1264.27</ele>
        <time>2011-09-25T13:48:59Z</time>
      </trkpt>
      <trkpt lat="45.47629" lon="6.21831">
        <ele>1263.31</ele>
        <time>2011-09-25T13:49:00Z</time>
      </trkpt>
      <trkpt lat="45.47629" lon="6.21834">
        <ele>1265.23</ele>
        <time>2011-09-25T13:49:05Z</time>
      </trkpt>
      <trkpt lat="45.47625" lon="6.21836">
        <ele>1267.16</ele>
        <time>2011-09-25T13:49:16Z</time>
      </trkpt>
      <trkpt lat="45.47624" lon="6.21838">
        <ele>1269.08</ele>
        <time>2011-09-25T13:49:27Z</time>
      </trkpt>
      <trkpt lat="45.47617" lon="6.21845">
        <ele>1271.48</ele>
        <time>2011-09-25T13:49:46Z</time>
      </trkpt>
      <trkpt lat="45.47595" lon="6.21849">
        <ele>1274.36</ele>
        <time>2011-09-25T13:50:03Z</time>
      </trkpt>
      <trkpt lat="45.47594" lon="6.21852">
        <ele>1276.29</ele>
        <time>2011-09-25T13:50:15Z</time>
      </trkpt>
      <trkpt lat="45.47596" lon="6.21849">
        <ele>1275.81</ele>
        <time>2011-09-25T13:50:23Z</time>
      </trkpt>
      <trkpt lat="45.47596" lon="6.21849">
        <ele>1276.29</ele>
        <time>2011-09-25T13:50:51Z</time>
      </trkpt>
      <trkpt lat="45.47598" lon="6.2185">
        <ele>1276.77</ele>
        <time>2011-09-25T13:51:23Z</time>
      </trkpt>
      <trkpt lat="45.47597" lon="6.21854">
        <ele>1276.77</ele>
        <time>2011-09-25T13:51:41Z</time>
      </trkpt>
      <trkpt lat="45.476" lon="6.21855">
        <ele>1276.77</ele>
        <time>2011-09-25T13:51:44Z</time>
      </trkpt>
      <trkpt lat="45.47602" lon="6.21855">
        <ele>1276.77</ele>
        <time>2011-09-25T13:52:20Z</time>
      </trkpt>
      <trkpt lat="45.47601" lon="6.21855">
        <ele>1277.25</ele>
        <time>2011-09-25T13:53:04Z</time>
      </trkpt>
      <trkpt lat="45.47601" lon="6.21855">
        <ele>1277.25</ele>
        <time>2011-09-25T13:53:37Z</time>
      </trkpt>
      <trkpt lat="45.47608" lon="6.21852">
        <ele>1279.65</ele>
        <time>2011-09-25T13:53:56Z</time>
      </trkpt>
      <trkpt lat="45.47608" lon="6.21852">
        <ele>1280.61</ele>
        <time>2011-09-25T13:53:57Z</time>
      </trkpt>
      <trkpt lat="45.47599" lon="6.21837">
        <ele>1283.02</ele>
        <time>2011-09-25T13:54:15Z</time>
      </trkpt>
      <trkpt lat="45.47598" lon="6.21836">
        <ele>1283.98</ele>
        <time>2011-09-25T13:54:21Z</time>
      </trkpt>
      <trkpt lat="45.47594" lon="6.21831">
        <ele>1285.42</ele>
        <time>2011-09-25T13:54:29Z</time>
      </trkpt>
      <trkpt lat="45.47583" lon="6.21827">
        <ele>1288.78</ele>
        <time>2011-09-25T13:54:45Z</time>
      </trkpt>
      <trkpt lat="45.47575" lon="6.21826">
        <ele>1290.71</ele>
        <time>2011-09-25T13:54:57Z</time>
      </trkpt>
      <trkpt lat="45.4757" lon="6.21814">
        <ele>1292.15</ele>
        <time>2011-09-25T13:55:07Z</time>
      </trkpt>
      <trkpt lat="45.47569" lon="6.21804">
        <ele>1295.03</ele>
        <time>2011-09-25T13:55:27Z</time>
      </trkpt>
      <trkpt lat="45.47566" lon="6.21796">
        <ele>1297.44</ele>
        <time>2011-09-25T13:55:42Z</time>
      </trkpt>
      <trkpt lat="45.47566" lon="6.21792">
        <ele>1297.92</ele>
        <time>2011-09-25T13:55:47Z</time>
      </trkpt>
      <trkpt lat="45.47564" lon="6.21788">
        <ele>1299.36</ele>
        <time>2011-09-25T13:55:50Z</time>
      </trkpt>
      <trkpt lat="45.47554" lon="6.21779">
        <ele>1301.76</ele>
        <time>2011-09-25T13:56:05Z</time>
      </trkpt>
      <trkpt lat="45.47551" lon="6.21773">
        <ele>1304.17</ele>
        <time>2011-09-25T13:56:19Z</time>
      </trkpt>
      <trkpt lat="45.47549" lon="6.21769">
        <ele>1305.61</ele>
        <time>2011-09-25T13:56:29Z</time>
      </trkpt>
      <trkpt lat="45.47544" lon="6.21765">
        <ele>1306.09</ele>
        <time>2011-09-25T13:56:34Z</time>
      </trkpt>
      <trkpt lat="45.47542" lon="6.21762">
        <ele>1307.05</ele>
        <time>2011-09-25T13:56:39Z</time>
      </trkpt>
      <trkpt lat="45.4754" lon="6.21761">
        <ele>1306.09</ele>
        <time>2011-09-25T13:56:41Z</time>
      </trkpt>
      <trkpt lat="45.47538" lon="6.21756">
        <ele>1308.97</ele>
        <time>2011-09-25T13:56:49Z</time>
      </trkpt>
      <trkpt lat="45.47532" lon="6.21748">
        <ele>1310.41</ele>
        <time>2011-09-25T13:56:58Z</time>
      </trkpt>
      <trkpt lat="45.47529" lon="6.21747">
        <ele>1310.9</ele>
        <time>2011-09-25T13:57:00Z</time>
      </trkpt>
      <trkpt lat="45.47524" lon="6.21745">
        <ele>1311.86</ele>
        <time>2011-09-25T13:57:05Z</time>
      </trkpt>
      <trkpt lat="45.47514" lon="6.21736">
        <ele>1314.26</ele>
        <time>2011-09-25T13:57:21Z</time>
      </trkpt>
      <trkpt lat="45.47512" lon="6.21734">
        <ele>1315.22</ele>
        <time>2011-09-25T13:57:29Z</time>
      </trkpt>
      <trkpt lat="45.47507" lon="6.2173">
        <ele>1317.14</ele>
        <time>2011-09-25T13:57:36Z</time>
      </trkpt>
      <trkpt lat="45.47493" lon="6.21726">
        <ele>1320.99</ele>
        <time>2011-09-25T13:57:48Z</time>
      </trkpt>
      <trkpt lat="45.47492" lon="6.21726">
        <ele>1319.07</ele>
        <time>2011-09-25T13:57:49Z</time>
      </trkpt>
      <trkpt lat="45.47479" lon="6.21726">
        <ele>1320.51</ele>
        <time>2011-09-25T13:58:20Z</time>
      </trkpt>
      <trkpt lat="45.47472" lon="6.21726">
        <ele>1320.03</ele>
        <time>2011-09-25T13:58:52Z</time>
      </trkpt>
      <trkpt lat="45.47474" lon="6.21724">
        <ele>1320.03</ele>
        <time>2011-09-25T13:59:15Z</time>
      </trkpt>
      <trkpt lat="45.47474" lon="6.21724">
        <ele>1319.55</ele>
        <time>2011-09-25T13:59:46Z</time>
      </trkpt>
      <trkpt lat="45.47474" lon="6.21721">
        <ele>1320.03</ele>
        <time>2011-09-25T14:00:10Z</time>
      </trkpt>
      <trkpt lat="45.47471" lon="6.21717">
        <ele>1322.43</ele>
        <time>2011-09-25T14:00:23Z</time>
      </trkpt>
      <trkpt lat="45.47474" lon="6.21712">
        <ele>1325.8</ele>
        <time>2011-09-25T14:00:36Z</time>
      </trkpt>
      <trkpt lat="45.47475" lon="6.2171">
        <ele>1327.24</ele>
        <time>2011-09-25T14:00:46Z</time>
      </trkpt>
      <trkpt lat="45.47473" lon="6.21711">
        <ele>1328.68</ele>
        <time>2011-09-25T14:00:48Z</time>
      </trkpt>
      <trkpt lat="45.4747" lon="6.21715">
        <ele>1329.16</ele>
        <time>2011-09-25T14:00:54Z</time>
      </trkpt>
      <trkpt lat="45.47462" lon="6.21733">
        <ele>1332.52</ele>
        <time>2011-09-25T14:01:10Z</time>
      </trkpt>
      <trkpt lat="45.47459" lon="6.21741">
        <ele>1333.49</ele>
        <time>2011-09-25T14:01:20Z</time>
      </trkpt>
      <trkpt lat="45.4746" lon="6.21745">
        <ele>1334.45</ele>
        <time>2011-09-25T14:01:25Z</time>
      </trkpt>
      <trkpt lat="45.47468" lon="6.21752">
        <ele>1335.89</ele>
        <time>2011-09-25T14:01:35Z</time>
      </trkpt>
      <trkpt lat="45.47472" lon="6.21756">
        <ele>1337.33</ele>
        <time>2011-09-25T14:01:39Z</time>
      </trkpt>
      <trkpt lat="45.47482" lon="6.21768">
        <ele>1339.25</ele>
        <time>2011-09-25T14:01:54Z</time>
      </trkpt>
      <trkpt lat="45.47481" lon="6.2177">
        <ele>1340.7</ele>
        <time>2011-09-25T14:01:58Z</time>
      </trkpt>
      <trkpt lat="45.47475" lon="6.21778">
        <ele>1343.1</ele>
        <time>2011-09-25T14:02:13Z</time>
      </trkpt>
      <trkpt lat="45.47475" lon="6.21784">
        <ele>1344.54</ele>
        <time>2011-09-25T14:02:19Z</time>
      </trkpt>
      <trkpt lat="45.47477" lon="6.21787">
        <ele>1345.02</ele>
        <time>2011-09-25T14:02:21Z</time>
      </trkpt>
      <trkpt lat="45.47484" lon="6.21793">
        <ele>1346.94</ele>
        <time>2011-09-25T14:02:37Z</time>
      </trkpt>
      <trkpt lat="45.47473" lon="6.21784">
        <ele>1349.35</ele>
        <time>2011-09-25T14:02:53Z</time>
      </trkpt>
      <trkpt lat="45.47453" lon="6.21777">
        <ele>1352.23</ele>
        <time>2011-09-25T14:03:08Z</time>
      </trkpt>
      <trkpt lat="45.47449" lon="6.21769">
        <ele>1354.63</ele>
        <time>2011-09-25T14:03:21Z</time>
      </trkpt>
      <trkpt lat="45.47443" lon="6.21766">
        <ele>1355.6</ele>
        <time>2011-09-25T14:03:27Z</time>
      </trkpt>
      <trkpt lat="45.47435" lon="6.21778">
        <ele>1358</ele>
        <time>2011-09-25T14:03:44Z</time>
      </trkpt>
      <trkpt lat="45.47434" lon="6.21778">
        <ele>1358.96</ele>
        <time>2011-09-25T14:03:45Z</time>
      </trkpt>
      <trkpt lat="45.47432" lon="6.2178">
        <ele>1358.48</ele>
        <time>2011-09-25T14:03:46Z</time>
      </trkpt>
      <trkpt lat="45.47431" lon="6.21783">
        <ele>1358.96</ele>
        <time>2011-09-25T14:03:50Z</time>
      </trkpt>
      <trkpt lat="45.47431" lon="6.21793">
        <ele>1361.84</ele>
        <time>2011-09-25T14:04:05Z</time>
      </trkpt>
      <trkpt lat="45.47432" lon="6.21794">
        <ele>1362.81</ele>
        <time>2011-09-25T14:04:07Z</time>
      </trkpt>
      <trkpt lat="45.47435" lon="6.21804">
        <ele>1364.73</ele>
        <time>2011-09-25T14:04:21Z</time>
      </trkpt>
      <trkpt lat="45.47436" lon="6.21806">
        <ele>1365.69</ele>
        <time>2011-09-25T14:04:26Z</time>
      </trkpt>
      <trkpt lat="45.4744" lon="6.21811">
        <ele>1367.13</ele>
        <time>2011-09-25T14:04:31Z</time>
      </trkpt>
      <trkpt lat="45.47444" lon="6.21822">
        <ele>1369.05</ele>
        <time>2011-09-25T14:04:41Z</time>
      </trkpt>
      <trkpt lat="45.47447" lon="6.21824">
        <ele>1369.54</ele>
        <time>2011-09-25T14:04:46Z</time>
      </trkpt>
      <trkpt lat="45.47451" lon="6.21825">
        <ele>1369.05</ele>
        <time>2011-09-25T14:05:04Z</time>
      </trkpt>
      <trkpt lat="45.47451" lon="6.21826">
        <ele>1369.05</ele>
        <time>2011-09-25T14:05:23Z</time>
      </trkpt>
      <trkpt lat="45.47451" lon="6.21826">
        <ele>1369.54</ele>
        <time>2011-09-25T14:05:25Z</time>
      </trkpt>
      <trkpt lat="45.47452" lon="6.21886">
        <ele>1365.21</ele>
        <time>2011-09-25T14:05:37Z</time>
      </trkpt>
      <trkpt lat="45.47453" lon="6.21895">
        <ele>1364.73</ele>
        <time>2011-09-25T14:05:38Z</time>
      </trkpt>
      <trkpt lat="45.47447" lon="6.21948">
        <ele>1361.84</ele>
        <time>2011-09-25T14:05:43Z</time>
      </trkpt>
      <trkpt lat="45.47446" lon="6.21958">
        <ele>1360.88</ele>
        <time>2011-09-25T14:05:44Z</time>
      </trkpt>
      <trkpt lat="45.47442" lon="6.21984">
        <ele>1358</ele>
        <time>2011-09-25T14:05:47Z</time>
      </trkpt>
      <trkpt lat="45.47442" lon="6.21992">
        <ele>1357.04</ele>
        <time>2011-09-25T14:05:48Z</time>
      </trkpt>
      <trkpt lat="45.47442" lon="6.22001">
        <ele>1356.08</ele>
        <time>2011-09-25T14:05:49Z</time>
      </trkpt>
      <trkpt lat="45.47442" lon="6.2202">
        <ele>1355.6</ele>
        <time>2011-09-25T14:05:51Z</time>
      </trkpt>
      <trkpt lat="45.47442" lon="6.22053">
        <ele>1353.67</ele>
        <time>2011-09-25T14:05:54Z</time>
      </trkpt>
      <trkpt lat="45.47444" lon="6.22103">
        <ele>1350.31</ele>
        <time>2011-09-25T14:05:59Z</time>
      </trkpt>
      <trkpt lat="45.47446" lon="6.22117">
        <ele>1349.35</ele>
        <time>2011-09-25T14:06:00Z</time>
      </trkpt>
      <trkpt lat="45.47448" lon="6.22125">
        <ele>1348.87</ele>
        <time>2011-09-25T14:06:01Z</time>
      </trkpt>
      <trkpt lat="45.47451" lon="6.22134">
        <ele>1348.39</ele>
        <time>2011-09-25T14:06:02Z</time>
      </trkpt>
      <trkpt lat="45.47455" lon="6.22145">
        <ele>1347.43</ele>
        <time>2011-09-25T14:06:03Z</time>
      </trkpt>
      <trkpt lat="45.47458" lon="6.22151">
        <ele>1345.98</ele>
        <time>2011-09-25T14:06:04Z</time>
      </trkpt>
      <trkpt lat="45.47465" lon="6.22166">
        <ele>1345.02</ele>
        <time>2011-09-25T14:06:06Z</time>
      </trkpt>
      <trkpt lat="45.47477" lon="6.22188">
        <ele>1343.1</ele>
        <time>2011-09-25T14:06:09Z</time>
      </trkpt>
      <trkpt lat="45.47486" lon="6.22201">
        <ele>1341.66</ele>
        <time>2011-09-25T14:06:11Z</time>
      </trkpt>
      <trkpt lat="45.47511" lon="6.22227">
        <ele>1338.29</ele>
        <time>2011-09-25T14:06:15Z</time>
      </trkpt>
      <trkpt lat="45.47526" lon="6.22243">
        <ele>1336.85</ele>
        <time>2011-09-25T14:06:17Z</time>
      </trkpt>
      <trkpt lat="45.47562" lon="6.22284">
        <ele>1333.49</ele>
        <time>2011-09-25T14:06:22Z</time>
      </trkpt>
      <trkpt lat="45.47575" lon="6.22303">
        <ele>1331.08</ele>
        <time>2011-09-25T14:06:24Z</time>
      </trkpt>
      <trkpt lat="45.47582" lon="6.22311">
        <ele>1329.64</ele>
        <time>2011-09-25T14:06:25Z</time>
      </trkpt>
      <trkpt lat="45.47595" lon="6.22334">
        <ele>1326.76</ele>
        <time>2011-09-25T14:06:28Z</time>
      </trkpt>
      <trkpt lat="45.47601" lon="6.22341">
        <ele>1325.8</ele>
        <time>2011-09-25T14:06:29Z</time>
      </trkpt>
      <trkpt lat="45.47606" lon="6.22346">
        <ele>1324.83</ele>
        <time>2011-09-25T14:06:30Z</time>
      </trkpt>
      <trkpt lat="45.47611" lon="6.2235">
        <ele>1323.87</ele>
        <time>2011-09-25T14:06:31Z</time>
      </trkpt>
      <trkpt lat="45.47622" lon="6.22354">
        <ele>1322.91</ele>
        <time>2011-09-25T14:06:33Z</time>
      </trkpt>
      <trkpt lat="45.47628" lon="6.22354">
        <ele>1322.43</ele>
        <time>2011-09-25T14:06:34Z</time>
      </trkpt>
      <trkpt lat="45.47635" lon="6.22354">
        <ele>1321.95</ele>
        <time>2011-09-25T14:06:35Z</time>
      </trkpt>
      <trkpt lat="45.47638" lon="6.22354">
        <ele>1320.99</ele>
        <time>2011-09-25T14:06:36Z</time>
      </trkpt>
      <trkpt lat="45.47648" lon="6.22358">
        <ele>1320.03</ele>
        <time>2011-09-25T14:06:37Z</time>
      </trkpt>
      <trkpt lat="45.47669" lon="6.2237">
        <ele>1316.66</ele>
        <time>2011-09-25T14:06:40Z</time>
      </trkpt>
      <trkpt lat="45.47678" lon="6.22375">
        <ele>1316.66</ele>
        <time>2011-09-25T14:06:41Z</time>
      </trkpt>
      <trkpt lat="45.47712" lon="6.22403">
        <ele>1313.78</ele>
        <time>2011-09-25T14:06:46Z</time>
      </trkpt>
      <trkpt lat="45.47755" lon="6.22435">
        <ele>1309.93</ele>
        <time>2011-09-25T14:06:51Z</time>
      </trkpt>
      <trkpt lat="45.47773" lon="6.22449">
        <ele>1308.97</ele>
        <time>2011-09-25T14:06:53Z</time>
      </trkpt>
      <trkpt lat="45.47792" lon="6.22463">
        <ele>1307.53</ele>
        <time>2011-09-25T14:06:55Z</time>
      </trkpt>
      <trkpt lat="45.47826" lon="6.22489">
        <ele>1304.65</ele>
        <time>2011-09-25T14:06:59Z</time>
      </trkpt>
      <trkpt lat="45.47855" lon="6.22511">
        <ele>1302.24</ele>
        <time>2011-09-25T14:07:02Z</time>
      </trkpt>
      <trkpt lat="45.47869" lon="6.22521">
        <ele>1300.8</ele>
        <time>2011-09-25T14:07:04Z</time>
      </trkpt>
      <trkpt lat="45.47869" lon="6.22521">
        <ele>1300.32</ele>
        <time>2011-09-25T14:07:05Z</time>
      </trkpt>
      <trkpt lat="45.47864" lon="6.22519">
        <ele>1300.32</ele>
        <time>2011-09-25T14:07:06Z</time>
      </trkpt>
      <trkpt lat="45.47858" lon="6.22517">
        <ele>1299.84</ele>
        <time>2011-09-25T14:07:07Z</time>
      </trkpt>
      <trkpt lat="45.47836" lon="6.22515">
        <ele>1298.88</ele>
        <time>2011-09-25T14:07:08Z</time>
      </trkpt>
      <trkpt lat="45.47835" lon="6.22513">
        <ele>1298.88</ele>
        <time>2011-09-25T14:07:09Z</time>
      </trkpt>
      <trkpt lat="45.47826" lon="6.22513">
        <ele>1298.88</ele>
        <time>2011-09-25T14:07:25Z</time>
      </trkpt>
      <trkpt lat="45.47826" lon="6.22513">
        <ele>1300.32</ele>
        <time>2011-09-25T14:07:53Z</time>
      </trkpt>
      <trkpt lat="45.47845" lon="6.2252">
        <ele>1298.4</ele>
        <time>2011-09-25T14:08:01Z</time>
      </trkpt>
      <trkpt lat="45.47885" lon="6.22526">
        <ele>1294.07</ele>
        <time>2011-09-25T14:08:07Z</time>
      </trkpt>
      <trkpt lat="45.47892" lon="6.22527">
        <ele>1294.07</ele>
        <time>2011-09-25T14:08:08Z</time>
      </trkpt>
      <trkpt lat="45.479" lon="6.22528">
        <ele>1293.59</ele>
        <time>2011-09-25T14:08:09Z</time>
      </trkpt>
      <trkpt lat="45.47907" lon="6.22531">
        <ele>1292.63</ele>
        <time>2011-09-25T14:08:10Z</time>
      </trkpt>
      <trkpt lat="45.47915" lon="6.22535">
        <ele>1292.15</ele>
        <time>2011-09-25T14:08:11Z</time>
      </trkpt>
      <trkpt lat="45.4794" lon="6.2255">
        <ele>1289.27</ele>
        <time>2011-09-25T14:08:14Z</time>
      </trkpt>
      <trkpt lat="45.47949" lon="6.22552">
        <ele>1287.82</ele>
        <time>2011-09-25T14:08:15Z</time>
      </trkpt>
      <trkpt lat="45.47953" lon="6.22553">
        <ele>1287.82</ele>
        <time>2011-09-25T14:08:16Z</time>
      </trkpt>
      <trkpt lat="45.47963" lon="6.2255">
        <ele>1287.82</ele>
        <time>2011-09-25T14:08:17Z</time>
      </trkpt>
      <trkpt lat="45.47969" lon="6.22545">
        <ele>1286.86</ele>
        <time>2011-09-25T14:08:18Z</time>
      </trkpt>
      <trkpt lat="45.47981" lon="6.22535">
        <ele>1285.9</ele>
        <time>2011-09-25T14:08:20Z</time>
      </trkpt>
      <trkpt lat="45.47986" lon="6.22532">
        <ele>1284.94</ele>
        <time>2011-09-25T14:08:21Z</time>
      </trkpt>
      <trkpt lat="45.47992" lon="6.22531">
        <ele>1284.46</ele>
        <time>2011-09-25T14:08:22Z</time>
      </trkpt>
      <trkpt lat="45.47997" lon="6.2253">
        <ele>1283.98</ele>
        <time>2011-09-25T14:08:23Z</time>
      </trkpt>
      <trkpt lat="45.48003" lon="6.22531">
        <ele>1282.54</ele>
        <time>2011-09-25T14:08:24Z</time>
      </trkpt>
      <trkpt lat="45.48038" lon="6.22536">
        <ele>1279.65</ele>
        <time>2011-09-25T14:08:29Z</time>
      </trkpt>
      <trkpt lat="45.48045" lon="6.22536">
        <ele>1278.69</ele>
        <time>2011-09-25T14:08:30Z</time>
      </trkpt>
      <trkpt lat="45.48054" lon="6.22539">
        <ele>1277.73</ele>
        <time>2011-09-25T14:08:31Z</time>
      </trkpt>
      <trkpt lat="45.48062" lon="6.22542">
        <ele>1276.29</ele>
        <time>2011-09-25T14:08:32Z</time>
      </trkpt>
      <trkpt lat="45.4807" lon="6.22548">
        <ele>1275.33</ele>
        <time>2011-09-25T14:08:33Z</time>
      </trkpt>
      <trkpt lat="45.4808" lon="6.22555">
        <ele>1274.36</ele>
        <time>2011-09-25T14:08:34Z</time>
      </trkpt>
      <trkpt lat="45.48106" lon="6.22577">
        <ele>1271.96</ele>
        <time>2011-09-25T14:08:37Z</time>
      </trkpt>
      <trkpt lat="45.48134" lon="6.22603">
        <ele>1268.6</ele>
        <time>2011-09-25T14:08:40Z</time>
      </trkpt>
      <trkpt lat="45.4814" lon="6.2261">
        <ele>1267.64</ele>
        <time>2011-09-25T14:08:41Z</time>
      </trkpt>
      <trkpt lat="45.48181" lon="6.22653">
        <ele>1264.75</ele>
        <time>2011-09-25T14:08:47Z</time>
      </trkpt>
      <trkpt lat="45.48187" lon="6.22694">
        <ele>1263.79</ele>
        <time>2011-09-25T14:08:55Z</time>
      </trkpt>
      <trkpt lat="45.48195" lon="6.22713">
        <ele>1263.31</ele>
        <time>2011-09-25T14:08:58Z</time>
      </trkpt>
      <trkpt lat="45.48199" lon="6.22723">
        <ele>1262.35</ele>
        <time>2011-09-25T14:09:00Z</time>
      </trkpt>
      <trkpt lat="45.48198" lon="6.22728">
        <ele>1262.35</ele>
        <time>2011-09-25T14:09:01Z</time>
      </trkpt>
      <trkpt lat="45.48202" lon="6.22748">
        <ele>1261.39</ele>
        <time>2011-09-25T14:09:05Z</time>
      </trkpt>
      <trkpt lat="45.48221" lon="6.22794">
        <ele>1259.46</ele>
        <time>2011-09-25T14:09:11Z</time>
      </trkpt>
      <trkpt lat="45.48235" lon="6.22828">
        <ele>1256.1</ele>
        <time>2011-09-25T14:09:14Z</time>
      </trkpt>
      <trkpt lat="45.48259" lon="6.22899">
        <ele>1252.74</ele>
        <time>2011-09-25T14:09:20Z</time>
      </trkpt>
      <trkpt lat="45.48271" lon="6.22928">
        <ele>1252.25</ele>
        <time>2011-09-25T14:09:23Z</time>
      </trkpt>
      <trkpt lat="45.48272" lon="6.22936">
        <ele>1250.81</ele>
        <time>2011-09-25T14:09:24Z</time>
      </trkpt>
      <trkpt lat="45.48282" lon="6.22998">
        <ele>1249.37</ele>
        <time>2011-09-25T14:09:32Z</time>
      </trkpt>
      <trkpt lat="45.48286" lon="6.23021">
        <ele>1249.85</ele>
        <time>2011-09-25T14:09:34Z</time>
      </trkpt>
      <trkpt lat="45.48289" lon="6.23095">
        <ele>1247.45</ele>
        <time>2011-09-25T14:09:42Z</time>
      </trkpt>
      <trkpt lat="45.48332" lon="6.23151">
        <ele>1245.04</ele>
        <time>2011-09-25T14:09:51Z</time>
      </trkpt>
      <trkpt lat="45.48341" lon="6.23153">
        <ele>1244.08</ele>
        <time>2011-09-25T14:09:52Z</time>
      </trkpt>
      <trkpt lat="45.48349" lon="6.23154">
        <ele>1244.08</ele>
        <time>2011-09-25T14:09:53Z</time>
      </trkpt>
      <trkpt lat="45.48357" lon="6.23155">
        <ele>1243.6</ele>
        <time>2011-09-25T14:09:54Z</time>
      </trkpt>
      <trkpt lat="45.48365" lon="6.23154">
        <ele>1243.12</ele>
        <time>2011-09-25T14:09:55Z</time>
      </trkpt>
      <trkpt lat="45.48384" lon="6.23153">
        <ele>1242.64</ele>
        <time>2011-09-25T14:09:58Z</time>
      </trkpt>
      <trkpt lat="45.48392" lon="6.23163">
        <ele>1242.64</ele>
        <time>2011-09-25T14:10:06Z</time>
      </trkpt>
      <trkpt lat="45.48388" lon="6.23165">
        <ele>1242.16</ele>
        <time>2011-09-25T14:10:08Z</time>
      </trkpt>
      <trkpt lat="45.48386" lon="6.23165">
        <ele>1242.16</ele>
        <time>2011-09-25T14:10:24Z</time>
      </trkpt>
      <trkpt lat="45.48385" lon="6.23166">
        <ele>1242.16</ele>
        <time>2011-09-25T14:10:25Z</time>
      </trkpt>
      <trkpt lat="45.48386" lon="6.23168">
        <ele>1243.12</ele>
        <time>2011-09-25T14:10:26Z</time>
      </trkpt>
      <trkpt lat="45.48388" lon="6.23172">
        <ele>1242.64</ele>
        <time>2011-09-25T14:10:27Z</time>
      </trkpt>
      <trkpt lat="45.4839" lon="6.23177">
        <ele>1242.64</ele>
        <time>2011-09-25T14:10:28Z</time>
      </trkpt>
      <trkpt lat="45.4841" lon="6.23243">
        <ele>1238.32</ele>
        <time>2011-09-25T14:10:35Z</time>
      </trkpt>
      <trkpt lat="45.48421" lon="6.23277">
        <ele>1235.91</ele>
        <time>2011-09-25T14:10:38Z</time>
      </trkpt>
      <trkpt lat="45.4843" lon="6.23301">
        <ele>1233.51</ele>
        <time>2011-09-25T14:10:40Z</time>
      </trkpt>
      <trkpt lat="45.48433" lon="6.23313">
        <ele>1231.59</ele>
        <time>2011-09-25T14:10:41Z</time>
      </trkpt>
      <trkpt lat="45.48443" lon="6.2335">
        <ele>1228.7</ele>
        <time>2011-09-25T14:10:44Z</time>
      </trkpt>
      <trkpt lat="45.48452" lon="6.23379">
        <ele>1227.26</ele>
        <time>2011-09-25T14:10:47Z</time>
      </trkpt>
      <trkpt lat="45.48457" lon="6.23386">
        <ele>1226.78</ele>
        <time>2011-09-25T14:10:48Z</time>
      </trkpt>
      <trkpt lat="45.48462" lon="6.23392">
        <ele>1225.82</ele>
        <time>2011-09-25T14:10:49Z</time>
      </trkpt>
      <trkpt lat="45.48465" lon="6.23396">
        <ele>1225.34</ele>
        <time>2011-09-25T14:10:50Z</time>
      </trkpt>
      <trkpt lat="45.4846" lon="6.23401">
        <ele>1225.34</ele>
        <time>2011-09-25T14:10:51Z</time>
      </trkpt>
      <trkpt lat="45.48465" lon="6.23409">
        <ele>1223.42</ele>
        <time>2011-09-25T14:10:54Z</time>
      </trkpt>
      <trkpt lat="45.48478" lon="6.23417">
        <ele>1220.53</ele>
        <time>2011-09-25T14:10:58Z</time>
      </trkpt>
      <trkpt lat="45.48535" lon="6.23427">
        <ele>1217.65</ele>
        <time>2011-09-25T14:11:07Z</time>
      </trkpt>
      <trkpt lat="45.48541" lon="6.23428">
        <ele>1217.65</ele>
        <time>2011-09-25T14:11:08Z</time>
      </trkpt>
      <trkpt lat="45.48547" lon="6.23428">
        <ele>1215.72</ele>
        <time>2011-09-25T14:11:09Z</time>
      </trkpt>
      <trkpt lat="45.48559" lon="6.2343">
        <ele>1215.72</ele>
        <time>2011-09-25T14:11:11Z</time>
      </trkpt>
      <trkpt lat="45.48565" lon="6.23433">
        <ele>1215.24</ele>
        <time>2011-09-25T14:11:12Z</time>
      </trkpt>
      <trkpt lat="45.48587" lon="6.23447">
        <ele>1212.36</ele>
        <time>2011-09-25T14:11:16Z</time>
      </trkpt>
      <trkpt lat="45.48613" lon="6.2346">
        <ele>1209.96</ele>
        <time>2011-09-25T14:11:20Z</time>
      </trkpt>
      <trkpt lat="45.4862" lon="6.23464">
        <ele>1209.96</ele>
        <time>2011-09-25T14:11:21Z</time>
      </trkpt>
      <trkpt lat="45.48627" lon="6.23469">
        <ele>1208.51</ele>
        <time>2011-09-25T14:11:22Z</time>
      </trkpt>
      <trkpt lat="45.48633" lon="6.23474">
        <ele>1206.59</ele>
        <time>2011-09-25T14:11:23Z</time>
      </trkpt>
      <trkpt lat="45.4865" lon="6.23492">
        <ele>1205.63</ele>
        <time>2011-09-25T14:11:26Z</time>
      </trkpt>
      <trkpt lat="45.48656" lon="6.23495">
        <ele>1203.71</ele>
        <time>2011-09-25T14:11:27Z</time>
      </trkpt>
      <trkpt lat="45.48661" lon="6.23496">
        <ele>1204.19</ele>
        <time>2011-09-25T14:11:28Z</time>
      </trkpt>
      <trkpt lat="45.48693" lon="6.23498">
        <ele>1203.71</ele>
        <time>2011-09-25T14:11:40Z</time>
      </trkpt>
      <trkpt lat="45.48686" lon="6.23498">
        <ele>1204.67</ele>
        <time>2011-09-25T14:11:58Z</time>
      </trkpt>
      <trkpt lat="45.48685" lon="6.23499">
        <ele>1205.63</ele>
        <time>2011-09-25T14:12:20Z</time>
      </trkpt>
      <trkpt lat="45.48686" lon="6.23501">
        <ele>1205.63</ele>
        <time>2011-09-25T14:12:21Z</time>
      </trkpt>
      <trkpt lat="45.48692" lon="6.23513">
        <ele>1205.15</ele>
        <time>2011-09-25T14:12:24Z</time>
      </trkpt>
      <trkpt lat="45.48702" lon="6.23529">
        <ele>1204.19</ele>
        <time>2011-09-25T14:12:27Z</time>
      </trkpt>
      <trkpt lat="45.48705" lon="6.23533">
        <ele>1203.23</ele>
        <time>2011-09-25T14:12:28Z</time>
      </trkpt>
      <trkpt lat="45.48712" lon="6.23537">
        <ele>1203.23</ele>
        <time>2011-09-25T14:12:29Z</time>
      </trkpt>
      <trkpt lat="45.48716" lon="6.23541">
        <ele>1203.23</ele>
        <time>2011-09-25T14:12:30Z</time>
      </trkpt>
      <trkpt lat="45.48719" lon="6.23544">
        <ele>1201.79</ele>
        <time>2011-09-25T14:12:31Z</time>
      </trkpt>
      <trkpt lat="45.48731" lon="6.23551">
        <ele>1201.3</ele>
        <time>2011-09-25T14:12:33Z</time>
      </trkpt>
      <trkpt lat="45.48746" lon="6.23559">
        <ele>1199.38</ele>
        <time>2011-09-25T14:12:35Z</time>
      </trkpt>
      <trkpt lat="45.48777" lon="6.23575">
        <ele>1196.98</ele>
        <time>2011-09-25T14:12:39Z</time>
      </trkpt>
      <trkpt lat="45.4878" lon="6.23576">
        <ele>1196.5</ele>
        <time>2011-09-25T14:12:40Z</time>
      </trkpt>
      <trkpt lat="45.48787" lon="6.23574">
        <ele>1196.02</ele>
        <time>2011-09-25T14:12:41Z</time>
      </trkpt>
      <trkpt lat="45.48794" lon="6.23574">
        <ele>1194.09</ele>
        <time>2011-09-25T14:12:42Z</time>
      </trkpt>
      <trkpt lat="45.48802" lon="6.23575">
        <ele>1193.61</ele>
        <time>2011-09-25T14:12:43Z</time>
      </trkpt>
      <trkpt lat="45.48809" lon="6.23579">
        <ele>1193.13</ele>
        <time>2011-09-25T14:12:44Z</time>
      </trkpt>
      <trkpt lat="45.48818" lon="6.23585">
        <ele>1191.69</ele>
        <time>2011-09-25T14:12:45Z</time>
      </trkpt>
      <trkpt lat="45.48834" lon="6.23601">
        <ele>1190.73</ele>
        <time>2011-09-25T14:12:47Z</time>
      </trkpt>
      <trkpt lat="45.48838" lon="6.23608">
        <ele>1190.25</ele>
        <time>2011-09-25T14:12:48Z</time>
      </trkpt>
      <trkpt lat="45.48843" lon="6.23614">
        <ele>1188.81</ele>
        <time>2011-09-25T14:12:49Z</time>
      </trkpt>
      <trkpt lat="45.48846" lon="6.23621">
        <ele>1188.81</ele>
        <time>2011-09-25T14:12:50Z</time>
      </trkpt>
      <trkpt lat="45.48852" lon="6.23631">
        <ele>1187.85</ele>
        <time>2011-09-25T14:12:52Z</time>
      </trkpt>
      <trkpt lat="45.48853" lon="6.23635">
        <ele>1186.88</ele>
        <time>2011-09-25T14:12:53Z</time>
      </trkpt>
      <trkpt lat="45.48852" lon="6.23646">
        <ele>1185.44</ele>
        <time>2011-09-25T14:12:56Z</time>
      </trkpt>
      <trkpt lat="45.48869" lon="6.2366">
        <ele>1183.52</ele>
        <time>2011-09-25T14:13:00Z</time>
      </trkpt>
      <trkpt lat="45.48878" lon="6.23667">
        <ele>1183.04</ele>
        <time>2011-09-25T14:13:02Z</time>
      </trkpt>
      <trkpt lat="45.48882" lon="6.23672">
        <ele>1182.08</ele>
        <time>2011-09-25T14:13:03Z</time>
      </trkpt>
      <trkpt lat="45.48885" lon="6.23678">
        <ele>1181.6</ele>
        <time>2011-09-25T14:13:04Z</time>
      </trkpt>
      <trkpt lat="45.48888" lon="6.23684">
        <ele>1180.64</ele>
        <time>2011-09-25T14:13:05Z</time>
      </trkpt>
      <trkpt lat="45.48892" lon="6.23689">
        <ele>1180.64</ele>
        <time>2011-09-25T14:13:06Z</time>
      </trkpt>
      <trkpt lat="45.48894" lon="6.23696">
        <ele>1180.64</ele>
        <time>2011-09-25T14:13:07Z</time>
      </trkpt>
      <trkpt lat="45.48897" lon="6.23708">
        <ele>1179.19</ele>
        <time>2011-09-25T14:13:09Z</time>
      </trkpt>
      <trkpt lat="45.48914" lon="6.23768">
        <ele>1176.31</ele>
        <time>2011-09-25T14:13:18Z</time>
      </trkpt>
      <trkpt lat="45.48917" lon="6.23772">
        <ele>1176.79</ele>
        <time>2011-09-25T14:13:19Z</time>
      </trkpt>
      <trkpt lat="45.48922" lon="6.23775">
        <ele>1176.79</ele>
        <time>2011-09-25T14:13:20Z</time>
      </trkpt>
      <trkpt lat="45.48924" lon="6.23778">
        <ele>1176.31</ele>
        <time>2011-09-25T14:13:21Z</time>
      </trkpt>
      <trkpt lat="45.48927" lon="6.23779">
        <ele>1176.31</ele>
        <time>2011-09-25T14:13:22Z</time>
      </trkpt>
      <trkpt lat="45.48935" lon="6.23782">
        <ele>1176.79</ele>
        <time>2011-09-25T14:13:24Z</time>
      </trkpt>
      <trkpt lat="45.4894" lon="6.23784">
        <ele>1175.83</ele>
        <time>2011-09-25T14:13:25Z</time>
      </trkpt>
      <trkpt lat="45.48945" lon="6.23784">
        <ele>1176.31</ele>
        <time>2011-09-25T14:13:26Z</time>
      </trkpt>
      <trkpt lat="45.48956" lon="6.23785">
        <ele>1172.95</ele>
        <time>2011-09-25T14:13:33Z</time>
      </trkpt>
      <trkpt lat="45.48973" lon="6.23784">
        <ele>1171.02</ele>
        <time>2011-09-25T14:13:45Z</time>
      </trkpt>
      <trkpt lat="45.48976" lon="6.23785">
        <ele>1170.06</ele>
        <time>2011-09-25T14:13:58Z</time>
      </trkpt>
      <trkpt lat="45.48976" lon="6.23785">
        <ele>1171.5</ele>
        <time>2011-09-25T14:14:25Z</time>
      </trkpt>
      <trkpt lat="45.48976" lon="6.23784">
        <ele>1171.02</ele>
        <time>2011-09-25T14:14:52Z</time>
      </trkpt>
      <trkpt lat="45.48977" lon="6.23784">
        <ele>1171.5</ele>
        <time>2011-09-25T14:15:02Z</time>
      </trkpt>
      <trkpt lat="45.48985" lon="6.23786">
        <ele>1171.5</ele>
        <time>2011-09-25T14:15:04Z</time>
      </trkpt>
      <trkpt lat="45.48994" lon="6.23791">
        <ele>1170.54</ele>
        <time>2011-09-25T14:15:06Z</time>
      </trkpt>
      <trkpt lat="45.49006" lon="6.23795">
        <ele>1169.58</ele>
        <time>2011-09-25T14:15:08Z</time>
      </trkpt>
      <trkpt lat="45.49012" lon="6.23797">
        <ele>1168.62</ele>
        <time>2011-09-25T14:15:09Z</time>
      </trkpt>
      <trkpt lat="45.49018" lon="6.238">
        <ele>1168.62</ele>
        <time>2011-09-25T14:15:10Z</time>
      </trkpt>
      <trkpt lat="45.49036" lon="6.23812">
        <ele>1167.18</ele>
        <time>2011-09-25T14:15:13Z</time>
      </trkpt>
      <trkpt lat="45.49074" lon="6.23859">
        <ele>1163.81</ele>
        <time>2011-09-25T14:15:20Z</time>
      </trkpt>
      <trkpt lat="45.49083" lon="6.23872">
        <ele>1160.93</ele>
        <time>2011-09-25T14:15:22Z</time>
      </trkpt>
      <trkpt lat="45.49093" lon="6.23883">
        <ele>1159.49</ele>
        <time>2011-09-25T14:15:23Z</time>
      </trkpt>
      <trkpt lat="45.49116" lon="6.23916">
        <ele>1156.12</ele>
        <time>2011-09-25T14:15:27Z</time>
      </trkpt>
      <trkpt lat="45.49123" lon="6.23925">
        <ele>1155.16</ele>
        <time>2011-09-25T14:15:28Z</time>
      </trkpt>
      <trkpt lat="45.49127" lon="6.23947">
        <ele>1152.28</ele>
        <time>2011-09-25T14:15:31Z</time>
      </trkpt>
      <trkpt lat="45.49128" lon="6.23954">
        <ele>1151.8</ele>
        <time>2011-09-25T14:15:32Z</time>
      </trkpt>
      <trkpt lat="45.4913" lon="6.23978">
        <ele>1148.43</ele>
        <time>2011-09-25T14:15:37Z</time>
      </trkpt>
      <trkpt lat="45.49129" lon="6.23979">
        <ele>1148.91</ele>
        <time>2011-09-25T14:16:01Z</time>
      </trkpt>
      <trkpt lat="45.49128" lon="6.23979">
        <ele>1149.87</ele>
        <time>2011-09-25T14:16:35Z</time>
      </trkpt>
      <trkpt lat="45.49128" lon="6.23979">
        <ele>1149.87</ele>
        <time>2011-09-25T14:17:01Z</time>
      </trkpt>
      <trkpt lat="45.49128" lon="6.23979">
        <ele>1150.84</ele>
        <time>2011-09-25T14:17:17Z</time>
      </trkpt>
      <trkpt lat="45.49122" lon="6.23979">
        <ele>1150.84</ele>
        <time>2011-09-25T14:17:34Z</time>
      </trkpt>
      <trkpt lat="45.49122" lon="6.23977">
        <ele>1151.32</ele>
        <time>2011-09-25T14:17:35Z</time>
      </trkpt>
      <trkpt lat="45.49116" lon="6.2395">
        <ele>1153.72</ele>
        <time>2011-09-25T14:17:46Z</time>
      </trkpt>
      <trkpt lat="45.49113" lon="6.23929">
        <ele>1156.12</ele>
        <time>2011-09-25T14:17:53Z</time>
      </trkpt>
      <trkpt lat="45.491" lon="6.23895">
        <ele>1158.53</ele>
        <time>2011-09-25T14:18:07Z</time>
      </trkpt>
      <trkpt lat="45.49083" lon="6.23873">
        <ele>1161.41</ele>
        <time>2011-09-25T14:18:20Z</time>
      </trkpt>
      <trkpt lat="45.4908" lon="6.23866">
        <ele>1163.33</ele>
        <time>2011-09-25T14:18:23Z</time>
      </trkpt>
      <trkpt lat="45.49079" lon="6.23864">
        <ele>1162.85</ele>
        <time>2011-09-25T14:18:24Z</time>
      </trkpt>
      <trkpt lat="45.49077" lon="6.23863">
        <ele>1162.37</ele>
        <time>2011-09-25T14:18:25Z</time>
      </trkpt>
      <trkpt lat="45.49076" lon="6.23861">
        <ele>1162.85</ele>
        <time>2011-09-25T14:18:26Z</time>
      </trkpt>
      <trkpt lat="45.49075" lon="6.2386">
        <ele>1162.85</ele>
        <time>2011-09-25T14:18:27Z</time>
      </trkpt>
      <trkpt lat="45.49074" lon="6.23858">
        <ele>1163.81</ele>
        <time>2011-09-25T14:18:28Z</time>
      </trkpt>
      <trkpt lat="45.49073" lon="6.23857">
        <ele>1163.33</ele>
        <time>2011-09-25T14:18:29Z</time>
      </trkpt>
      <trkpt lat="45.49055" lon="6.23834">
        <ele>1165.26</ele>
        <time>2011-09-25T14:18:42Z</time>
      </trkpt>
      <trkpt lat="45.49044" lon="6.23821">
        <ele>1168.14</ele>
        <time>2011-09-25T14:18:50Z</time>
      </trkpt>
      <trkpt lat="45.49026" lon="6.23802">
        <ele>1170.54</ele>
        <time>2011-09-25T14:19:03Z</time>
      </trkpt>
      <trkpt lat="45.49004" lon="6.23789">
        <ele>1171.5</ele>
        <time>2011-09-25T14:19:16Z</time>
      </trkpt>
      <trkpt lat="45.48982" lon="6.23784">
        <ele>1173.91</ele>
        <time>2011-09-25T14:19:30Z</time>
      </trkpt>
      <trkpt lat="45.48967" lon="6.23786">
        <ele>1173.91</ele>
        <time>2011-09-25T14:19:43Z</time>
      </trkpt>
      <trkpt lat="45.48965" lon="6.23789">
        <ele>1174.87</ele>
        <time>2011-09-25T14:19:48Z</time>
      </trkpt>
      <trkpt lat="45.48962" lon="6.23795">
        <ele>1175.83</ele>
        <time>2011-09-25T14:19:55Z</time>
      </trkpt>
      <trkpt lat="45.48962" lon="6.23799">
        <ele>1176.31</ele>
        <time>2011-09-25T14:20:05Z</time>
      </trkpt>
      <trkpt lat="45.48962" lon="6.23802">
        <ele>1176.79</ele>
        <time>2011-09-25T14:20:07Z</time>
      </trkpt>
      <trkpt lat="45.48962" lon="6.23804">
        <ele>1176.79</ele>
        <time>2011-09-25T14:20:08Z</time>
      </trkpt>
      <trkpt lat="45.48969" lon="6.23824">
        <ele>1179.67</ele>
        <time>2011-09-25T14:20:16Z</time>
      </trkpt>
      <trkpt lat="45.48979" lon="6.23846">
        <ele>1181.6</ele>
        <time>2011-09-25T14:20:26Z</time>
      </trkpt>
      <trkpt lat="45.48991" lon="6.23876">
        <ele>1181.6</ele>
        <time>2011-09-25T14:20:39Z</time>
      </trkpt>
      <trkpt lat="45.49003" lon="6.23905">
        <ele>1182.56</ele>
        <time>2011-09-25T14:20:51Z</time>
      </trkpt>
      <trkpt lat="45.49005" lon="6.23905">
        <ele>1181.12</ele>
        <time>2011-09-25T14:20:55Z</time>
      </trkpt>
      <trkpt lat="45.49004" lon="6.23904">
        <ele>1180.64</ele>
        <time>2011-09-25T14:21:20Z</time>
      </trkpt>
      <trkpt lat="45.49003" lon="6.23904">
        <ele>1180.64</ele>
        <time>2011-09-25T14:21:51Z</time>
      </trkpt>
      <trkpt lat="45.49004" lon="6.23904">
        <ele>1180.64</ele>
        <time>2011-09-25T14:22:21Z</time>
      </trkpt>
      <trkpt lat="45.49004" lon="6.23904">
        <ele>1180.16</ele>
        <time>2011-09-25T14:22:24Z</time>
      </trkpt>
      <trkpt lat="45.4901" lon="6.2392">
        <ele>1179.67</ele>
        <time>2011-09-25T14:22:30Z</time>
      </trkpt>
      <trkpt lat="45.49031" lon="6.23951">
        <ele>1176.31</ele>
        <time>2011-09-25T14:22:37Z</time>
      </trkpt>
      <trkpt lat="45.49052" lon="6.23959">
        <ele>1172.95</ele>
        <time>2011-09-25T14:22:44Z</time>
      </trkpt>
      <trkpt lat="45.49057" lon="6.2396">
        <ele>1171.5</ele>
        <time>2011-09-25T14:22:45Z</time>
      </trkpt>
      <trkpt lat="45.49065" lon="6.23971">
        <ele>1168.62</ele>
        <time>2011-09-25T14:22:50Z</time>
      </trkpt>
      <trkpt lat="45.49069" lon="6.23972">
        <ele>1167.66</ele>
        <time>2011-09-25T14:22:52Z</time>
      </trkpt>
      <trkpt lat="45.49075" lon="6.23972">
        <ele>1164.29</ele>
        <time>2011-09-25T14:22:56Z</time>
      </trkpt>
      <trkpt lat="45.49087" lon="6.23976">
        <ele>1161.41</ele>
        <time>2011-09-25T14:23:03Z</time>
      </trkpt>
      <trkpt lat="45.49093" lon="6.23984">
        <ele>1159.49</ele>
        <time>2011-09-25T14:23:06Z</time>
      </trkpt>
      <trkpt lat="45.49099" lon="6.23984">
        <ele>1157.56</ele>
        <time>2011-09-25T14:23:09Z</time>
      </trkpt>
      <trkpt lat="45.4911" lon="6.23982">
        <ele>1152.76</ele>
        <time>2011-09-25T14:23:15Z</time>
      </trkpt>
      <trkpt lat="45.49118" lon="6.23992">
        <ele>1150.84</ele>
        <time>2011-09-25T14:23:20Z</time>
      </trkpt>
      <trkpt lat="45.49126" lon="6.24012">
        <ele>1146.99</ele>
        <time>2011-09-25T14:23:28Z</time>
      </trkpt>
      <trkpt lat="45.49132" lon="6.24048">
        <ele>1145.55</ele>
        <time>2011-09-25T14:23:32Z</time>
      </trkpt>
      <trkpt lat="45.49135" lon="6.24058">
        <ele>1145.07</ele>
        <time>2011-09-25T14:23:33Z</time>
      </trkpt>
      <trkpt lat="45.49138" lon="6.24068">
        <ele>1143.63</ele>
        <time>2011-09-25T14:23:34Z</time>
      </trkpt>
      <trkpt lat="45.49143" lon="6.2408">
        <ele>1143.14</ele>
        <time>2011-09-25T14:23:35Z</time>
      </trkpt>
      <trkpt lat="45.49149" lon="6.24089">
        <ele>1142.18</ele>
        <time>2011-09-25T14:23:36Z</time>
      </trkpt>
      <trkpt lat="45.49156" lon="6.24098">
        <ele>1142.18</ele>
        <time>2011-09-25T14:23:37Z</time>
      </trkpt>
      <trkpt lat="45.49162" lon="6.24105">
        <ele>1140.74</ele>
        <time>2011-09-25T14:23:38Z</time>
      </trkpt>
      <trkpt lat="45.49168" lon="6.24112">
        <ele>1140.26</ele>
        <time>2011-09-25T14:23:39Z</time>
      </trkpt>
      <trkpt lat="45.49194" lon="6.24145">
        <ele>1137.38</ele>
        <time>2011-09-25T14:23:43Z</time>
      </trkpt>
      <trkpt lat="45.4921" lon="6.24168">
        <ele>1135.45</ele>
        <time>2011-09-25T14:23:46Z</time>
      </trkpt>
      <trkpt lat="45.49214" lon="6.24178">
        <ele>1134.97</ele>
        <time>2011-09-25T14:23:47Z</time>
      </trkpt>
      <trkpt lat="45.49221" lon="6.24212">
        <ele>1131.13</ele>
        <time>2011-09-25T14:23:50Z</time>
      </trkpt>
      <trkpt lat="45.49222" lon="6.24217">
        <ele>1131.13</ele>
        <time>2011-09-25T14:23:51Z</time>
      </trkpt>
      <trkpt lat="45.49227" lon="6.24247">
        <ele>1127.76</ele>
        <time>2011-09-25T14:23:55Z</time>
      </trkpt>
      <trkpt lat="45.49224" lon="6.24254">
        <ele>1126.8</ele>
        <time>2011-09-25T14:23:57Z</time>
      </trkpt>
      <trkpt lat="45.49223" lon="6.24255">
        <ele>1126.8</ele>
        <time>2011-09-25T14:24:09Z</time>
      </trkpt>
      <trkpt lat="45.49223" lon="6.24256">
        <ele>1126.8</ele>
        <time>2011-09-25T14:24:30Z</time>
      </trkpt>
      <trkpt lat="45.49233" lon="6.24218">
        <ele>1122</ele>
        <time>2011-09-25T14:24:38Z</time>
      </trkpt>
      <trkpt lat="45.49234" lon="6.24211">
        <ele>1122</ele>
        <time>2011-09-25T14:24:39Z</time>
      </trkpt>
      <trkpt lat="45.49234" lon="6.24204">
        <ele>1121.03</ele>
        <time>2011-09-25T14:24:40Z</time>
      </trkpt>
      <trkpt lat="45.49234" lon="6.24191">
        <ele>1120.07</ele>
        <time>2011-09-25T14:24:42Z</time>
      </trkpt>
      <trkpt lat="45.49236" lon="6.24176">
        <ele>1117.19</ele>
        <time>2011-09-25T14:24:45Z</time>
      </trkpt>
      <trkpt lat="45.49238" lon="6.24167">
        <ele>1114.79</ele>
        <time>2011-09-25T14:24:47Z</time>
      </trkpt>
      <trkpt lat="45.49246" lon="6.2416">
        <ele>1113.34</ele>
        <time>2011-09-25T14:24:50Z</time>
      </trkpt>
      <trkpt lat="45.49252" lon="6.24161">
        <ele>1111.42</ele>
        <time>2011-09-25T14:24:52Z</time>
      </trkpt>
      <trkpt lat="45.49262" lon="6.24165">
        <ele>1108.06</ele>
        <time>2011-09-25T14:24:55Z</time>
      </trkpt>
      <trkpt lat="45.49278" lon="6.24189">
        <ele>1101.33</ele>
        <time>2011-09-25T14:25:03Z</time>
      </trkpt>
      <trkpt lat="45.49286" lon="6.242">
        <ele>1101.81</ele>
        <time>2011-09-25T14:25:08Z</time>
      </trkpt>
      <trkpt lat="45.49291" lon="6.24207">
        <ele>1101.33</ele>
        <time>2011-09-25T14:25:10Z</time>
      </trkpt>
      <trkpt lat="45.49299" lon="6.24234">
        <ele>1098.92</ele>
        <time>2011-09-25T14:25:16Z</time>
      </trkpt>
      <trkpt lat="45.49315" lon="6.24245">
        <ele>1095.56</ele>
        <time>2011-09-25T14:25:20Z</time>
      </trkpt>
      <trkpt lat="45.49326" lon="6.24254">
        <ele>1092.2</ele>
        <time>2011-09-25T14:25:23Z</time>
      </trkpt>
      <trkpt lat="45.49331" lon="6.24261">
        <ele>1090.27</ele>
        <time>2011-09-25T14:25:26Z</time>
      </trkpt>
      <trkpt lat="45.49334" lon="6.24262">
        <ele>1090.75</ele>
        <time>2011-09-25T14:25:40Z</time>
      </trkpt>
      <trkpt lat="45.49334" lon="6.24262">
        <ele>1088.83</ele>
        <time>2011-09-25T14:25:42Z</time>
      </trkpt>
      <trkpt lat="45.49336" lon="6.24264">
        <ele>1087.87</ele>
        <time>2011-09-25T14:25:44Z</time>
      </trkpt>
      <trkpt lat="45.49337" lon="6.24266">
        <ele>1087.39</ele>
        <time>2011-09-25T14:26:03Z</time>
      </trkpt>
      <trkpt lat="45.49337" lon="6.24264">
        <ele>1086.91</ele>
        <time>2011-09-25T14:26:15Z</time>
      </trkpt>
      <trkpt lat="45.49342" lon="6.2426">
        <ele>1084.5</ele>
        <time>2011-09-25T14:26:21Z</time>
      </trkpt>
      <trkpt lat="45.49348" lon="6.24252">
        <ele>1082.58</ele>
        <time>2011-09-25T14:26:35Z</time>
      </trkpt>
      <trkpt lat="45.4935" lon="6.24241">
        <ele>1080.18</ele>
        <time>2011-09-25T14:26:50Z</time>
      </trkpt>
      <trkpt lat="45.4935" lon="6.24244">
        <ele>1081.14</ele>
        <time>2011-09-25T14:27:20Z</time>
      </trkpt>
      <trkpt lat="45.49353" lon="6.2426">
        <ele>1080.18</ele>
        <time>2011-09-25T14:27:28Z</time>
      </trkpt>
      <trkpt lat="45.49352" lon="6.24273">
        <ele>1080.66</ele>
        <time>2011-09-25T14:27:34Z</time>
      </trkpt>
      <trkpt lat="45.49352" lon="6.24275">
        <ele>1078.74</ele>
        <time>2011-09-25T14:27:37Z</time>
      </trkpt>
      <trkpt lat="45.49354" lon="6.24274">
        <ele>1078.26</ele>
        <time>2011-09-25T14:27:39Z</time>
      </trkpt>
      <trkpt lat="45.4936" lon="6.24271">
        <ele>1074.89</ele>
        <time>2011-09-25T14:27:44Z</time>
      </trkpt>
      <trkpt lat="45.49361" lon="6.24271">
        <ele>1074.41</ele>
        <time>2011-09-25T14:27:45Z</time>
      </trkpt>
      <trkpt lat="45.49363" lon="6.2427">
        <ele>1073.93</ele>
        <time>2011-09-25T14:27:46Z</time>
      </trkpt>
      <trkpt lat="45.49367" lon="6.24271">
        <ele>1073.45</ele>
        <time>2011-09-25T14:27:53Z</time>
      </trkpt>
      <trkpt lat="45.49371" lon="6.24269">
        <ele>1071.05</ele>
        <time>2011-09-25T14:28:07Z</time>
      </trkpt>
      <trkpt lat="45.4938" lon="6.24263">
        <ele>1067.68</ele>
        <time>2011-09-25T14:28:11Z</time>
      </trkpt>
      <trkpt lat="45.49387" lon="6.24265">
        <ele>1065.76</ele>
        <time>2011-09-25T14:28:14Z</time>
      </trkpt>
      <trkpt lat="45.49396" lon="6.24264">
        <ele>1061.91</ele>
        <time>2011-09-25T14:28:22Z</time>
      </trkpt>
      <trkpt lat="45.49397" lon="6.24264">
        <ele>1061.91</ele>
        <time>2011-09-25T14:28:23Z</time>
      </trkpt>
      <trkpt lat="45.49402" lon="6.24262">
        <ele>1061.91</ele>
        <time>2011-09-25T14:28:28Z</time>
      </trkpt>
      <trkpt lat="45.49406" lon="6.24269">
        <ele>1059.03</ele>
        <time>2011-09-25T14:28:41Z</time>
      </trkpt>
      <trkpt lat="45.49406" lon="6.2427">
        <ele>1056.15</ele>
        <time>2011-09-25T14:28:54Z</time>
      </trkpt>
      <trkpt lat="45.49409" lon="6.24274">
        <ele>1055.18</ele>
        <time>2011-09-25T14:28:56Z</time>
      </trkpt>
      <trkpt lat="45.49414" lon="6.24282">
        <ele>1053.74</ele>
        <time>2011-09-25T14:29:02Z</time>
      </trkpt>
      <trkpt lat="45.49416" lon="6.24284">
        <ele>1052.78</ele>
        <time>2011-09-25T14:29:04Z</time>
      </trkpt>
      <trkpt lat="45.49431" lon="6.24289">
        <ele>1050.38</ele>
        <time>2011-09-25T14:29:12Z</time>
      </trkpt>
      <trkpt lat="45.49435" lon="6.24292">
        <ele>1049.9</ele>
        <time>2011-09-25T14:29:15Z</time>
      </trkpt>
      <trkpt lat="45.49442" lon="6.24297">
        <ele>1047.97</ele>
        <time>2011-09-25T14:29:19Z</time>
      </trkpt>
      <trkpt lat="45.49451" lon="6.24294">
        <ele>1045.09</ele>
        <time>2011-09-25T14:29:27Z</time>
      </trkpt>
      <trkpt lat="45.49465" lon="6.24302">
        <ele>1041.73</ele>
        <time>2011-09-25T14:29:38Z</time>
      </trkpt>
      <trkpt lat="45.49476" lon="6.24309">
        <ele>1037.88</ele>
        <time>2011-09-25T14:29:50Z</time>
      </trkpt>
      <trkpt lat="45.49477" lon="6.2431">
        <ele>1037.88</ele>
        <time>2011-09-25T14:29:51Z</time>
      </trkpt>
      <trkpt lat="45.49487" lon="6.24314">
        <ele>1034.52</ele>
        <time>2011-09-25T14:29:55Z</time>
      </trkpt>
      <trkpt lat="45.49494" lon="6.24321">
        <ele>1034.04</ele>
        <time>2011-09-25T14:29:57Z</time>
      </trkpt>
      <trkpt lat="45.495" lon="6.24328">
        <ele>1033.55</ele>
        <time>2011-09-25T14:30:10Z</time>
      </trkpt>
      <trkpt lat="45.49501" lon="6.24328">
        <ele>1034.04</ele>
        <time>2011-09-25T14:30:15Z</time>
      </trkpt>
      <trkpt lat="45.49514" lon="6.24327">
        <ele>1034.52</ele>
        <time>2011-09-25T14:30:22Z</time>
      </trkpt>
      <trkpt lat="45.49538" lon="6.24334">
        <ele>1037.88</ele>
        <time>2011-09-25T14:30:36Z</time>
      </trkpt>
      <trkpt lat="45.49561" lon="6.24338">
        <ele>1039.8</ele>
        <time>2011-09-25T14:30:50Z</time>
      </trkpt>
      <trkpt lat="45.49575" lon="6.24335">
        <ele>1042.69</ele>
        <time>2011-09-25T14:31:00Z</time>
      </trkpt>
      <trkpt lat="45.49578" lon="6.24332">
        <ele>1043.65</ele>
        <time>2011-09-25T14:31:03Z</time>
      </trkpt>
      <trkpt lat="45.49579" lon="6.2433">
        <ele>1043.17</ele>
        <time>2011-09-25T14:31:05Z</time>
      </trkpt>
      <trkpt lat="45.49598" lon="6.24309">
        <ele>1045.57</ele>
        <time>2011-09-25T14:31:19Z</time>
      </trkpt>
      <trkpt lat="45.49599" lon="6.243">
        <ele>1047.97</ele>
        <time>2011-09-25T14:31:23Z</time>
      </trkpt>
      <trkpt lat="45.49609" lon="6.24274">
        <ele>1048.45</ele>
        <time>2011-09-25T14:31:37Z</time>
      </trkpt>
      <trkpt lat="45.49612" lon="6.24271">
        <ele>1048.94</ele>
        <time>2011-09-25T14:31:39Z</time>
      </trkpt>
      <trkpt lat="45.49613" lon="6.24267">
        <ele>1048.94</ele>
        <time>2011-09-25T14:31:53Z</time>
      </trkpt>
      <trkpt lat="45.49613" lon="6.24267">
        <ele>1048.94</ele>
        <time>2011-09-25T14:32:24Z</time>
      </trkpt>
      <trkpt lat="45.49614" lon="6.24266">
        <ele>1048.94</ele>
        <time>2011-09-25T14:32:48Z</time>
      </trkpt>
      <trkpt lat="45.49615" lon="6.24266">
        <ele>1048.45</ele>
        <time>2011-09-25T14:32:55Z</time>
      </trkpt>
      <trkpt lat="45.49646" lon="6.24279">
        <ele>1049.42</ele>
        <time>2011-09-25T14:33:06Z</time>
      </trkpt>
      <trkpt lat="45.4967" lon="6.24291">
        <ele>1047.49</ele>
        <time>2011-09-25T14:33:11Z</time>
      </trkpt>
      <trkpt lat="45.49679" lon="6.24298">
        <ele>1047.97</ele>
        <time>2011-09-25T14:33:13Z</time>
      </trkpt>
      <trkpt lat="45.49692" lon="6.2431">
        <ele>1046.53</ele>
        <time>2011-09-25T14:33:16Z</time>
      </trkpt>
      <trkpt lat="45.49713" lon="6.24327">
        <ele>1043.65</ele>
        <time>2011-09-25T14:33:22Z</time>
      </trkpt>
      <trkpt lat="45.49741" lon="6.24309">
        <ele>1047.01</ele>
        <time>2011-09-25T14:33:31Z</time>
      </trkpt>
      <trkpt lat="45.49757" lon="6.2429">
        <ele>1048.94</ele>
        <time>2011-09-25T14:33:41Z</time>
      </trkpt>
      <trkpt lat="45.49769" lon="6.243">
        <ele>1050.38</ele>
        <time>2011-09-25T14:33:46Z</time>
      </trkpt>
      <trkpt lat="45.49781" lon="6.24338">
        <ele>1050.86</ele>
        <time>2011-09-25T14:33:58Z</time>
      </trkpt>
      <trkpt lat="45.49775" lon="6.24365">
        <ele>1049.9</ele>
        <time>2011-09-25T14:34:04Z</time>
      </trkpt>
      <trkpt lat="45.49774" lon="6.24376">
        <ele>1049.42</ele>
        <time>2011-09-25T14:34:06Z</time>
      </trkpt>
      <trkpt lat="45.49777" lon="6.24406">
        <ele>1046.05</ele>
        <time>2011-09-25T14:34:11Z</time>
      </trkpt>
      <trkpt lat="45.49783" lon="6.24428">
        <ele>1045.57</ele>
        <time>2011-09-25T14:34:16Z</time>
      </trkpt>
      <trkpt lat="45.49794" lon="6.24433">
        <ele>1044.13</ele>
        <time>2011-09-25T14:34:20Z</time>
      </trkpt>
      <trkpt lat="45.49815" lon="6.24392">
        <ele>1046.05</ele>
        <time>2011-09-25T14:34:30Z</time>
      </trkpt>
      <trkpt lat="45.49827" lon="6.24364">
        <ele>1045.57</ele>
        <time>2011-09-25T14:34:36Z</time>
      </trkpt>
      <trkpt lat="45.49827" lon="6.24354">
        <ele>1044.13</ele>
        <time>2011-09-25T14:34:50Z</time>
      </trkpt>
      <trkpt lat="45.49827" lon="6.24352">
        <ele>1043.65</ele>
        <time>2011-09-25T14:34:51Z</time>
      </trkpt>
      <trkpt lat="45.49826" lon="6.24348">
        <ele>1043.65</ele>
        <time>2011-09-25T14:35:05Z</time>
      </trkpt>
      <trkpt lat="45.49826" lon="6.24348">
        <ele>1043.65</ele>
        <time>2011-09-25T14:35:25Z</time>
      </trkpt>
      <trkpt lat="45.49826" lon="6.2435">
        <ele>1043.65</ele>
        <time>2011-09-25T14:35:35Z</time>
      </trkpt>
      <trkpt lat="45.49824" lon="6.24363">
        <ele>1045.09</ele>
        <time>2011-09-25T14:35:42Z</time>
      </trkpt>
      <trkpt lat="45.49821" lon="6.24382">
        <ele>1044.61</ele>
        <time>2011-09-25T14:35:53Z</time>
      </trkpt>
      <trkpt lat="45.49806" lon="6.24405">
        <ele>1046.05</ele>
        <time>2011-09-25T14:36:04Z</time>
      </trkpt>
      <trkpt lat="45.49804" lon="6.24407">
        <ele>1046.05</ele>
        <time>2011-09-25T14:36:05Z</time>
      </trkpt>
      <trkpt lat="45.49785" lon="6.24401">
        <ele>1047.01</ele>
        <time>2011-09-25T14:36:16Z</time>
      </trkpt>
      <trkpt lat="45.49777" lon="6.24365">
        <ele>1049.9</ele>
        <time>2011-09-25T14:36:28Z</time>
      </trkpt>
      <trkpt lat="45.49779" lon="6.24318">
        <ele>1048.94</ele>
        <time>2011-09-25T14:36:41Z</time>
      </trkpt>
      <trkpt lat="45.49767" lon="6.24293">
        <ele>1048.94</ele>
        <time>2011-09-25T14:36:51Z</time>
      </trkpt>
      <trkpt lat="45.49762" lon="6.24286">
        <ele>1047.97</ele>
        <time>2011-09-25T14:36:53Z</time>
      </trkpt>
      <trkpt lat="45.49758" lon="6.24284">
        <ele>1047.97</ele>
        <time>2011-09-25T14:36:54Z</time>
      </trkpt>
      <trkpt lat="45.49754" lon="6.24281">
        <ele>1048.45</ele>
        <time>2011-09-25T14:36:55Z</time>
      </trkpt>
      <trkpt lat="45.49749" lon="6.2428">
        <ele>1047.97</ele>
        <time>2011-09-25T14:36:56Z</time>
      </trkpt>
      <trkpt lat="45.49726" lon="6.24285">
        <ele>1044.61</ele>
        <time>2011-09-25T14:37:02Z</time>
      </trkpt>
      <trkpt lat="45.49723" lon="6.24287">
        <ele>1044.61</ele>
        <time>2011-09-25T14:37:03Z</time>
      </trkpt>
      <trkpt lat="45.49706" lon="6.24297">
        <ele>1044.61</ele>
        <time>2011-09-25T14:37:07Z</time>
      </trkpt>
      <trkpt lat="45.49683" lon="6.24296">
        <ele>1045.09</ele>
        <time>2011-09-25T14:37:18Z</time>
      </trkpt>
      <trkpt lat="45.49656" lon="6.24275">
        <ele>1047.01</ele>
        <time>2011-09-25T14:37:30Z</time>
      </trkpt>
      <trkpt lat="45.4962" lon="6.24262">
        <ele>1048.45</ele>
        <time>2011-09-25T14:37:42Z</time>
      </trkpt>
      <trkpt lat="45.49612" lon="6.24264">
        <ele>1046.05</ele>
        <time>2011-09-25T14:37:46Z</time>
      </trkpt>
      <trkpt lat="45.49612" lon="6.24264">
        <ele>1047.49</ele>
        <time>2011-09-25T14:37:48Z</time>
      </trkpt>
      <trkpt lat="45.49612" lon="6.24264">
        <ele>1047.49</ele>
        <time>2011-09-25T14:38:09Z</time>
      </trkpt>
      <trkpt lat="45.49611" lon="6.24265">
        <ele>1045.09</ele>
        <time>2011-09-25T14:38:31Z</time>
      </trkpt>
      <trkpt lat="45.49611" lon="6.24268">
        <ele>1047.49</ele>
        <time>2011-09-25T14:38:32Z</time>
      </trkpt>
      <trkpt lat="45.49594" lon="6.24309">
        <ele>1043.65</ele>
        <time>2011-09-25T14:38:41Z</time>
      </trkpt>
      <trkpt lat="45.49581" lon="6.24325">
        <ele>1041.73</ele>
        <time>2011-09-25T14:38:45Z</time>
      </trkpt>
      <trkpt lat="45.49565" lon="6.24333">
        <ele>1038.36</ele>
        <time>2011-09-25T14:38:49Z</time>
      </trkpt>
      <trkpt lat="45.49549" lon="6.24332">
        <ele>1035.48</ele>
        <time>2011-09-25T14:38:52Z</time>
      </trkpt>
      <trkpt lat="45.49544" lon="6.2433">
        <ele>1035.48</ele>
        <time>2011-09-25T14:38:53Z</time>
      </trkpt>
      <trkpt lat="45.49526" lon="6.24324">
        <ele>1032.59</ele>
        <time>2011-09-25T14:38:57Z</time>
      </trkpt>
      <trkpt lat="45.49521" lon="6.24323">
        <ele>1032.59</ele>
        <time>2011-09-25T14:38:58Z</time>
      </trkpt>
      <trkpt lat="45.4951" lon="6.24332">
        <ele>1029.23</ele>
        <time>2011-09-25T14:39:03Z</time>
      </trkpt>
      <trkpt lat="45.49509" lon="6.24335">
        <ele>1029.71</ele>
        <time>2011-09-25T14:39:04Z</time>
      </trkpt>
      <trkpt lat="45.49511" lon="6.24346">
        <ele>1026.34</ele>
        <time>2011-09-25T14:39:07Z</time>
      </trkpt>
      <trkpt lat="45.49526" lon="6.24364">
        <ele>1025.38</ele>
        <time>2011-09-25T14:39:19Z</time>
      </trkpt>
      <trkpt lat="45.49528" lon="6.24365">
        <ele>1026.34</ele>
        <time>2011-09-25T14:39:33Z</time>
      </trkpt>
      <trkpt lat="45.49532" lon="6.24368">
        <ele>1026.83</ele>
        <time>2011-09-25T14:39:35Z</time>
      </trkpt>
      <trkpt lat="45.49534" lon="6.24369">
        <ele>1024.9</ele>
        <time>2011-09-25T14:39:36Z</time>
      </trkpt>
      <trkpt lat="45.49537" lon="6.24369">
        <ele>1025.38</ele>
        <time>2011-09-25T14:39:37Z</time>
      </trkpt>
      <trkpt lat="45.49538" lon="6.24371">
        <ele>1025.38</ele>
        <time>2011-09-25T14:39:38Z</time>
      </trkpt>
      <trkpt lat="45.4954" lon="6.24372">
        <ele>1025.38</ele>
        <time>2011-09-25T14:39:39Z</time>
      </trkpt>
      <trkpt lat="45.49569" lon="6.24398">
        <ele>1021.06</ele>
        <time>2011-09-25T14:39:47Z</time>
      </trkpt>
      <trkpt lat="45.4958" lon="6.24407">
        <ele>1019.13</ele>
        <time>2011-09-25T14:39:49Z</time>
      </trkpt>
      <trkpt lat="45.4959" lon="6.24416">
        <ele>1019.13</ele>
        <time>2011-09-25T14:39:51Z</time>
      </trkpt>
      <trkpt lat="45.49595" lon="6.24421">
        <ele>1017.69</ele>
        <time>2011-09-25T14:39:52Z</time>
      </trkpt>
      <trkpt lat="45.496" lon="6.24426">
        <ele>1017.69</ele>
        <time>2011-09-25T14:39:53Z</time>
      </trkpt>
      <trkpt lat="45.49621" lon="6.24446">
        <ele>1016.73</ele>
        <time>2011-09-25T14:39:57Z</time>
      </trkpt>
      <trkpt lat="45.49639" lon="6.24471">
        <ele>1014.81</ele>
        <time>2011-09-25T14:40:01Z</time>
      </trkpt>
      <trkpt lat="45.49644" lon="6.24475">
        <ele>1014.81</ele>
        <time>2011-09-25T14:40:02Z</time>
      </trkpt>
      <trkpt lat="45.49649" lon="6.24478">
        <ele>1014.33</ele>
        <time>2011-09-25T14:40:03Z</time>
      </trkpt>
      <trkpt lat="45.49662" lon="6.2449">
        <ele>1012.89</ele>
        <time>2011-09-25T14:40:06Z</time>
      </trkpt>
      <trkpt lat="45.49665" lon="6.24495">
        <ele>1011.93</ele>
        <time>2011-09-25T14:40:07Z</time>
      </trkpt>
      <trkpt lat="45.49672" lon="6.24504">
        <ele>1010.96</ele>
        <time>2011-09-25T14:40:09Z</time>
      </trkpt>
      <trkpt lat="45.49675" lon="6.24509">
        <ele>1010.96</ele>
        <time>2011-09-25T14:40:10Z</time>
      </trkpt>
      <trkpt lat="45.4968" lon="6.24514">
        <ele>1009.52</ele>
        <time>2011-09-25T14:40:11Z</time>
      </trkpt>
      <trkpt lat="45.49685" lon="6.24519">
        <ele>1008.56</ele>
        <time>2011-09-25T14:40:12Z</time>
      </trkpt>
      <trkpt lat="45.49691" lon="6.24524">
        <ele>1006.64</ele>
        <time>2011-09-25T14:40:13Z</time>
      </trkpt>
      <trkpt lat="45.49697" lon="6.2453">
        <ele>1009.04</ele>
        <time>2011-09-25T14:40:14Z</time>
      </trkpt>
      <trkpt lat="45.49709" lon="6.24544">
        <ele>1006.16</ele>
        <time>2011-09-25T14:40:16Z</time>
      </trkpt>
      <trkpt lat="45.49716" lon="6.24549">
        <ele>1005.68</ele>
        <time>2011-09-25T14:40:17Z</time>
      </trkpt>
      <trkpt lat="45.49737" lon="6.24566">
        <ele>1002.31</ele>
        <time>2011-09-25T14:40:21Z</time>
      </trkpt>
      <trkpt lat="45.49746" lon="6.24571">
        <ele>1001.35</ele>
        <time>2011-09-25T14:40:23Z</time>
      </trkpt>
      <trkpt lat="45.49766" lon="6.24579">
        <ele>997.99</ele>
        <time>2011-09-25T14:40:27Z</time>
      </trkpt>
      <trkpt lat="45.49773" lon="6.24581">
        <ele>998.47</ele>
        <time>2011-09-25T14:40:28Z</time>
      </trkpt>
      <trkpt lat="45.49779" lon="6.24583">
        <ele>997.99</ele>
        <time>2011-09-25T14:40:29Z</time>
      </trkpt>
      <trkpt lat="45.49785" lon="6.24584">
        <ele>996.54</ele>
        <time>2011-09-25T14:40:30Z</time>
      </trkpt>
      <trkpt lat="45.49799" lon="6.24589">
        <ele>992.7</ele>
        <time>2011-09-25T14:40:33Z</time>
      </trkpt>
      <trkpt lat="45.49803" lon="6.24591">
        <ele>994.62</ele>
        <time>2011-09-25T14:40:34Z</time>
      </trkpt>
      <trkpt lat="45.4982" lon="6.24595">
        <ele>991.26</ele>
        <time>2011-09-25T14:40:38Z</time>
      </trkpt>
      <trkpt lat="45.49832" lon="6.24593">
        <ele>989.81</ele>
        <time>2011-09-25T14:40:41Z</time>
      </trkpt>
      <trkpt lat="45.49854" lon="6.24593">
        <ele>986.45</ele>
        <time>2011-09-25T14:40:45Z</time>
      </trkpt>
      <trkpt lat="45.4986" lon="6.24595">
        <ele>985.01</ele>
        <time>2011-09-25T14:40:46Z</time>
      </trkpt>
      <trkpt lat="45.49865" lon="6.24597">
        <ele>985.01</ele>
        <time>2011-09-25T14:40:47Z</time>
      </trkpt>
      <trkpt lat="45.4987" lon="6.24598">
        <ele>984.05</ele>
        <time>2011-09-25T14:40:48Z</time>
      </trkpt>
      <trkpt lat="45.49875" lon="6.246">
        <ele>983.09</ele>
        <time>2011-09-25T14:40:49Z</time>
      </trkpt>
      <trkpt lat="45.4988" lon="6.24601">
        <ele>982.12</ele>
        <time>2011-09-25T14:40:50Z</time>
      </trkpt>
      <trkpt lat="45.49889" lon="6.24603">
        <ele>980.68</ele>
        <time>2011-09-25T14:40:52Z</time>
      </trkpt>
      <trkpt lat="45.49902" lon="6.2461">
        <ele>977.32</ele>
        <time>2011-09-25T14:40:55Z</time>
      </trkpt>
      <trkpt lat="45.49907" lon="6.24612">
        <ele>976.84</ele>
        <time>2011-09-25T14:40:56Z</time>
      </trkpt>
      <trkpt lat="45.49913" lon="6.24613">
        <ele>975.88</ele>
        <time>2011-09-25T14:40:57Z</time>
      </trkpt>
      <trkpt lat="45.49918" lon="6.24614">
        <ele>975.39</ele>
        <time>2011-09-25T14:40:58Z</time>
      </trkpt>
      <trkpt lat="45.49923" lon="6.24616">
        <ele>974.43</ele>
        <time>2011-09-25T14:40:59Z</time>
      </trkpt>
      <trkpt lat="45.49928" lon="6.24618">
        <ele>973.95</ele>
        <time>2011-09-25T14:41:00Z</time>
      </trkpt>
      <trkpt lat="45.49933" lon="6.24621">
        <ele>974.91</ele>
        <time>2011-09-25T14:41:01Z</time>
      </trkpt>
      <trkpt lat="45.49938" lon="6.24625">
        <ele>973.47</ele>
        <time>2011-09-25T14:41:02Z</time>
      </trkpt>
      <trkpt lat="45.49943" lon="6.2463">
        <ele>972.99</ele>
        <time>2011-09-25T14:41:03Z</time>
      </trkpt>
      <trkpt lat="45.49948" lon="6.24635">
        <ele>972.99</ele>
        <time>2011-09-25T14:41:04Z</time>
      </trkpt>
      <trkpt lat="45.49953" lon="6.2464">
        <ele>971.55</ele>
        <time>2011-09-25T14:41:05Z</time>
      </trkpt>
      <trkpt lat="45.49957" lon="6.24644">
        <ele>972.03</ele>
        <time>2011-09-25T14:41:06Z</time>
      </trkpt>
      <trkpt lat="45.49962" lon="6.24647">
        <ele>970.59</ele>
        <time>2011-09-25T14:41:07Z</time>
      </trkpt>
      <trkpt lat="45.49966" lon="6.24649">
        <ele>969.63</ele>
        <time>2011-09-25T14:41:08Z</time>
      </trkpt>
      <trkpt lat="45.49971" lon="6.2465">
        <ele>969.63</ele>
        <time>2011-09-25T14:41:09Z</time>
      </trkpt>
      <trkpt lat="45.49974" lon="6.24649">
        <ele>969.15</ele>
        <time>2011-09-25T14:41:10Z</time>
      </trkpt>
      <trkpt lat="45.49978" lon="6.24647">
        <ele>968.67</ele>
        <time>2011-09-25T14:41:11Z</time>
      </trkpt>
      <trkpt lat="45.49985" lon="6.24636">
        <ele>968.67</ele>
        <time>2011-09-25T14:41:20Z</time>
      </trkpt>
      <trkpt lat="45.49986" lon="6.24636">
        <ele>967.7</ele>
        <time>2011-09-25T14:41:33Z</time>
      </trkpt>
      <trkpt lat="45.49985" lon="6.24641">
        <ele>968.67</ele>
        <time>2011-09-25T14:41:36Z</time>
      </trkpt>
      <trkpt lat="45.49994" lon="6.2464">
        <ele>966.26</ele>
        <time>2011-09-25T14:41:40Z</time>
      </trkpt>
      <trkpt lat="45.50004" lon="6.24637">
        <ele>961.94</ele>
        <time>2011-09-25T14:41:47Z</time>
      </trkpt>
      <trkpt lat="45.50004" lon="6.24637">
        <ele>963.86</ele>
        <time>2011-09-25T14:42:03Z</time>
      </trkpt>
      <trkpt lat="45.50004" lon="6.2464">
        <ele>963.38</ele>
        <time>2011-09-25T14:42:39Z</time>
      </trkpt>
      <trkpt lat="45.50008" lon="6.24638">
        <ele>961.94</ele>
        <time>2011-09-25T14:42:50Z</time>
      </trkpt>
      <trkpt lat="45.50015" lon="6.24632">
        <ele>961.46</ele>
        <time>2011-09-25T14:43:00Z</time>
      </trkpt>
      <trkpt lat="45.50024" lon="6.24632">
        <ele>960.49</ele>
        <time>2011-09-25T14:43:04Z</time>
      </trkpt>
      <trkpt lat="45.50041" lon="6.24649">
        <ele>957.13</ele>
        <time>2011-09-25T14:43:11Z</time>
      </trkpt>
      <trkpt lat="45.50048" lon="6.24654">
        <ele>955.69</ele>
        <time>2011-09-25T14:43:13Z</time>
      </trkpt>
      <trkpt lat="45.50056" lon="6.24653">
        <ele>953.77</ele>
        <time>2011-09-25T14:43:15Z</time>
      </trkpt>
      <trkpt lat="45.50071" lon="6.24647">
        <ele>950.88</ele>
        <time>2011-09-25T14:43:18Z</time>
      </trkpt>
      <trkpt lat="45.50076" lon="6.24645">
        <ele>949.92</ele>
        <time>2011-09-25T14:43:19Z</time>
      </trkpt>
      <trkpt lat="45.50081" lon="6.24645">
        <ele>951.36</ele>
        <time>2011-09-25T14:43:20Z</time>
      </trkpt>
      <trkpt lat="45.50085" lon="6.24645">
        <ele>949.92</ele>
        <time>2011-09-25T14:43:21Z</time>
      </trkpt>
      <trkpt lat="45.50091" lon="6.24645">
        <ele>948.96</ele>
        <time>2011-09-25T14:43:22Z</time>
      </trkpt>
      <trkpt lat="45.50098" lon="6.24645">
        <ele>948</ele>
        <time>2011-09-25T14:43:23Z</time>
      </trkpt>
      <trkpt lat="45.50121" lon="6.24638">
        <ele>944.63</ele>
        <time>2011-09-25T14:43:28Z</time>
      </trkpt>
      <trkpt lat="45.50126" lon="6.24637">
        <ele>944.63</ele>
        <time>2011-09-25T14:43:29Z</time>
      </trkpt>
      <trkpt lat="45.50141" lon="6.24619">
        <ele>941.27</ele>
        <time>2011-09-25T14:43:36Z</time>
      </trkpt>
      <trkpt lat="45.50148" lon="6.2461">
        <ele>937.9</ele>
        <time>2011-09-25T14:43:39Z</time>
      </trkpt>
      <trkpt lat="45.5015" lon="6.24607">
        <ele>937.9</ele>
        <time>2011-09-25T14:43:40Z</time>
      </trkpt>
      <trkpt lat="45.50155" lon="6.24591">
        <ele>935.98</ele>
        <time>2011-09-25T14:43:43Z</time>
      </trkpt>
      <trkpt lat="45.50158" lon="6.2458">
        <ele>934.54</ele>
        <time>2011-09-25T14:43:45Z</time>
      </trkpt>
      <trkpt lat="45.50161" lon="6.24564">
        <ele>931.65</ele>
        <time>2011-09-25T14:43:48Z</time>
      </trkpt>
      <trkpt lat="45.50161" lon="6.24558">
        <ele>931.17</ele>
        <time>2011-09-25T14:43:49Z</time>
      </trkpt>
      <trkpt lat="45.50161" lon="6.24548">
        <ele>929.73</ele>
        <time>2011-09-25T14:43:51Z</time>
      </trkpt>
      <trkpt lat="45.50162" lon="6.24538">
        <ele>928.29</ele>
        <time>2011-09-25T14:43:53Z</time>
      </trkpt>
      <trkpt lat="45.50169" lon="6.24518">
        <ele>925.41</ele>
        <time>2011-09-25T14:43:57Z</time>
      </trkpt>
      <trkpt lat="45.50172" lon="6.24502">
        <ele>923.96</ele>
        <time>2011-09-25T14:44:00Z</time>
      </trkpt>
      <trkpt lat="45.50171" lon="6.24474">
        <ele>920.6</ele>
        <time>2011-09-25T14:44:05Z</time>
      </trkpt>
      <trkpt lat="45.50169" lon="6.24467">
        <ele>920.6</ele>
        <time>2011-09-25T14:44:06Z</time>
      </trkpt>
      <trkpt lat="45.50168" lon="6.24451">
        <ele>921.08</ele>
        <time>2011-09-25T14:44:08Z</time>
      </trkpt>
      <trkpt lat="45.50166" lon="6.24434">
        <ele>920.12</ele>
        <time>2011-09-25T14:44:10Z</time>
      </trkpt>
      <trkpt lat="45.50167" lon="6.24426">
        <ele>920.6</ele>
        <time>2011-09-25T14:44:11Z</time>
      </trkpt>
      <trkpt lat="45.50172" lon="6.24395">
        <ele>918.68</ele>
        <time>2011-09-25T14:44:15Z</time>
      </trkpt>
      <trkpt lat="45.50172" lon="6.24387">
        <ele>918.68</ele>
        <time>2011-09-25T14:44:16Z</time>
      </trkpt>
      <trkpt lat="45.50172" lon="6.24289">
        <ele>917.24</ele>
        <time>2011-09-25T14:44:29Z</time>
      </trkpt>
      <trkpt lat="45.50168" lon="6.2427">
        <ele>916.75</ele>
        <time>2011-09-25T14:44:31Z</time>
      </trkpt>
      <trkpt lat="45.50151" lon="6.24204">
        <ele>915.31</ele>
        <time>2011-09-25T14:44:38Z</time>
      </trkpt>
      <trkpt lat="45.50149" lon="6.24194">
        <ele>914.83</ele>
        <time>2011-09-25T14:44:39Z</time>
      </trkpt>
      <trkpt lat="45.50147" lon="6.24185">
        <ele>915.79</ele>
        <time>2011-09-25T14:44:40Z</time>
      </trkpt>
      <trkpt lat="45.50145" lon="6.24175">
        <ele>914.83</ele>
        <time>2011-09-25T14:44:41Z</time>
      </trkpt>
      <trkpt lat="45.50144" lon="6.24164">
        <ele>913.87</ele>
        <time>2011-09-25T14:44:42Z</time>
      </trkpt>
      <trkpt lat="45.50138" lon="6.24121">
        <ele>914.83</ele>
        <time>2011-09-25T14:44:46Z</time>
      </trkpt>
      <trkpt lat="45.50134" lon="6.24001">
        <ele>913.39</ele>
        <time>2011-09-25T14:44:57Z</time>
      </trkpt>
      <trkpt lat="45.50132" lon="6.2399">
        <ele>913.39</ele>
        <time>2011-09-25T14:44:58Z</time>
      </trkpt>
      <trkpt lat="45.50131" lon="6.23979">
        <ele>912.43</ele>
        <time>2011-09-25T14:44:59Z</time>
      </trkpt>
      <trkpt lat="45.50113" lon="6.23892">
        <ele>911.95</ele>
        <time>2011-09-25T14:45:10Z</time>
      </trkpt>
      <trkpt lat="45.50113" lon="6.23892">
        <ele>910.99</ele>
        <time>2011-09-25T14:45:24Z</time>
      </trkpt>
      <trkpt lat="45.50113" lon="6.23892">
        <ele>910.99</ele>
        <time>2011-09-25T14:45:54Z</time>
      </trkpt>
      <trkpt lat="45.50112" lon="6.23886">
        <ele>910.99</ele>
        <time>2011-09-25T14:46:09Z</time>
      </trkpt>
      <trkpt lat="45.50102" lon="6.23856">
        <ele>910.99</ele>
        <time>2011-09-25T14:46:16Z</time>
      </trkpt>
      <trkpt lat="45.5007" lon="6.23769">
        <ele>912.91</ele>
        <time>2011-09-25T14:46:29Z</time>
      </trkpt>
      <trkpt lat="45.50067" lon="6.23755">
        <ele>911.47</ele>
        <time>2011-09-25T14:46:31Z</time>
      </trkpt>
      <trkpt lat="45.5006" lon="6.23724">
        <ele>907.14</ele>
        <time>2011-09-25T14:46:38Z</time>
      </trkpt>
      <trkpt lat="45.50058" lon="6.23716">
        <ele>910.99</ele>
        <time>2011-09-25T14:46:40Z</time>
      </trkpt>
      <trkpt lat="45.50057" lon="6.2371">
        <ele>907.62</ele>
        <time>2011-09-25T14:46:43Z</time>
      </trkpt>
      <trkpt lat="45.50058" lon="6.23711">
        <ele>907.14</ele>
        <time>2011-09-25T14:46:59Z</time>
      </trkpt>
      <trkpt lat="45.50057" lon="6.2371">
        <ele>907.14</ele>
        <time>2011-09-25T14:47:18Z</time>
      </trkpt>
      <trkpt lat="45.50056" lon="6.23708">
        <ele>904.26</ele>
        <time>2011-09-25T14:47:19Z</time>
      </trkpt>
      <trkpt lat="45.50055" lon="6.23705">
        <ele>907.62</ele>
        <time>2011-09-25T14:47:20Z</time>
      </trkpt>
      <trkpt lat="45.50053" lon="6.237">
        <ele>908.1</ele>
        <time>2011-09-25T14:47:21Z</time>
      </trkpt>
      <trkpt lat="45.50051" lon="6.23695">
        <ele>907.62</ele>
        <time>2011-09-25T14:47:22Z</time>
      </trkpt>
      <trkpt lat="45.50041" lon="6.23654">
        <ele>906.18</ele>
        <time>2011-09-25T14:47:27Z</time>
      </trkpt>
      <trkpt lat="45.5002" lon="6.23562">
        <ele>903.3</ele>
        <time>2011-09-25T14:47:35Z</time>
      </trkpt>
      <trkpt lat="45.49999" lon="6.23459">
        <ele>898.97</ele>
        <time>2011-09-25T14:47:43Z</time>
      </trkpt>
      <trkpt lat="45.4999" lon="6.23404">
        <ele>897.53</ele>
        <time>2011-09-25T14:47:47Z</time>
      </trkpt>
      <trkpt lat="45.49978" lon="6.2327">
        <ele>894.64</ele>
        <time>2011-09-25T14:47:57Z</time>
      </trkpt>
      <trkpt lat="45.49973" lon="6.23199">
        <ele>895.61</ele>
        <time>2011-09-25T14:48:03Z</time>
      </trkpt>
      <trkpt lat="45.49971" lon="6.23188">
        <ele>895.61</ele>
        <time>2011-09-25T14:48:04Z</time>
      </trkpt>
      <trkpt lat="45.49968" lon="6.23177">
        <ele>894.64</ele>
        <time>2011-09-25T14:48:05Z</time>
      </trkpt>
      <trkpt lat="45.49965" lon="6.23168">
        <ele>895.12</ele>
        <time>2011-09-25T14:48:06Z</time>
      </trkpt>
      <trkpt lat="45.4996" lon="6.2316">
        <ele>894.64</ele>
        <time>2011-09-25T14:48:07Z</time>
      </trkpt>
      <trkpt lat="45.49955" lon="6.23153">
        <ele>895.61</ele>
        <time>2011-09-25T14:48:08Z</time>
      </trkpt>
      <trkpt lat="45.49949" lon="6.23146">
        <ele>894.16</ele>
        <time>2011-09-25T14:48:09Z</time>
      </trkpt>
      <trkpt lat="45.49917" lon="6.2311">
        <ele>895.61</ele>
        <time>2011-09-25T14:48:15Z</time>
      </trkpt>
      <trkpt lat="45.49873" lon="6.23073">
        <ele>897.53</ele>
        <time>2011-09-25T14:48:26Z</time>
      </trkpt>
      <trkpt lat="45.49852" lon="6.23054">
        <ele>897.53</ele>
        <time>2011-09-25T14:48:30Z</time>
      </trkpt>
      <trkpt lat="45.49834" lon="6.23043">
        <ele>896.09</ele>
        <time>2011-09-25T14:48:33Z</time>
      </trkpt>
      <trkpt lat="45.49827" lon="6.23041">
        <ele>895.12</ele>
        <time>2011-09-25T14:48:34Z</time>
      </trkpt>
      <trkpt lat="45.4982" lon="6.23041">
        <ele>895.61</ele>
        <time>2011-09-25T14:48:35Z</time>
      </trkpt>
      <trkpt lat="45.49799" lon="6.23041">
        <ele>893.68</ele>
        <time>2011-09-25T14:48:38Z</time>
      </trkpt>
      <trkpt lat="45.49764" lon="6.23033">
        <ele>892.72</ele>
        <time>2011-09-25T14:48:43Z</time>
      </trkpt>
      <trkpt lat="45.49697" lon="6.2298">
        <ele>890.32</ele>
        <time>2011-09-25T14:48:53Z</time>
      </trkpt>
      <trkpt lat="45.49678" lon="6.22964">
        <ele>888.88</ele>
        <time>2011-09-25T14:48:56Z</time>
      </trkpt>
      <trkpt lat="45.4967" lon="6.22962">
        <ele>889.36</ele>
        <time>2011-09-25T14:48:57Z</time>
      </trkpt>
      <trkpt lat="45.49662" lon="6.2296">
        <ele>890.32</ele>
        <time>2011-09-25T14:48:58Z</time>
      </trkpt>
      <trkpt lat="45.49554" lon="6.22928">
        <ele>887.91</ele>
        <time>2011-09-25T14:49:12Z</time>
      </trkpt>
      <trkpt lat="45.49524" lon="6.22919">
        <ele>886.47</ele>
        <time>2011-09-25T14:49:16Z</time>
      </trkpt>
      <trkpt lat="45.49423" lon="6.22897">
        <ele>887.43</ele>
        <time>2011-09-25T14:49:31Z</time>
      </trkpt>
      <trkpt lat="45.49396" lon="6.22891">
        <ele>889.36</ele>
        <time>2011-09-25T14:49:36Z</time>
      </trkpt>
      <trkpt lat="45.4936" lon="6.22894">
        <ele>891.28</ele>
        <time>2011-09-25T14:49:44Z</time>
      </trkpt>
      <trkpt lat="45.49356" lon="6.22894">
        <ele>889.36</ele>
        <time>2011-09-25T14:49:45Z</time>
      </trkpt>
      <trkpt lat="45.49351" lon="6.22894">
        <ele>889.84</ele>
        <time>2011-09-25T14:49:46Z</time>
      </trkpt>
      <trkpt lat="45.49346" lon="6.22894">
        <ele>890.8</ele>
        <time>2011-09-25T14:49:47Z</time>
      </trkpt>
      <trkpt lat="45.49342" lon="6.22892">
        <ele>889.36</ele>
        <time>2011-09-25T14:49:48Z</time>
      </trkpt>
      <trkpt lat="45.49337" lon="6.2289">
        <ele>890.32</ele>
        <time>2011-09-25T14:49:49Z</time>
      </trkpt>
      <trkpt lat="45.49333" lon="6.22887">
        <ele>890.8</ele>
        <time>2011-09-25T14:49:50Z</time>
      </trkpt>
      <trkpt lat="45.49328" lon="6.22884">
        <ele>890.8</ele>
        <time>2011-09-25T14:49:51Z</time>
      </trkpt>
      <trkpt lat="45.49324" lon="6.22878">
        <ele>890.32</ele>
        <time>2011-09-25T14:49:52Z</time>
      </trkpt>
      <trkpt lat="45.4932" lon="6.22873">
        <ele>891.28</ele>
        <time>2011-09-25T14:49:53Z</time>
      </trkpt>
      <trkpt lat="45.49316" lon="6.22867">
        <ele>889.36</ele>
        <time>2011-09-25T14:49:54Z</time>
      </trkpt>
      <trkpt lat="45.49289" lon="6.22823">
        <ele>890.8</ele>
        <time>2011-09-25T14:50:01Z</time>
      </trkpt>
      <trkpt lat="45.49271" lon="6.2279">
        <ele>889.84</ele>
        <time>2011-09-25T14:50:06Z</time>
      </trkpt>
      <trkpt lat="45.49266" lon="6.22784">
        <ele>890.32</ele>
        <time>2011-09-25T14:50:07Z</time>
      </trkpt>
      <trkpt lat="45.49199" lon="6.22696">
        <ele>887.91</ele>
        <time>2011-09-25T14:50:20Z</time>
      </trkpt>
      <trkpt lat="45.4919" lon="6.22678">
        <ele>888.4</ele>
        <time>2011-09-25T14:50:22Z</time>
      </trkpt>
      <trkpt lat="45.49186" lon="6.22668">
        <ele>887.91</ele>
        <time>2011-09-25T14:50:23Z</time>
      </trkpt>
      <trkpt lat="45.49183" lon="6.22657">
        <ele>887.43</ele>
        <time>2011-09-25T14:50:24Z</time>
      </trkpt>
      <trkpt lat="45.49181" lon="6.22647">
        <ele>886.95</ele>
        <time>2011-09-25T14:50:25Z</time>
      </trkpt>
      <trkpt lat="45.49181" lon="6.22636">
        <ele>885.99</ele>
        <time>2011-09-25T14:50:26Z</time>
      </trkpt>
      <trkpt lat="45.49179" lon="6.22624">
        <ele>885.99</ele>
        <time>2011-09-25T14:50:27Z</time>
      </trkpt>
      <trkpt lat="45.49175" lon="6.22611">
        <ele>884.55</ele>
        <time>2011-09-25T14:50:28Z</time>
      </trkpt>
      <trkpt lat="45.4917" lon="6.22599">
        <ele>883.59</ele>
        <time>2011-09-25T14:50:29Z</time>
      </trkpt>
      <trkpt lat="45.49163" lon="6.22586">
        <ele>884.07</ele>
        <time>2011-09-25T14:50:30Z</time>
      </trkpt>
      <trkpt lat="45.49151" lon="6.22561">
        <ele>881.67</ele>
        <time>2011-09-25T14:50:32Z</time>
      </trkpt>
      <trkpt lat="45.49147" lon="6.22547">
        <ele>882.15</ele>
        <time>2011-09-25T14:50:33Z</time>
      </trkpt>
      <trkpt lat="45.49135" lon="6.22505">
        <ele>878.78</ele>
        <time>2011-09-25T14:50:36Z</time>
      </trkpt>
      <trkpt lat="45.49125" lon="6.2248">
        <ele>877.82</ele>
        <time>2011-09-25T14:50:38Z</time>
      </trkpt>
      <trkpt lat="45.4907" lon="6.22339">
        <ele>875.42</ele>
        <time>2011-09-25T14:50:49Z</time>
      </trkpt>
      <trkpt lat="45.49067" lon="6.22325">
        <ele>874.94</ele>
        <time>2011-09-25T14:50:50Z</time>
      </trkpt>
      <trkpt lat="45.49064" lon="6.22311">
        <ele>873.5</ele>
        <time>2011-09-25T14:50:51Z</time>
      </trkpt>
      <trkpt lat="45.49043" lon="6.22243">
        <ele>872.05</ele>
        <time>2011-09-25T14:50:56Z</time>
      </trkpt>
      <trkpt lat="45.49036" lon="6.22215">
        <ele>871.09</ele>
        <time>2011-09-25T14:50:58Z</time>
      </trkpt>
      <trkpt lat="45.49013" lon="6.22081">
        <ele>872.05</ele>
        <time>2011-09-25T14:51:09Z</time>
      </trkpt>
      <trkpt lat="45.49008" lon="6.22018">
        <ele>871.57</ele>
        <time>2011-09-25T14:51:15Z</time>
      </trkpt>
      <trkpt lat="45.49005" lon="6.22008">
        <ele>871.57</ele>
        <time>2011-09-25T14:51:16Z</time>
      </trkpt>
      <trkpt lat="45.49001" lon="6.21999">
        <ele>871.57</ele>
        <time>2011-09-25T14:51:17Z</time>
      </trkpt>
      <trkpt lat="45.48997" lon="6.21991">
        <ele>870.61</ele>
        <time>2011-09-25T14:51:18Z</time>
      </trkpt>
      <trkpt lat="45.48993" lon="6.21983">
        <ele>871.09</ele>
        <time>2011-09-25T14:51:19Z</time>
      </trkpt>
      <trkpt lat="45.48928" lon="6.21874">
        <ele>869.65</ele>
        <time>2011-09-25T14:51:32Z</time>
      </trkpt>
      <trkpt lat="45.48904" lon="6.21831">
        <ele>867.73</ele>
        <time>2011-09-25T14:51:37Z</time>
      </trkpt>
      <trkpt lat="45.48902" lon="6.2182">
        <ele>867.73</ele>
        <time>2011-09-25T14:51:38Z</time>
      </trkpt>
      <trkpt lat="45.48903" lon="6.21809">
        <ele>866.77</ele>
        <time>2011-09-25T14:51:39Z</time>
      </trkpt>
      <trkpt lat="45.48906" lon="6.21797">
        <ele>865.8</ele>
        <time>2011-09-25T14:51:40Z</time>
      </trkpt>
      <trkpt lat="45.48912" lon="6.21788">
        <ele>865.32</ele>
        <time>2011-09-25T14:51:41Z</time>
      </trkpt>
      <trkpt lat="45.48918" lon="6.21779">
        <ele>865.8</ele>
        <time>2011-09-25T14:51:42Z</time>
      </trkpt>
      <trkpt lat="45.48923" lon="6.21768">
        <ele>865.8</ele>
        <time>2011-09-25T14:51:43Z</time>
      </trkpt>
      <trkpt lat="45.48926" lon="6.21756">
        <ele>864.84</ele>
        <time>2011-09-25T14:51:44Z</time>
      </trkpt>
      <trkpt lat="45.48927" lon="6.21744">
        <ele>863.88</ele>
        <time>2011-09-25T14:51:45Z</time>
      </trkpt>
      <trkpt lat="45.48925" lon="6.21731">
        <ele>862.92</ele>
        <time>2011-09-25T14:51:46Z</time>
      </trkpt>
      <trkpt lat="45.48922" lon="6.21718">
        <ele>862.44</ele>
        <time>2011-09-25T14:51:47Z</time>
      </trkpt>
      <trkpt lat="45.48919" lon="6.21705">
        <ele>861</ele>
        <time>2011-09-25T14:51:48Z</time>
      </trkpt>
      <trkpt lat="45.48916" lon="6.21691">
        <ele>861</ele>
        <time>2011-09-25T14:51:49Z</time>
      </trkpt>
      <trkpt lat="45.48912" lon="6.21677">
        <ele>859.08</ele>
        <time>2011-09-25T14:51:50Z</time>
      </trkpt>
      <trkpt lat="45.4891" lon="6.21662">
        <ele>859.08</ele>
        <time>2011-09-25T14:51:51Z</time>
      </trkpt>
      <trkpt lat="45.48908" lon="6.21648">
        <ele>859.08</ele>
        <time>2011-09-25T14:51:52Z</time>
      </trkpt>
      <trkpt lat="45.48897" lon="6.21603">
        <ele>857.15</ele>
        <time>2011-09-25T14:51:55Z</time>
      </trkpt>
      <trkpt lat="45.48883" lon="6.21559">
        <ele>852.83</ele>
        <time>2011-09-25T14:51:58Z</time>
      </trkpt>
      <trkpt lat="45.48879" lon="6.21544">
        <ele>853.79</ele>
        <time>2011-09-25T14:51:59Z</time>
      </trkpt>
      <trkpt lat="45.48875" lon="6.21528">
        <ele>852.83</ele>
        <time>2011-09-25T14:52:00Z</time>
      </trkpt>
      <trkpt lat="45.48873" lon="6.21512">
        <ele>852.35</ele>
        <time>2011-09-25T14:52:01Z</time>
      </trkpt>
      <trkpt lat="45.48872" lon="6.21496">
        <ele>850.9</ele>
        <time>2011-09-25T14:52:02Z</time>
      </trkpt>
      <trkpt lat="45.48871" lon="6.2148">
        <ele>850.9</ele>
        <time>2011-09-25T14:52:03Z</time>
      </trkpt>
      <trkpt lat="45.48868" lon="6.21337">
        <ele>848.02</ele>
        <time>2011-09-25T14:52:14Z</time>
      </trkpt>
      <trkpt lat="45.48865" lon="6.21296">
        <ele>848.5</ele>
        <time>2011-09-25T14:52:18Z</time>
      </trkpt>
      <trkpt lat="45.48863" lon="6.21287">
        <ele>848.02</ele>
        <time>2011-09-25T14:52:19Z</time>
      </trkpt>
      <trkpt lat="45.4886" lon="6.21278">
        <ele>847.54</ele>
        <time>2011-09-25T14:52:20Z</time>
      </trkpt>
      <trkpt lat="45.48826" lon="6.2119">
        <ele>851.38</ele>
        <time>2011-09-25T14:52:31Z</time>
      </trkpt>
      <trkpt lat="45.48823" lon="6.21182">
        <ele>847.54</ele>
        <time>2011-09-25T14:52:32Z</time>
      </trkpt>
      <trkpt lat="45.48791" lon="6.21093">
        <ele>849.94</ele>
        <time>2011-09-25T14:52:44Z</time>
      </trkpt>
      <trkpt lat="45.48788" lon="6.21085">
        <ele>849.46</ele>
        <time>2011-09-25T14:52:45Z</time>
      </trkpt>
      <trkpt lat="45.48769" lon="6.21027">
        <ele>848.5</ele>
        <time>2011-09-25T14:52:52Z</time>
      </trkpt>
      <trkpt lat="45.48725" lon="6.20898">
        <ele>847.06</ele>
        <time>2011-09-25T14:53:06Z</time>
      </trkpt>
      <trkpt lat="45.48721" lon="6.20881">
        <ele>847.54</ele>
        <time>2011-09-25T14:53:08Z</time>
      </trkpt>
      <trkpt lat="45.48721" lon="6.20873">
        <ele>845.62</ele>
        <time>2011-09-25T14:53:09Z</time>
      </trkpt>
      <trkpt lat="45.48724" lon="6.20866">
        <ele>846.1</ele>
        <time>2011-09-25T14:53:10Z</time>
      </trkpt>
      <trkpt lat="45.48729" lon="6.20861">
        <ele>845.14</ele>
        <time>2011-09-25T14:53:11Z</time>
      </trkpt>
      <trkpt lat="45.48734" lon="6.20857">
        <ele>845.62</ele>
        <time>2011-09-25T14:53:12Z</time>
      </trkpt>
      <trkpt lat="45.48738" lon="6.20852">
        <ele>845.14</ele>
        <time>2011-09-25T14:53:13Z</time>
      </trkpt>
      <trkpt lat="45.48742" lon="6.20848">
        <ele>846.1</ele>
        <time>2011-09-25T14:53:14Z</time>
      </trkpt>
      <trkpt lat="45.48745" lon="6.20842">
        <ele>846.58</ele>
        <time>2011-09-25T14:53:15Z</time>
      </trkpt>
      <trkpt lat="45.48747" lon="6.20836">
        <ele>846.58</ele>
        <time>2011-09-25T14:53:16Z</time>
      </trkpt>
      <trkpt lat="45.48748" lon="6.20829">
        <ele>847.54</ele>
        <time>2011-09-25T14:53:17Z</time>
      </trkpt>
      <trkpt lat="45.48749" lon="6.20823">
        <ele>847.54</ele>
        <time>2011-09-25T14:53:18Z</time>
      </trkpt>
      <trkpt lat="45.48748" lon="6.20817">
        <ele>847.54</ele>
        <time>2011-09-25T14:53:19Z</time>
      </trkpt>
      <trkpt lat="45.48747" lon="6.20811">
        <ele>847.54</ele>
        <time>2011-09-25T14:53:20Z</time>
      </trkpt>
      <trkpt lat="45.48745" lon="6.20806">
        <ele>848.98</ele>
        <time>2011-09-25T14:53:21Z</time>
      </trkpt>
      <trkpt lat="45.48726" lon="6.2074">
        <ele>851.38</ele>
        <time>2011-09-25T14:53:35Z</time>
      </trkpt>
      <trkpt lat="45.48711" lon="6.20686">
        <ele>854.75</ele>
        <time>2011-09-25T14:53:48Z</time>
      </trkpt>
      <trkpt lat="45.48697" lon="6.20642">
        <ele>855.71</ele>
        <time>2011-09-25T14:53:59Z</time>
      </trkpt>
      <trkpt lat="45.48695" lon="6.20625">
        <ele>857.15</ele>
        <time>2011-09-25T14:54:03Z</time>
      </trkpt>
      <trkpt lat="45.48692" lon="6.20583">
        <ele>859.08</ele>
        <time>2011-09-25T14:54:13Z</time>
      </trkpt>
      <trkpt lat="45.48684" lon="6.20516">
        <ele>862.92</ele>
        <time>2011-09-25T14:54:28Z</time>
      </trkpt>
      <trkpt lat="45.48676" lon="6.20457">
        <ele>864.36</ele>
        <time>2011-09-25T14:54:42Z</time>
      </trkpt>
      <trkpt lat="45.48667" lon="6.20395">
        <ele>867.73</ele>
        <time>2011-09-25T14:54:56Z</time>
      </trkpt>
      <trkpt lat="45.48657" lon="6.20338">
        <ele>869.65</ele>
        <time>2011-09-25T14:55:10Z</time>
      </trkpt>
      <trkpt lat="45.48653" lon="6.20303">
        <ele>870.61</ele>
        <time>2011-09-25T14:55:18Z</time>
      </trkpt>
      <trkpt lat="45.48653" lon="6.20252">
        <ele>874.46</ele>
        <time>2011-09-25T14:55:29Z</time>
      </trkpt>
      <trkpt lat="45.4866" lon="6.20177">
        <ele>875.9</ele>
        <time>2011-09-25T14:55:44Z</time>
      </trkpt>
      <trkpt lat="45.48658" lon="6.20088">
        <ele>878.3</ele>
        <time>2011-09-25T14:56:01Z</time>
      </trkpt>
      <trkpt lat="45.48659" lon="6.20006">
        <ele>881.67</ele>
        <time>2011-09-25T14:56:16Z</time>
      </trkpt>
      <trkpt lat="45.48647" lon="6.19903">
        <ele>879.74</ele>
        <time>2011-09-25T14:56:31Z</time>
      </trkpt>
      <trkpt lat="45.48645" lon="6.19896">
        <ele>880.71</ele>
        <time>2011-09-25T14:56:32Z</time>
      </trkpt>
      <trkpt lat="45.48643" lon="6.1989">
        <ele>879.74</ele>
        <time>2011-09-25T14:56:33Z</time>
      </trkpt>
      <trkpt lat="45.4864" lon="6.19884">
        <ele>881.19</ele>
        <time>2011-09-25T14:56:34Z</time>
      </trkpt>
      <trkpt lat="45.48636" lon="6.19879">
        <ele>879.74</ele>
        <time>2011-09-25T14:56:35Z</time>
      </trkpt>
      <trkpt lat="45.48632" lon="6.19875">
        <ele>880.71</ele>
        <time>2011-09-25T14:56:36Z</time>
      </trkpt>
      <trkpt lat="45.48598" lon="6.19836">
        <ele>884.55</ele>
        <time>2011-09-25T14:56:47Z</time>
      </trkpt>
      <trkpt lat="45.48595" lon="6.19832">
        <ele>884.55</ele>
        <time>2011-09-25T14:56:48Z</time>
      </trkpt>
      <trkpt lat="45.48581" lon="6.19809">
        <ele>885.03</ele>
        <time>2011-09-25T14:56:53Z</time>
      </trkpt>
      <trkpt lat="45.4855" lon="6.19719">
        <ele>885.03</ele>
        <time>2011-09-25T14:57:07Z</time>
      </trkpt>
      <trkpt lat="45.48542" lon="6.19696">
        <ele>884.07</ele>
        <time>2011-09-25T14:57:10Z</time>
      </trkpt>
      <trkpt lat="45.48521" lon="6.1965">
        <ele>883.11</ele>
        <time>2011-09-25T14:57:16Z</time>
      </trkpt>
      <trkpt lat="45.4852" lon="6.19642">
        <ele>883.59</ele>
        <time>2011-09-25T14:57:17Z</time>
      </trkpt>
      <trkpt lat="45.48518" lon="6.19635">
        <ele>882.63</ele>
        <time>2011-09-25T14:57:18Z</time>
      </trkpt>
      <trkpt lat="45.48513" lon="6.19615">
        <ele>884.07</ele>
        <time>2011-09-25T14:57:21Z</time>
      </trkpt>
      <trkpt lat="45.48512" lon="6.19609">
        <ele>885.03</ele>
        <time>2011-09-25T14:57:22Z</time>
      </trkpt>
      <trkpt lat="45.48511" lon="6.19604">
        <ele>885.03</ele>
        <time>2011-09-25T14:57:23Z</time>
      </trkpt>
      <trkpt lat="45.4851" lon="6.19599">
        <ele>884.55</ele>
        <time>2011-09-25T14:57:24Z</time>
      </trkpt>
      <trkpt lat="45.48508" lon="6.19594">
        <ele>885.03</ele>
        <time>2011-09-25T14:57:25Z</time>
      </trkpt>
      <trkpt lat="45.48506" lon="6.19589">
        <ele>885.99</ele>
        <time>2011-09-25T14:57:26Z</time>
      </trkpt>
      <trkpt lat="45.48504" lon="6.19586">
        <ele>885.51</ele>
        <time>2011-09-25T14:57:27Z</time>
      </trkpt>
      <trkpt lat="45.48501" lon="6.19581">
        <ele>884.55</ele>
        <time>2011-09-25T14:57:28Z</time>
      </trkpt>
      <trkpt lat="45.48488" lon="6.19561">
        <ele>887.43</ele>
        <time>2011-09-25T14:57:33Z</time>
      </trkpt>
      <trkpt lat="45.48485" lon="6.19557">
        <ele>886.47</ele>
        <time>2011-09-25T14:57:34Z</time>
      </trkpt>
      <trkpt lat="45.48452" lon="6.19482">
        <ele>890.32</ele>
        <time>2011-09-25T14:57:50Z</time>
      </trkpt>
      <trkpt lat="45.48429" lon="6.19426">
        <ele>891.76</ele>
        <time>2011-09-25T14:58:03Z</time>
      </trkpt>
      <trkpt lat="45.48418" lon="6.19361">
        <ele>894.64</ele>
        <time>2011-09-25T14:58:16Z</time>
      </trkpt>
      <trkpt lat="45.4842" lon="6.19356">
        <ele>894.16</ele>
        <time>2011-09-25T14:58:17Z</time>
      </trkpt>
      <trkpt lat="45.48441" lon="6.19285">
        <ele>897.05</ele>
        <time>2011-09-25T14:58:32Z</time>
      </trkpt>
      <trkpt lat="45.48445" lon="6.19244">
        <ele>896.09</ele>
        <time>2011-09-25T14:58:39Z</time>
      </trkpt>
      <trkpt lat="45.48446" lon="6.19186">
        <ele>897.05</ele>
        <time>2011-09-25T14:58:48Z</time>
      </trkpt>
      <trkpt lat="45.48446" lon="6.1918">
        <ele>897.53</ele>
        <time>2011-09-25T14:58:49Z</time>
      </trkpt>
      <trkpt lat="45.48445" lon="6.19081">
        <ele>898.49</ele>
        <time>2011-09-25T14:59:05Z</time>
      </trkpt>
      <trkpt lat="45.48439" lon="6.19011">
        <ele>901.85</ele>
        <time>2011-09-25T14:59:18Z</time>
      </trkpt>
      <trkpt lat="45.48433" lon="6.18946">
        <ele>903.78</ele>
        <time>2011-09-25T14:59:32Z</time>
      </trkpt>
      <trkpt lat="45.48427" lon="6.1891">
        <ele>907.14</ele>
        <time>2011-09-25T14:59:40Z</time>
      </trkpt>
      <trkpt lat="45.48415" lon="6.1885">
        <ele>908.1</ele>
        <time>2011-09-25T14:59:54Z</time>
      </trkpt>
      <trkpt lat="45.48394" lon="6.18778">
        <ele>910.51</ele>
        <time>2011-09-25T15:00:08Z</time>
      </trkpt>
      <trkpt lat="45.48367" lon="6.18689">
        <ele>911.47</ele>
        <time>2011-09-25T15:00:24Z</time>
      </trkpt>
      <trkpt lat="45.48364" lon="6.18677">
        <ele>911.47</ele>
        <time>2011-09-25T15:00:26Z</time>
      </trkpt>
      <trkpt lat="45.48355" lon="6.18644">
        <ele>911.47</ele>
        <time>2011-09-25T15:00:31Z</time>
      </trkpt>
      <trkpt lat="45.48352" lon="6.18621">
        <ele>911.47</ele>
        <time>2011-09-25T15:00:34Z</time>
      </trkpt>
      <trkpt lat="45.48351" lon="6.18597">
        <ele>910.03</ele>
        <time>2011-09-25T15:00:37Z</time>
      </trkpt>
      <trkpt lat="45.48349" lon="6.18581">
        <ele>910.51</ele>
        <time>2011-09-25T15:00:39Z</time>
      </trkpt>
      <trkpt lat="45.48348" lon="6.18573">
        <ele>908.58</ele>
        <time>2011-09-25T15:00:40Z</time>
      </trkpt>
      <trkpt lat="45.48343" lon="6.18548">
        <ele>908.58</ele>
        <time>2011-09-25T15:00:43Z</time>
      </trkpt>
      <trkpt lat="45.48335" lon="6.18515">
        <ele>908.58</ele>
        <time>2011-09-25T15:00:47Z</time>
      </trkpt>
      <trkpt lat="45.48315" lon="6.18409">
        <ele>907.62</ele>
        <time>2011-09-25T15:01:00Z</time>
      </trkpt>
      <trkpt lat="45.48313" lon="6.18401">
        <ele>909.06</ele>
        <time>2011-09-25T15:01:01Z</time>
      </trkpt>
      <trkpt lat="45.48303" lon="6.18372">
        <ele>907.62</ele>
        <time>2011-09-25T15:01:05Z</time>
      </trkpt>
      <trkpt lat="45.483" lon="6.18365">
        <ele>909.06</ele>
        <time>2011-09-25T15:01:06Z</time>
      </trkpt>
      <trkpt lat="45.48272" lon="6.18289">
        <ele>912.43</ele>
        <time>2011-09-25T15:01:19Z</time>
      </trkpt>
      <trkpt lat="45.48265" lon="6.18269">
        <ele>913.39</ele>
        <time>2011-09-25T15:01:23Z</time>
      </trkpt>
      <trkpt lat="45.48259" lon="6.18254">
        <ele>913.87</ele>
        <time>2011-09-25T15:01:26Z</time>
      </trkpt>
      <trkpt lat="45.48242" lon="6.18224">
        <ele>913.87</ele>
        <time>2011-09-25T15:01:32Z</time>
      </trkpt>
      <trkpt lat="45.48227" lon="6.18202">
        <ele>913.39</ele>
        <time>2011-09-25T15:01:36Z</time>
      </trkpt>
      <trkpt lat="45.48224" lon="6.18194">
        <ele>912.91</ele>
        <time>2011-09-25T15:01:37Z</time>
      </trkpt>
      <trkpt lat="45.48224" lon="6.18185">
        <ele>912.43</ele>
        <time>2011-09-25T15:01:38Z</time>
      </trkpt>
      <trkpt lat="45.48226" lon="6.18177">
        <ele>912.91</ele>
        <time>2011-09-25T15:01:39Z</time>
      </trkpt>
      <trkpt lat="45.4823" lon="6.1817">
        <ele>911.95</ele>
        <time>2011-09-25T15:01:40Z</time>
      </trkpt>
      <trkpt lat="45.48237" lon="6.18165">
        <ele>910.51</ele>
        <time>2011-09-25T15:01:41Z</time>
      </trkpt>
      <trkpt lat="45.48244" lon="6.18161">
        <ele>910.99</ele>
        <time>2011-09-25T15:01:42Z</time>
      </trkpt>
      <trkpt lat="45.4825" lon="6.18156">
        <ele>910.51</ele>
        <time>2011-09-25T15:01:43Z</time>
      </trkpt>
      <trkpt lat="45.48272" lon="6.18138">
        <ele>908.58</ele>
        <time>2011-09-25T15:01:46Z</time>
      </trkpt>
      <trkpt lat="45.48285" lon="6.1813">
        <ele>906.66</ele>
        <time>2011-09-25T15:01:48Z</time>
      </trkpt>
      <trkpt lat="45.48289" lon="6.18123">
        <ele>906.18</ele>
        <time>2011-09-25T15:01:49Z</time>
      </trkpt>
      <trkpt lat="45.48289" lon="6.18116">
        <ele>905.7</ele>
        <time>2011-09-25T15:01:50Z</time>
      </trkpt>
      <trkpt lat="45.48285" lon="6.18109">
        <ele>904.74</ele>
        <time>2011-09-25T15:01:51Z</time>
      </trkpt>
      <trkpt lat="45.48279" lon="6.18106">
        <ele>904.74</ele>
        <time>2011-09-25T15:01:52Z</time>
      </trkpt>
      <trkpt lat="45.48272" lon="6.18106">
        <ele>903.3</ele>
        <time>2011-09-25T15:01:53Z</time>
      </trkpt>
      <trkpt lat="45.48264" lon="6.18106">
        <ele>904.26</ele>
        <time>2011-09-25T15:01:54Z</time>
      </trkpt>
      <trkpt lat="45.48255" lon="6.18105">
        <ele>903.3</ele>
        <time>2011-09-25T15:01:55Z</time>
      </trkpt>
      <trkpt lat="45.48246" lon="6.18103">
        <ele>902.33</ele>
        <time>2011-09-25T15:01:56Z</time>
      </trkpt>
      <trkpt lat="45.48237" lon="6.18099">
        <ele>902.82</ele>
        <time>2011-09-25T15:01:57Z</time>
      </trkpt>
      <trkpt lat="45.48227" lon="6.18094">
        <ele>901.37</ele>
        <time>2011-09-25T15:01:58Z</time>
      </trkpt>
      <trkpt lat="45.48218" lon="6.18087">
        <ele>900.41</ele>
        <time>2011-09-25T15:01:59Z</time>
      </trkpt>
      <trkpt lat="45.48209" lon="6.18079">
        <ele>900.89</ele>
        <time>2011-09-25T15:02:00Z</time>
      </trkpt>
      <trkpt lat="45.48201" lon="6.18071">
        <ele>899.93</ele>
        <time>2011-09-25T15:02:01Z</time>
      </trkpt>
      <trkpt lat="45.48173" lon="6.18044">
        <ele>896.09</ele>
        <time>2011-09-25T15:02:04Z</time>
      </trkpt>
      <trkpt lat="45.48148" lon="6.18015">
        <ele>894.16</ele>
        <time>2011-09-25T15:02:07Z</time>
      </trkpt>
      <trkpt lat="45.48142" lon="6.18002">
        <ele>893.2</ele>
        <time>2011-09-25T15:02:08Z</time>
      </trkpt>
      <trkpt lat="45.48138" lon="6.17987">
        <ele>892.72</ele>
        <time>2011-09-25T15:02:09Z</time>
      </trkpt>
      <trkpt lat="45.48135" lon="6.17972">
        <ele>891.76</ele>
        <time>2011-09-25T15:02:10Z</time>
      </trkpt>
      <trkpt lat="45.48133" lon="6.17956">
        <ele>891.76</ele>
        <time>2011-09-25T15:02:11Z</time>
      </trkpt>
      <trkpt lat="45.48124" lon="6.17907">
        <ele>887.91</ele>
        <time>2011-09-25T15:02:14Z</time>
      </trkpt>
      <trkpt lat="45.48114" lon="6.17876">
        <ele>886.95</ele>
        <time>2011-09-25T15:02:16Z</time>
      </trkpt>
      <trkpt lat="45.48085" lon="6.17785">
        <ele>884.07</ele>
        <time>2011-09-25T15:02:22Z</time>
      </trkpt>
      <trkpt lat="45.4808" lon="6.17772">
        <ele>885.03</ele>
        <time>2011-09-25T15:02:23Z</time>
      </trkpt>
      <trkpt lat="45.48074" lon="6.1776">
        <ele>884.07</ele>
        <time>2011-09-25T15:02:24Z</time>
      </trkpt>
      <trkpt lat="45.48067" lon="6.1775">
        <ele>885.03</ele>
        <time>2011-09-25T15:02:25Z</time>
      </trkpt>
      <trkpt lat="45.4806" lon="6.17741">
        <ele>885.03</ele>
        <time>2011-09-25T15:02:26Z</time>
      </trkpt>
      <trkpt lat="45.48052" lon="6.17734">
        <ele>884.55</ele>
        <time>2011-09-25T15:02:27Z</time>
      </trkpt>
      <trkpt lat="45.48044" lon="6.17728">
        <ele>885.03</ele>
        <time>2011-09-25T15:02:28Z</time>
      </trkpt>
      <trkpt lat="45.48035" lon="6.17723">
        <ele>885.03</ele>
        <time>2011-09-25T15:02:29Z</time>
      </trkpt>
      <trkpt lat="45.47956" lon="6.17651">
        <ele>881.67</ele>
        <time>2011-09-25T15:02:39Z</time>
      </trkpt>
      <trkpt lat="45.47926" lon="6.17602">
        <ele>881.67</ele>
        <time>2011-09-25T15:02:44Z</time>
      </trkpt>
      <trkpt lat="45.47907" lon="6.17548">
        <ele>881.19</ele>
        <time>2011-09-25T15:02:49Z</time>
      </trkpt>
      <trkpt lat="45.47905" lon="6.17536">
        <ele>880.22</ele>
        <time>2011-09-25T15:02:50Z</time>
      </trkpt>
      <trkpt lat="45.47906" lon="6.17524">
        <ele>878.78</ele>
        <time>2011-09-25T15:02:51Z</time>
      </trkpt>
      <trkpt lat="45.47908" lon="6.17512">
        <ele>878.78</ele>
        <time>2011-09-25T15:02:52Z</time>
      </trkpt>
      <trkpt lat="45.47913" lon="6.17501">
        <ele>878.78</ele>
        <time>2011-09-25T15:02:53Z</time>
      </trkpt>
      <trkpt lat="45.47917" lon="6.17489">
        <ele>877.34</ele>
        <time>2011-09-25T15:02:54Z</time>
      </trkpt>
      <trkpt lat="45.47922" lon="6.17477">
        <ele>876.86</ele>
        <time>2011-09-25T15:02:55Z</time>
      </trkpt>
      <trkpt lat="45.47931" lon="6.17451">
        <ele>876.38</ele>
        <time>2011-09-25T15:02:57Z</time>
      </trkpt>
      <trkpt lat="45.47941" lon="6.17406">
        <ele>872.53</ele>
        <time>2011-09-25T15:03:00Z</time>
      </trkpt>
      <trkpt lat="45.47951" lon="6.1736">
        <ele>869.17</ele>
        <time>2011-09-25T15:03:03Z</time>
      </trkpt>
      <trkpt lat="45.47952" lon="6.17344">
        <ele>870.13</ele>
        <time>2011-09-25T15:03:04Z</time>
      </trkpt>
      <trkpt lat="45.47953" lon="6.17267">
        <ele>867.25</ele>
        <time>2011-09-25T15:03:09Z</time>
      </trkpt>
      <trkpt lat="45.47954" lon="6.17253">
        <ele>866.29</ele>
        <time>2011-09-25T15:03:10Z</time>
      </trkpt>
      <trkpt lat="45.47957" lon="6.17241">
        <ele>865.8</ele>
        <time>2011-09-25T15:03:11Z</time>
      </trkpt>
      <trkpt lat="45.47962" lon="6.1723">
        <ele>865.8</ele>
        <time>2011-09-25T15:03:12Z</time>
      </trkpt>
      <trkpt lat="45.47968" lon="6.17222">
        <ele>863.88</ele>
        <time>2011-09-25T15:03:13Z</time>
      </trkpt>
      <trkpt lat="45.47974" lon="6.17215">
        <ele>863.4</ele>
        <time>2011-09-25T15:03:14Z</time>
      </trkpt>
      <trkpt lat="45.47977" lon="6.17206">
        <ele>863.4</ele>
        <time>2011-09-25T15:03:15Z</time>
      </trkpt>
      <trkpt lat="45.47978" lon="6.17197">
        <ele>862.92</ele>
        <time>2011-09-25T15:03:16Z</time>
      </trkpt>
      <trkpt lat="45.47976" lon="6.17187">
        <ele>863.4</ele>
        <time>2011-09-25T15:03:17Z</time>
      </trkpt>
      <trkpt lat="45.47972" lon="6.17179">
        <ele>863.4</ele>
        <time>2011-09-25T15:03:18Z</time>
      </trkpt>
      <trkpt lat="45.47968" lon="6.1717">
        <ele>862.92</ele>
        <time>2011-09-25T15:03:19Z</time>
      </trkpt>
      <trkpt lat="45.47961" lon="6.17158">
        <ele>861.48</ele>
        <time>2011-09-25T15:03:21Z</time>
      </trkpt>
      <trkpt lat="45.4796" lon="6.17151">
        <ele>861.48</ele>
        <time>2011-09-25T15:03:22Z</time>
      </trkpt>
      <trkpt lat="45.4796" lon="6.17144">
        <ele>861</ele>
        <time>2011-09-25T15:03:23Z</time>
      </trkpt>
      <trkpt lat="45.47962" lon="6.17139">
        <ele>861</ele>
        <time>2011-09-25T15:03:24Z</time>
      </trkpt>
      <trkpt lat="45.47965" lon="6.17136">
        <ele>860.52</ele>
        <time>2011-09-25T15:03:25Z</time>
      </trkpt>
      <trkpt lat="45.47966" lon="6.17133">
        <ele>860.52</ele>
        <time>2011-09-25T15:03:26Z</time>
      </trkpt>
      <trkpt lat="45.47968" lon="6.1713">
        <ele>861.96</ele>
        <time>2011-09-25T15:03:27Z</time>
      </trkpt>
      <trkpt lat="45.47967" lon="6.17128">
        <ele>861.96</ele>
        <time>2011-09-25T15:03:28Z</time>
      </trkpt>
      <trkpt lat="45.47966" lon="6.17127">
        <ele>861.48</ele>
        <time>2011-09-25T15:03:39Z</time>
      </trkpt>
      <trkpt lat="45.47966" lon="6.17127">
        <ele>861</ele>
        <time>2011-09-25T15:03:52Z</time>
      </trkpt>
      <trkpt lat="45.47965" lon="6.17126">
        <ele>861.96</ele>
        <time>2011-09-25T15:03:54Z</time>
      </trkpt>
      <trkpt lat="45.47965" lon="6.17124">
        <ele>861.96</ele>
        <time>2011-09-25T15:03:58Z</time>
      </trkpt>
      <trkpt lat="45.47969" lon="6.17122">
        <ele>860.52</ele>
        <time>2011-09-25T15:04:02Z</time>
      </trkpt>
      <trkpt lat="45.4797" lon="6.1712">
        <ele>861.48</ele>
        <time>2011-09-25T15:04:03Z</time>
      </trkpt>
      <trkpt lat="45.4797" lon="6.17119">
        <ele>861</ele>
        <time>2011-09-25T15:04:16Z</time>
      </trkpt>
      <trkpt lat="45.47969" lon="6.17121">
        <ele>861</ele>
        <time>2011-09-25T15:04:31Z</time>
      </trkpt>
      <trkpt lat="45.47965" lon="6.17123">
        <ele>861</ele>
        <time>2011-09-25T15:04:47Z</time>
      </trkpt>
      <trkpt lat="45.47965" lon="6.17123">
        <ele>854.75</ele>
        <time>2011-09-25T15:04:55Z</time>
      </trkpt>
      <trkpt lat="45.47965" lon="6.17123">
        <ele>864.84</ele>
        <time>2011-09-25T15:04:56Z</time>
      </trkpt>
      <trkpt lat="45.47965" lon="6.17123">
        <ele>860.52</ele>
        <time>2011-09-25T15:04:57Z</time>
      </trkpt>
      <trkpt lat="45.47965" lon="6.17123">
        <ele>861.48</ele>
        <time>2011-09-25T15:05:17Z</time>
      </trkpt>
      <trkpt lat="45.47966" lon="6.17124">
        <ele>860.52</ele>
        <time>2011-09-25T15:05:29Z</time>
      </trkpt>
      <trkpt lat="45.47966" lon="6.17125">
        <ele>861</ele>
        <time>2011-09-25T15:05:43Z</time>
      </trkpt>
      <trkpt lat="45.47966" lon="6.17125">
        <ele>859.08</ele>
        <time>2011-09-25T15:05:59Z</time>
      </trkpt>
      <trkpt lat="45.47966" lon="6.17125">
        <ele>859.56</ele>
        <time>2011-09-25T15:06:26Z</time>
      </trkpt>
      <trkpt lat="45.47966" lon="6.17125">
        <ele>859.56</ele>
        <time>2011-09-25T15:06:51Z</time>
      </trkpt>
      <trkpt lat="45.47965" lon="6.17125">
        <ele>860.04</ele>
        <time>2011-09-25T15:07:15Z</time>
      </trkpt>
      <trkpt lat="45.47965" lon="6.17125">
        <ele>860.04</ele>
        <time>2011-09-25T15:07:35Z</time>
      </trkpt>
      <trkpt lat="45.47965" lon="6.17125">
        <ele>860.04</ele>
        <time>2011-09-25T15:07:48Z</time>
      </trkpt>
      <trkpt lat="45.47965" lon="6.17125">
        <ele>859.56</ele>
        <time>2011-09-25T15:08:11Z</time>
      </trkpt>
      <trkpt lat="45.47966" lon="6.17125">
        <ele>859.56</ele>
        <time>2011-09-25T15:08:39Z</time>
      </trkpt>
      <trkpt lat="45.47966" lon="6.17126">
        <ele>859.56</ele>
        <time>2011-09-25T15:09:09Z</time>
      </trkpt>
      <trkpt lat="45.47966" lon="6.17126">
        <ele>859.56</ele>
        <time>2011-09-25T15:09:39Z</time>
      </trkpt>
      <trkpt lat="45.47966" lon="6.17126">
        <ele>859.08</ele>
        <time>2011-09-25T15:10:20Z</time>
      </trkpt>
      <trkpt lat="45.47967" lon="6.17125">
        <ele>857.63</ele>
        <time>2011-09-25T15:10:42Z</time>
      </trkpt>
      <trkpt lat="45.47967" lon="6.17125">
        <ele>859.08</ele>
        <time>2011-09-25T15:11:00Z</time>
      </trkpt>
      <trkpt lat="45.47968" lon="6.17125">
        <ele>859.08</ele>
        <time>2011-09-25T15:11:25Z</time>
      </trkpt>
      <trkpt lat="45.47968" lon="6.17125">
        <ele>859.08</ele>
        <time>2011-09-25T15:11:26Z</time>
      </trkpt>
    </trkseg>
  </trk>
</gpx>